[[{"header":{"parameterUnit":"m.s-1","parameterCategory":1,"la1":30.6,"la2":28.766,"lo1":-90.7593,"lo2":-88.6598,"dy":0.0162,"dx":0.0183,"nx":116,"ny":114,"refTime":"2023-04-09T00:00:00:Z","depth":0,"parameterNumber":2,"parameterNumberName":"U-component_of_WINDS"},"data":[0.0,0.0,0.0,0.0,0.0,0.0,0.0,0.0,0.0,0.0,0.0,0.0,0.0,0.0,0.0,0.0,0.0,0.0,0.0,0.0,0.0,0.0,0.0,0.0,0.0,0.0,0.0,0.0,0.0,0.0,0.0,0.0,0.0,0.0,0.0,0.0,0.0,0.0,0.0,0.0,0.0,0.0,0.0,0.0,0.0,0.0,0.0,0.0,0.0,0.0,0.0,0.0,0.0,0.0,0.0,0.0,0.0,0.0,0.0,0.0,0.0,0.0,0.0,0.0,0.0,0.0,0.0,0.0,0.0,0.0,0.0,0.0,0.0,0.0,0.0,0.0,0.0,0.0,0.0,0.0,0.0,0.0,0.0,0.0,0.0,0.0,0.0,0.0,0.0,0.0,0.0,0.0,0.0,0.0,0.0,0.0,0.0,0.0,0.0,0.0,0.0,0.0,0.0,0.0,0.0,0.0,0.0,0.0,0.0,0.0,0.0,0.0,0.0,0.0,0.0,0.0,0.0,0.0,0.0,0.0,0.0,0.0,0.0,0.0,0.0,0.0,0.0,0.0,0.0,0.0,0.0,0.0,0.0,0.0,0.0,0.0,0.0,0.0,0.0,0.0,0.0,0.0,0.0,0.0,0.0,0.0,0.0,0.0,0.0,0.0,0.0,0.0,0.0,0.0,0.0,0.0,0.0,0.0,0.0,0.0,0.0,0.0,0.0,0.0,0.0,0.0,0.0,0.0,0.0,0.0,0.0,0.0,0.0,0.0,0.0,0.0,0.0,0.0,0.0,0.0,0.0,0.0,0.0,0.0,0.0,0.0,0.0,0.0,0.0,0.0,0.0,0.0,0.0,0.0,0.0,0.0,0.0,0.0,0.0,0.0,0.0,0.0,0.0,0.0,0.0,0.0,0.0,0.0,0.0,0.0,0.0,0.0,0.0,0.0,0.0,0.0,0.0,0.0,0.0,0.0,0.0,0.0,0.0,0.0,0.0,0.0,0.0,0.0,0.0,0.0,0.0,0.0,0.0,0.0,0.0,0.0,0.0,0.0,0.0,0.0,0.0,0.0,0.0,0.0,0.0,0.0,0.0,0.0,0.0,0.0,0.0,0.0,0.0,0.0,0.0,0.0,0.0,0.0,0.0,0.0,0.0,0.0,0.0,0.0,0.0,0.0,0.0,0.0,0.0,0.0,0.0,0.0,0.0,0.0,0.0,0.0,0.0,0.0,0.0,0.0,0.0,0.0,0.0,0.0,0.0,0.0,0.0,0.0,0.0,0.0,0.0,0.0,0.0,0.0,0.0,0.0,0.0,0.0,0.0,0.0,0.0,0.0,0.0,0.0,0.0,0.0,0.0,0.0,0.0,0.0,0.0,0.0,0.0,0.0,0.0,0.0,0.0,0.0,0.0,0.0,0.0,0.0,0.0,0.0,0.0,0.0,0.0,0.0,0.0,0.0,0.0,0.0,0.0,0.0,0.0,0.0,0.0,0.0,0.0,0.0,0.0,0.0,0.0,0.0,0.0,0.0,0.0,0.0,0.0,0.0,0.0,0.0,0.0,0.0,0.0,0.0,0.0,0.0,0.0,0.0,0.0,0.0,0.0,0.0,0.0,0.0,0.0,0.0,0.0,0.0,0.0,0.0,0.0,0.0,0.0,0.0,0.0,0.0,0.0,0.0,0.0,0.0,0.0,0.0,0.0,0.0,0.0,0.0,0.0,0.0,0.0,0.0,0.0,0.0,0.0,0.0,0.0,0.0,0.0,0.0,0.0,0.0,0.0,0.0,0.0,0.0,0.0,0.0,0.0,0.0,0.0,0.0,0.0,0.0,0.0,0.0,0.0,0.0,0.0,0.0,0.0,0.0,0.0,0.0,0.0,0.0,0.0,0.0,0.0,0.0,0.0,0.0,0.0,0.0,0.0,0.0,0.0,0.0,0.0,0.0,0.0,0.0,0.0,0.0,0.0,0.0,0.0,0.0,0.0,0.0,0.0,0.0,0.0,0.0,0.0,0.0,0.0,0.0,0.0,0.0,0.0,0.0,0.0,0.0,0.0,0.0,0.0,0.0,0.0,0.0,0.0,0.0,0.0,0.0,0.0,0.0,0.0,0.0,0.0,0.0,0.0,0.0,0.0,0.0,0.0,0.0,0.0,0.0,0.0,0.0,0.0,0.0,0.0,0.0,0.0,0.0,0.0,0.0,0.0,0.0,0.0,0.0,0.0,0.0,0.0,0.0,0.0,0.0,0.0,0.0,0.0,0.0,0.0,0.0,0.0,0.0,0.0,0.0,0.0,0.0,0.0,0.0,0.0,0.0,0.0,0.0,0.0,0.0,0.0,0.0,0.0,0.0,0.0,0.0,0.0,0.0,0.0,0.0,0.0,0.0,0.0,0.0,0.0,0.0,0.0,0.0,0.0,0.0,0.0,0.0,0.0,0.0,0.0,0.0,0.0,0.0,0.0,0.0,0.0,0.0,0.0,0.0,0.0,0.0,0.0,0.0,0.0,0.0,0.0,0.0,0.0,0.0,0.0,0.0,0.0,0.0,0.0,0.0,0.0,0.0,0.0,0.0,0.0,0.0,0.0,0.0,0.0,0.0,0.0,0.0,0.0,0.0,0.0,0.0,0.0,0.0,0.0,0.0,0.0,0.0,0.0,0.0,0.0,0.0,0.0,0.0,0.0,0.0,0.0,0.0,0.0,0.0,0.0,0.0,0.0,0.0,0.0,0.0,0.0,0.0,0.0,0.0,0.0,0.0,0.0,0.0,0.0,0.0,0.0,0.0,0.0,0.0,0.0,0.0,0.0,0.0,0.0,0.0,0.0,0.0,0.0,0.0,0.0,0.0,0.0,0.0,0.0,0.0,0.0,0.0,0.0,0.0,0.0,0.0,0.0,0.0,0.0,0.0,0.0,0.0,0.0,0.0,0.0,0.0,0.0,0.0,0.0,0.0,0.0,0.0,0.0,0.0,0.0,0.0,0.0,0.0,0.0,0.0,0.0,0.0,0.0,0.0,0.0,0.0,0.0,0.0,0.0,0.0,0.0,0.0,0.0,0.0,0.0,0.0,0.0,0.0,0.0,0.0,0.0,0.0,0.0,0.0,0.0,0.0,0.0,0.0,0.0,0.0,0.0,0.0,0.0,0.0,0.0,0.0,0.0,0.0,0.0,0.0,0.0,0.0,0.0,0.0,0.0,0.0,0.0,0.0,0.0,0.0,0.0,0.0,0.0,0.0,0.0,0.0,0.0,0.0,0.0,0.0,0.0,0.0,0.0,0.0,0.0,0.0,0.0,0.0,0.0,0.0,0.0,0.0,0.0,0.0,0.0,0.0,0.0,0.0,0.0,0.0,0.0,0.0,0.0,0.0,0.0,0.0,0.0,0.0,0.0,0.0,0.0,0.0,0.0,0.0,0.0,0.0,0.0,0.0,0.0,0.0,0.0,0.0,0.0,0.0,0.0,0.0,0.0,0.0,0.0,0.0,0.0,0.0,0.0,0.0,0.0,0.0,0.0,0.0,0.0,0.0,0.0,0.0,0.0,0.0,0.0,0.0,0.0,0.0,0.0,0.0,0.0,0.0,0.0,0.0,0.0,0.0,0.0,0.0,0.0,0.0,0.0,0.0,0.0,0.0,0.0,0.0,0.0,0.0,0.0,0.0,0.0,0.0,0.0,0.0,0.0,0.0,0.0,0.0,0.0,0.0,0.0,0.0,0.0,0.0,0.0,0.0,0.0,0.0,0.0,0.0,0.0,0.0,0.0,0.0,0.0,0.0,0.0,0.0,0.0,0.0,0.0,0.0,0.0,0.0,0.0,0.0,0.0,0.0,0.0,0.0,0.0,0.0,0.0,0.0,0.0,0.0,0.0,0.0,0.0,0.0,0.0,0.0,0.0,0.0,0.0,0.0,0.0,0.0,0.0,0.0,0.0,0.0,0.0,0.0,0.0,0.0,0.0,0.0,0.0,0.0,0.0,0.0,0.0,0.0,0.0,0.0,0.0,0.0,0.0,0.0,0.0,0.0,0.0,0.0,0.0,0.0,0.0,0.0,0.0,0.0,0.0,0.0,0.0,0.0,0.0,0.0,0.0,0.0,0.0,0.0,0.0,0.0,0.0,0.0,0.0,0.0,0.0,0.0,0.0,0.0,0.0,0.0,0.0,0.0,0.0,0.0,0.0,0.0,0.0,0.0,0.0,0.0,0.0,0.0,0.0,0.0,0.0,0.0,0.0,0.0,0.0,0.0,0.0,0.0,0.0,0.0,0.0,0.0,0.0,0.0,0.0,0.0,0.0,0.0,0.0,0.0,0.0,0.0,0.0,0.0,0.0,0.0,0.0,0.0,0.0,0.0,0.0,0.0,0.0,0.0,0.0,0.0,0.0,0.0,0.0,0.0,0.0,0.0,0.0,0.0,0.0,0.0,0.0,0.0,0.0,0.0,0.0,0.0,0.0,0.0,0.0,0.0,0.0,0.0,0.0,0.0,0.0,0.0,0.0,0.0,0.0,0.0,0.0,0.0,0.0,0.0,0.0,0.0,0.0,0.0,0.0,0.0,0.0,0.0,0.0,0.0,0.0,0.0,0.0,0.0,0.0,0.0,0.0,0.0,0.0,0.0,0.0,0.0,0.0,0.0,0.0,0.0,0.0,0.0,0.0,0.0,0.0,0.0,0.0,0.0,0.0,0.0,0.0,0.0,0.0,0.0,0.0,0.0,0.0,0.0,0.0,0.0,0.0,0.0,0.0,0.0,0.0,0.0,0.0,0.0,0.0,0.0,0.0,0.0,0.0,0.0,0.0,0.0,0.0,0.0,0.0,0.0,0.0,0.0,0.0,0.0,0.0,0.0,0.0,0.0,0.0,0.0,0.0,0.0,0.0,0.0,0.0,0.0,0.0,0.0,0.0,0.0,0.0,0.0,0.0,0.0,0.0,0.0,0.0,0.0,0.0,0.0,0.0,0.0,0.0,0.0,0.0,0.0,0.0,0.0,0.0,0.0,0.0,0.0,0.0,0.0,0.0,0.0,0.0,0.0,0.0,0.0,0.0,0.0,0.0,0.0,0.0,0.0,0.0,0.0,0.0,0.0,0.0,0.0,0.0,0.0,0.0,0.0,0.0,0.0,0.0,0.0,0.0,0.0,0.0,0.0,0.0,0.0,0.0,0.0,0.0,0.0,0.0,0.0,0.0,0.0,0.0,0.0,0.0,0.0,0.0,0.0,0.0,0.0,0.0,0.0,0.0,0.0,0.0,0.0,0.0,0.0,0.0,0.0,0.0,0.0,0.0,0.0,0.0,0.0,0.0,0.0,0.0,0.0,0.0,0.0,0.0,0.0,0.0,0.0,0.0,0.0,0.0,0.0,0.0,0.0,0.0,0.0,0.0,0.0,0.0,0.0,0.0,0.0,0.0,0.0,0.0,0.0,0.0,0.0,0.0,0.0,0.0,0.0,0.0,0.0,0.0,0.0,0.0,0.0,0.0,0.0,0.0,0.0,0.0,0.0,0.0,0.0,0.0,0.0,0.0,0.0,0.0,0.0,0.0,0.0,0.0,0.0,0.0,0.0,0.0,0.0,0.0,0.0,0.0,0.0,0.0,0.0,0.0,0.0,0.0,0.0,0.0,0.0,0.0,0.0,0.0,0.0,0.0,0.0,0.0,0.0,0.0,0.0,0.0,0.0,0.0,0.0,0.0,0.0,0.0,0.0,0.0,0.0,0.0,0.0,0.0,0.0,0.0,0.0,0.0,0.0,0.0,0.0,0.0,0.0,0.0,0.0,0.0,0.0,0.0,0.0,0.0,0.0,0.0,0.0,0.0,0.0,0.0,0.0,0.0,0.0,0.0,0.0,0.0,0.0,0.0,0.0,0.0,0.0,0.0,0.0,0.0,0.0,0.0,0.0,0.0,0.0,0.0,0.0,0.0,0.0,0.0,0.0,0.0,0.0,0.0,0.0,0.0,0.0,0.0,0.0,0.0,0.0,0.0,0.0,0.0,0.0,0.0,0.0,0.0,0.0,0.0,0.0,0.0,0.0,0.0,0.0,0.0,0.0,0.0,0.0,0.0,0.0,0.0,0.0,0.0,0.0,0.0,0.0,0.0,0.0,2.6753,0.0,0.0,0.0,0.0,0.0,0.0,0.0,0.0,0.0,0.0,0.0,0.0,0.0,0.0,0.0,0.0,0.0,0.0,0.0,0.0,0.0,0.0,0.0,0.0,0.0,0.0,0.0,0.0,0.0,0.0,0.0,0.0,0.0,0.0,0.0,0.0,0.0,0.0,1.5792,1.5911,1.6164,1.655,1.7018,1.689,1.627,0.0,0.0,0.0,0.0,0.0,0.0,0.0,0.0,0.0,0.0,0.0,0.0,0.0,0.0,0.0,0.0,0.0,0.0,0.0,0.0,0.0,0.0,0.0,0.0,0.0,0.0,0.0,0.0,0.0,0.0,0.0,0.0,0.0,0.0,0.0,0.0,0.0,0.0,0.0,0.0,0.0,0.0,0.0,0.0,0.0,0.0,0.0,0.0,0.0,0.0,0.0,0.0,0.0,0.0,0.0,0.0,0.0,0.0,0.0,0.0,0.0,0.0,0.0,0.0,0.0,0.0,0.0,0.0,0.0,0.0,0.0,2.7967,0.0,0.0,0.0,0.0,0.0,0.0,0.0,0.0,0.0,0.0,0.0,0.0,0.0,0.0,0.0,0.0,0.0,0.0,0.0,0.0,0.0,0.0,0.0,1.1003,1.1079,1.1284,1.1262,1.1583,0.0,0.0,0.0,0.0,0.0,0.0,1.4748,1.5015,1.5375,1.5808,1.5987,1.6356,1.6852,1.7496,1.7355,1.6554,1.6857,0.0,0.0,0.0,0.0,0.0,0.0,0.0,0.0,0.0,0.0,0.0,0.0,0.0,0.0,0.0,0.0,0.0,0.0,0.0,0.0,0.0,0.0,0.0,0.0,0.0,0.0,0.0,0.0,0.0,0.0,0.0,0.0,0.0,0.0,0.0,0.0,0.0,0.0,0.0,0.0,0.0,0.0,0.0,0.0,0.0,0.0,0.0,0.0,0.0,0.0,0.0,0.0,0.0,0.0,0.0,0.0,0.0,0.0,0.0,0.0,0.0,0.0,0.0,3.2636,3.3407,3.4014,3.4172,3.4187,3.4063,3.295,3.1501,2.9906,2.9889,0.0,0.0,0.0,0.0,0.0,0.0,0.0,0.0,0.0,0.0,0.0,0.0,0.0,0.0,0.0,0.0,0.0,0.0,0.0,0.0,0.0,1.1003,1.1079,1.1284,1.1133,1.1088,1.1213,0.0,0.0,0.0,0.0,0.0,1.3777,1.4061,1.4731,1.5808,1.679,1.7432,1.7758,1.8632,1.892,1.8654,1.7515,1.7138,1.7328,0.0,0.0,0.0,0.0,0.0,0.0,0.0,0.0,0.0,0.0,0.0,0.0,0.0,0.0,0.0,0.0,0.0,0.0,0.0,0.0,0.0,0.0,0.0,0.0,0.0,0.0,0.0,0.0,0.0,0.0,0.0,0.0,0.0,0.0,0.0,0.0,0.0,0.0,0.0,0.0,0.0,2.3525,2.3225,0.0,0.0,0.0,0.0,0.0,0.0,0.0,0.0,0.0,0.0,0.0,0.0,0.0,3.1184,3.2195,3.4338,3.5144,3.4591,3.6479,3.6923,3.6143,3.711,3.7332,3.6963,3.6787,0.0,3.0689,2.9767,0.0,0.0,0.0,0.0,0.0,0.0,0.0,0.0,0.0,0.0,0.0,0.0,0.0,0.0,0.0,0.0,0.0,0.0,0.0,0.0,0.0,0.9644,0.989,1.0204,1.0416,1.0604,1.0711,1.1056,0.0,0.0,0.0,1.2343,1.3574,1.3718,1.47,1.6591,1.7929,1.863,1.8764,1.9463,1.9697,1.9472,1.8849,1.8278,1.7718,1.7007,0.0,0.0,0.0,0.0,0.0,0.0,0.0,0.0,0.0,0.0,0.0,0.0,0.0,0.0,0.0,0.0,0.0,0.0,0.0,0.0,0.0,0.0,0.0,0.0,0.0,0.0,0.0,0.0,0.0,0.0,0.0,0.0,0.0,0.0,0.0,0.0,0.0,0.0,0.0,2.2138,2.273,2.2978,2.2904,2.28,0.0,0.0,0.0,0.0,0.0,0.0,0.0,0.0,0.0,3.1554,3.2664,3.3658,3.4627,3.6315,3.7119,3.7103,3.8899,3.9414,3.8739,3.9937,4.038,4.0177,3.9912,3.8336,3.5694,3.2744,3.0409,2.854,0.0,0.0,0.0,0.0,2.7726,2.8708,0.0,0.0,0.0,0.0,0.0,0.0,0.0,0.0,0.0,0.0,0.0,0.0,0.8525,0.8812,0.9194,0.9624,0.9942,1.0188,1.035,1.0385,1.0476,1.0649,1.0635,1.1316,1.2814,1.3754,1.5368,1.7769,1.9147,1.9923,2.0084,2.0628,2.0788,2.0575,2.0508,1.9811,1.8618,1.7641,1.6943,1.6435,0.0,0.0,0.0,0.0,0.0,0.0,0.0,0.0,0.0,0.0,0.0,0.0,0.0,0.0,0.0,0.0,0.0,0.0,0.0,0.0,0.0,0.0,0.0,0.0,0.0,0.0,0.0,0.0,0.0,0.0,0.0,0.0,0.0,0.0,0.0,0.0,0.0,2.2562,2.257,2.321,2.3127,2.2975,0.0,0.0,0.0,0.0,0.0,0.0,3.1006,3.209,3.3359,3.4863,3.5742,3.6621,3.748,3.8495,3.9183,3.9608,4.0916,4.1311,4.0966,4.2124,4.261,4.2477,4.2011,4.1234,4.0007,3.5871,3.2995,3.1055,2.9813,2.9188,2.9031,2.9246,2.9965,3.0944,0.0,0.0,0.0,0.0,0.0,0.0,0.0,0.0,0.0,0.0,0.0,0.8172,0.8958,0.9348,0.9778,1.0312,1.0087,0.9909,0.9919,0.9699,0.9369,0.8954,0.9338,0.9944,1.0721,1.4111,1.7005,1.9281,2.0441,2.1309,2.1871,2.2492,2.276,2.2733,2.2418,2.163,2.0418,1.8411,1.7889,1.8237,1.6832,0.0,0.0,0.0,0.0,0.0,0.0,0.0,0.0,0.0,0.0,0.0,0.0,0.0,0.0,0.0,0.0,0.0,0.0,0.0,0.0,0.0,0.0,0.0,0.0,0.0,0.0,0.0,0.0,0.0,0.0,0.0,0.0,0.0,0.0,0.0,0.0,0.0,0.0,2.4573,2.5024,0.0,0.0,0.0,0.0,2.8498,3.0691,3.2902,3.5,3.5547,3.6758,3.8848,3.9766,4.0644,4.1504,4.1953,4.2187,4.2226,4.2744,4.2764,4.2345,4.322,4.3399,4.3022,4.2546,4.2089,4.1453,3.7897,3.5422,3.3782,3.2511,3.2237,3.25,3.214,3.2531,3.3184,0.0,0.0,0.0,0.0,0.0,0.0,0.0,0.0,0.799,0.8199,0.8363,0.8739,0.9518,1.0233,1.0847,1.1381,1.1451,1.124,1.0777,1.0238,0.9811,0.9527,0.9334,1.0111,1.1975,1.531,1.7738,1.9205,2.1032,2.2164,2.2586,2.28,2.3,2.3153,2.3012,2.2732,2.2258,2.0405,1.9187,1.8424,1.7314,1.6764,0.0,0.0,0.0,0.0,0.0,0.0,0.0,0.0,0.0,0.0,0.0,0.0,0.0,0.0,0.0,0.0,0.0,0.0,0.0,0.0,0.0,0.0,0.0,0.0,0.0,0.0,0.0,0.0,0.0,0.0,0.0,0.0,0.0,0.0,0.0,0.0,0.0,2.7404,2.7239,0.0,2.7158,2.8222,3.0162,3.3177,3.522,3.7144,3.9004,3.8785,3.9672,4.203,4.1382,4.1531,4.2617,4.3047,4.3105,4.2851,4.3296,4.3394,4.3283,4.3818,4.3859,4.3498,4.3299,4.3022,4.2486,4.0694,3.8585,3.6426,3.5156,3.457,3.4453,3.4297,3.4609,3.5117,0.0,0.0,0.0,0.0,0.0,0.0,0.0,0.0,0.7613,0.7923,0.8582,0.9315,1.0186,1.1102,1.1866,1.2313,1.2337,1.2077,1.1503,1.0599,1.004,0.9917,0.9721,1.0733,1.3056,1.5599,1.7506,1.8719,2.0398,2.1628,2.2353,2.2479,2.2928,2.3621,2.3692,2.3679,2.3541,2.2365,2.0842,1.9174,1.8291,1.7956,1.7795,0.0,0.0,0.0,0.0,0.0,0.0,0.0,0.0,0.0,0.0,0.0,0.0,0.0,0.0,0.0,0.0,0.0,0.0,0.0,0.0,0.0,0.0,0.0,0.0,0.0,0.0,0.0,0.0,0.0,0.0,0.0,0.0,0.0,0.0,2.5993,2.7408,2.8855,2.8869,2.8875,2.9219,3.0587,3.2535,3.5102,3.7069,3.8767,4.0226,3.9806,4.0319,4.2134,4.1158,4.1306,4.2758,4.3006,4.336,4.373,4.3998,4.4135,4.4141,4.4405,4.431,4.3946,4.3788,4.3453,4.3059,4.2307,4.0996,3.9279,3.8011,3.7285,3.6914,3.6914,3.709,3.7324,0.0,0.0,0.0,0.0,0.0,0.0,0.0,0.7366,0.7695,0.824,0.8948,0.9837,1.0894,1.1977,1.2767,1.3084,1.2629,1.2247,1.203,1.0704,0.9942,0.9958,1.0444,1.1674,1.368,1.4973,1.6383,1.7977,1.8598,1.9729,2.1246,2.1643,2.263,2.4163,2.4492,2.4466,2.4235,2.4235,2.2913,2.0753,1.9829,1.9455,1.9348,0.0,0.0,0.0,0.0,0.0,0.0,0.0,0.0,0.0,0.0,0.0,0.0,0.0,0.0,0.0,0.0,0.0,0.0,0.0,0.0,0.0,0.0,0.0,0.0,0.0,0.0,0.0,0.0,0.0,0.0,0.0,0.0,0.0,2.5167,2.6322,2.7633,2.8924,2.9898,3.0009,2.8763,3.1555,3.36,3.4048,3.6139,3.7793,3.8654,3.8661,3.8814,3.9243,3.9216,4.0079,4.1999,4.2061,4.2987,4.4826,4.4911,4.4931,4.4931,4.5016,4.4824,4.4414,4.3945,4.3496,4.3086,4.2637,4.2421,4.2284,4.1016,4.0312,3.9941,3.9922,3.9902,3.9746,0.0,0.0,0.0,0.0,0.0,0.0,0.7222,0.725,0.7537,0.8203,0.9274,1.0325,1.1248,1.2458,1.3329,1.3652,1.3076,1.2613,1.2458,1.122,1.0647,1.1037,1.1414,1.2454,1.4186,1.5367,1.6513,1.7652,1.8778,1.9543,2.0039,2.1324,2.2322,2.3017,2.4565,2.5104,2.485,2.5064,2.4529,2.3394,2.1689,2.086,2.0494,0.0,0.0,0.0,0.0,0.0,0.0,0.0,0.0,0.0,0.0,0.0,0.0,0.0,0.0,0.0,0.0,0.0,0.0,0.0,0.0,0.0,0.0,0.0,0.0,0.0,0.0,0.0,0.0,0.0,0.0,0.0,2.4378,2.6368,2.7275,2.9318,3.1216,3.2507,3.2727,3.313,3.4043,3.52,3.6592,3.8341,3.9537,4.0362,4.0703,3.9544,3.9386,4.0464,3.9343,3.9341,4.0506,4.1047,4.1316,4.1346,4.2725,4.3547,4.3871,4.5001,4.543,4.5293,4.4863,4.4414,4.4004,4.3535,4.3164,4.2793,4.1836,4.1191,4.0781,4.0469,3.9941,3.9355,0.0,0.0,0.0,0.0,0.0,0.0,0.7098,0.7236,0.7618,0.8406,0.9543,1.0615,1.1516,1.2735,1.3482,1.3457,1.3042,1.2564,1.2036,1.1321,1.1191,1.1809,1.2467,1.3326,1.4484,1.5383,1.6112,1.6638,1.7531,1.8242,1.8857,2.0093,2.1101,2.1937,2.3185,2.3666,2.3519,2.3556,2.3358,2.2943,2.1776,2.1905,2.2605,2.1136,2.0344,1.9915,1.9078,1.8087,1.7226,1.7544,0.0,0.0,0.0,0.0,0.0,0.0,0.0,0.0,0.0,0.0,0.0,0.0,0.0,0.0,0.0,0.0,0.0,0.0,0.0,0.0,0.0,0.0,0.0,0.0,2.6632,2.8629,2.9992,3.1457,3.2759,3.3797,3.4275,3.4894,3.5746,3.6281,3.704,3.8206,3.8731,3.9018,3.9065,3.8163,3.7958,3.876,3.7882,3.8025,3.9329,3.964,3.997,4.035,4.2183,4.3169,4.3478,4.5187,4.5387,0.0,4.4062,4.36,4.3139,4.2743,4.2875,0.0,0.0,0.0,0.0,0.0,4.0762,4.0019,0.0,0.0,0.0,0.0,0.0,0.0,0.7006,0.7255,0.7772,0.8652,0.9705,1.0729,1.1619,1.2783,1.3301,1.2848,1.2718,1.2242,1.1291,1.1325,1.1673,1.245,1.3457,1.4253,1.4814,1.5317,1.5585,1.5601,1.578,1.6557,1.7772,1.8594,1.9622,2.0884,2.127,2.1448,2.1385,2.1184,2.1058,2.1047,2.1026,2.2433,2.4408,2.304,2.175,2.0497,1.9348,1.7779,1.6276,1.6123,0.0,0.0,0.0,0.0,0.0,0.0,0.0,0.0,0.0,0.0,0.0,0.0,0.0,0.0,0.0,0.0,0.0,0.0,0.0,0.0,0.0,0.0,0.0,0.0,2.9262,3.1225,3.2866,3.3145,3.3334,3.3786,3.4958,3.565,3.5368,3.588,3.6129,3.5929,3.5914,3.5899,3.5855,0.0,0.0,0.0,0.0,3.6573,3.8261,3.7993,3.8833,4.0678,4.2126,4.2891,4.3122,4.4845,4.4505,4.2531,4.212,4.1823,4.1543,4.1146,4.2053,4.3672,4.3242,4.2851,4.246,4.2401,4.1894,4.1211,0.0,0.0,0.0,0.0,0.0,0.0,0.6963,0.7157,0.7602,0.8517,0.9575,1.0471,1.109,1.214,1.2791,1.2799,1.2147,1.1658,1.1462,1.1986,1.2727,1.3555,1.4213,1.4871,1.5553,1.5772,1.5966,1.6154,1.6332,1.6648,1.706,1.8585,1.9557,2.0024,2.1563,2.2214,2.2118,2.2172,2.215,2.2001,2.1863,2.1538,2.109,2.0542,1.9774,1.8939,1.8239,1.7463,1.6805,1.7078,1.6215,1.5119,1.5738,1.4538,0.0,0.0,0.0,0.0,0.0,0.0,0.0,0.0,0.0,0.0,0.0,0.0,0.0,0.0,0.0,0.0,0.0,0.0,0.0,2.9661,3.1329,3.291,3.449,3.5149,3.5324,3.4929,3.5558,3.61,3.6305,3.6685,3.6992,3.7233,3.7247,3.7095,3.6831,3.6568,3.6305,3.6041,3.6027,3.6089,3.6256,3.6401,3.7213,3.8659,0.0,0.0,4.1068,4.1429,4.1349,4.0929,4.0234,4.0735,4.1928,4.1256,4.2053,4.3672,4.3242,4.3027,4.291,4.2558,4.1894,4.1211,0.0,0.0,0.0,0.0,0.0,0.0,0.6997,0.7198,0.7642,0.8484,0.9209,0.9893,1.0528,1.1194,1.1507,1.1309,1.1067,1.1143,1.1658,1.2587,1.3498,1.4391,1.5041,1.5585,1.6032,1.6219,1.6397,1.6534,1.6755,1.6893,1.6982,1.8023,1.8505,1.8611,1.9618,2.0009,1.9964,2.0009,2.0009,1.9955,1.9852,1.9398,1.8936,2.0251,1.9846,1.8549,1.8255,1.7152,1.5815,1.5891,1.5309,1.4597,1.4883,1.4274,1.3383,0.0,0.0,0.0,0.0,0.0,0.0,0.0,0.0,0.0,0.0,0.0,0.0,0.0,0.0,2.1435,2.3747,0.0,2.9647,3.1915,3.3232,3.4463,3.5719,3.6158,3.6246,3.5924,3.6451,3.6846,3.6846,3.7139,3.7329,3.7329,3.7183,3.7095,3.7095,3.6787,3.6524,3.6363,3.6363,3.629,3.6178,3.6114,3.6423,3.7135,3.7774,3.8612,3.9571,4.0197,4.0038,3.9274,3.8531,3.8652,3.9404,4.0552,4.2053,4.3691,4.3476,4.3398,4.3359,4.3144,4.2539,4.1797,0.0,0.0,0.0,0.0,0.0,0.0,0.0,0.729,0.7752,0.8444,0.882,0.9267,0.9907,1.023,1.0167,0.963,1.0132,1.0875,1.1807,1.305,1.416,1.512,1.5813,1.6226,1.6405,1.6625,1.6812,1.6914,1.7084,1.7234,1.7274,1.7514,1.764,1.7543,1.7648,1.7668,1.77,1.766,1.7668,1.7692,1.766,1.7591,1.7692,2.0028,1.9776,1.8206,1.8123,1.6634,1.4692,1.4578,1.4436,1.4275,1.4096,1.4269,1.4416,1.3769,1.3833,0.0,0.0,0.0,0.0,0.0,0.0,0.0,0.0,1.5145,1.535,1.7735,1.9818,2.2324,2.5889,2.8827,3.144,3.3784,3.4841,3.5738,3.6656,3.6787,3.6787,3.6787,3.7197,3.7431,3.73,3.7461,3.7504,3.73,3.7036,3.6978,3.7183,3.6934,3.6758,3.67,3.67,3.667,3.6597,3.6348,3.6368,3.6684,3.7359,3.8009,3.8624,3.929,3.8819,3.7523,3.7582,3.7353,3.7184,4.0332,4.2462,4.3691,4.3613,4.3574,4.3594,4.3672,4.3164,4.2382,0.0,0.0,0.0,0.0,0.0,0.0,0.0,0.0,0.7703,0.8273,0.8633,0.8914,0.9115,0.9435,0.9399,0.886,1.0166,1.1215,1.1688,1.3353,1.4741,1.5682,1.6331,1.6728,1.6752,1.712,1.7307,1.7331,1.7457,1.7619,1.7827,1.7867,1.7957,1.8079,1.7949,1.7973,1.8103,1.7949,1.7973,1.8103,1.7949,1.7732,1.7567,1.7626,1.7294,1.6766,1.6402,1.5622,1.4724,1.4901,1.4493,1.4052,1.4653,1.4655,1.4411,1.4313,1.3838,1.3271,1.3074,1.3081,1.3402,1.4328,1.4541,1.5007,0.0,1.7227,1.7341,1.8409,2.0457,2.3009,2.6117,2.8663,3.1473,3.5241,3.5939,3.6348,3.7329,3.7475,3.7475,3.7475,3.727,3.7358,3.7951,3.7724,3.7731,3.798,3.798,3.7834,3.7534,3.749,3.7329,3.7051,3.7036,3.689,3.6612,3.6568,3.726,3.8668,3.7079,3.7106,3.8545,3.6978,3.6003,3.5673,3.8402,3.9168,3.8724,4.2485,4.3896,4.3672,4.3301,4.3185,4.3183,4.3574,4.3164,4.2382,0.0,0.0,0.0,0.0,0.0,0.0,0.0,0.0,0.0,0.887,0.8886,0.8987,0.9312,0.8745,0.8242,0.7979,0.9316,1.062,1.1696,1.3342,1.4809,1.604,1.6417,1.6701,1.6963,1.7044,1.732,1.7697,1.777,1.7892,1.807,1.807,1.8103,1.8223,1.8103,1.8111,1.8168,1.8095,1.8111,1.8168,1.8095,1.7957,1.7754,1.7283,1.6698,1.6064,1.5667,1.5092,0.0,1.4391,1.4221,1.4163,1.4712,1.4683,1.4474,1.4562,1.4196,1.3797,1.3839,1.4205,1.468,1.5205,1.5895,1.669,1.7842,1.821,1.8598,1.9562,2.1531,2.4041,2.7261,2.9733,3.2395,3.5831,3.6553,3.6963,3.7804,3.7695,3.7504,3.7314,3.7007,3.6992,3.7446,3.7548,3.7636,3.7819,3.7834,3.7812,3.7907,3.7731,3.7519,3.7373,3.7373,3.7314,3.7168,3.6978,3.7249,3.7874,3.6681,3.6567,3.7375,3.6242,3.611,3.6929,3.8081,3.9384,4.0782,4.2215,4.301,4.332,4.3185,4.293,4.2754,4.3183,4.2793,4.1931,0.0,0.0,0.0,0.0,0.0,0.0,0.0,0.0,0.0,0.0,0.9512,0.9437,0.9582,0.85,0.7693,0.7489,0.8714,1.0117,1.1583,1.3189,1.47,1.597,1.6286,1.6544,1.6859,1.6839,1.7079,1.7574,1.7712,1.7822,1.7989,1.8129,1.8223,1.8223,1.8223,1.8223,1.8223,1.8223,1.8223,1.8214,1.8127,1.794,1.7632,1.7039,1.6227,1.5366,1.5067,1.4508,1.388,1.362,1.3587,1.3747,1.4119,1.4312,1.4367,1.4371,1.4198,1.408,1.4304,1.5042,1.5819,1.6358,1.7322,1.8295,1.8834,1.9278,1.9826,2.0705,2.2536,2.4948,2.8105,3.0546,3.3133,3.6208,3.7007,3.7446,3.8104,3.7768,3.7285,3.6875,3.6378,3.6173,3.6407,3.7051,3.7475,3.7563,3.7739,3.7914,3.8112,3.7929,3.7797,3.7709,3.776,3.7665,3.7578,3.7256,3.7095,3.708,3.6524,3.6378,3.6583,3.5987,3.6632,3.8227,3.8367,3.9801,4.2117,4.24,4.2759,4.3107,4.2949,4.2637,4.2205,4.2073,4.1623,4.0944,0.0,0.0,0.0,0.0,0.0,0.0,0.0,0.0,0.0,0.0,0.0,0.0,0.0,0.893,0.8263,0.7739,0.8805,1.0017,1.1233,1.2924,1.4338,1.5285,1.6008,1.635,1.6219,1.6541,1.6713,1.672,1.7188,1.7429,1.7437,1.7943,1.8223,1.8223,1.8223,1.8223,1.8223,1.8223,1.8223,1.816,1.7989,1.7607,1.7055,1.6307,1.5367,1.4435,1.4419,1.3669,1.2653,1.2637,1.2499,1.2426,1.2734,1.3385,1.3942,1.3556,1.3518,1.3738,1.4174,1.5119,1.6315,1.7612,1.8576,1.9467,2.0245,2.08,2.1271,2.1669,2.329,2.5497,2.82,3.0546,3.3215,3.6562,3.7358,3.7797,3.8374,3.7709,3.6861,3.6217,3.5324,3.4768,3.4783,3.6187,3.7241,3.7599,3.8163,3.8382,3.8127,3.8353,3.8368,3.8112,3.8097,3.7951,3.7578,3.7256,3.7095,3.7095,3.6744,3.6597,3.6583,3.5987,3.6768,3.8624,3.9891,4.1053,4.2241,4.4128,4.4196,4.3027,4.2617,4.2187,4.1619,3.9949,3.9289,3.927,0.0,0.0,0.0,0.0,0.0,0.0,0.0,0.0,0.0,0.0,0.0,0.0,0.0,0.0,0.0,0.0,0.8542,0.9148,1.0369,1.1563,1.2773,1.3999,1.4642,1.5188,1.5577,1.5799,1.6077,1.6353,1.7041,1.7328,1.7266,1.7887,1.8223,1.8223,1.8223,1.8223,1.8223,1.8223,1.8223,1.8135,1.7729,1.738,1.7006,1.6015,1.4913,1.3812,0.0,1.2767,1.2174,1.1939,1.1898,1.202,1.2369,1.2547,1.2643,1.2515,1.317,1.4025,1.4455,1.5699,1.7261,1.8749,1.9472,2.0159,2.1451,2.1302,2.1066,2.1846,2.2932,2.4481,2.6978,2.9292,3.1931,3.5299,3.6436,3.73,3.8331,3.8075,3.7256,3.6002,3.5705,3.5397,3.4768,3.5573,3.65,3.7197,3.7856,3.8265,3.8368,3.8433,3.8433,3.8382,3.8382,3.8324,3.8221,3.79,3.7622,3.7402,3.6861,3.6597,3.6583,3.6158,3.6931,3.8608,3.8831,3.9585,4.064,4.0871,4.1056,4.1111,4.0518,4.0901,4.1599,3.9791,3.8568,3.7602,0.0,0.0,0.0,0.0,0.0,0.0,0.0,0.0,0.0,0.0,0.0,0.0,0.0,0.0,0.0,0.0,0.0,0.8967,0.978,1.0543,1.1472,1.2607,1.3105,1.353,1.3964,1.4046,1.433,1.4807,1.5487,1.587,1.6051,1.6842,1.7266,1.733,1.7595,1.7705,1.7705,1.7705,1.7591,1.7372,1.6836,1.6357,1.5861,1.4919,1.3828,0.0,1.2238,1.1749,1.1346,1.1248,1.137,1.1622,1.1849,1.194,1.2046,1.2305,1.3218,1.4377,1.543,1.677,1.8235,1.9693,2.0332,2.0839,2.1743,2.1421,2.1088,2.149,2.2745,2.4258,2.595,2.8327,3.1037,3.3996,3.5002,3.6012,3.7768,3.7461,3.6778,3.5958,3.569,3.5427,3.4929,3.5386,3.6148,3.7183,3.7819,3.8207,3.8477,3.8491,3.8491,3.8491,3.8491,3.8491,3.8491,3.8221,3.7892,3.7402,3.6861,3.6539,3.6422,3.61,3.6856,3.8386,3.8068,3.8611,3.9693,3.9147,3.8955,3.908,3.9145,3.9797,4.0499,3.935,3.8374,3.727,0.0,0.0,0.0,0.0,0.0,0.0,0.0,0.0,0.0,0.0,0.0,0.0,0.0,0.0,0.0,0.0,0.0,0.0,0.9479,0.9885,1.0421,1.1145,1.1399,1.1516,1.1552,1.1586,1.1809,1.2244,1.2743,1.3286,1.3841,1.4898,1.5471,1.5636,1.6355,1.6644,1.6687,1.6687,1.6388,1.5877,1.5335,1.4614,1.3807,1.305,1.2232,1.1451,1.1139,1.0667,1.0268,1.0574,1.0956,1.1252,1.126,1.1641,1.2216,1.2954,1.3701,1.4797,1.6919,1.8107,1.9066,2.0414,2.1166,2.1472,2.1188,2.1274,2.1262,2.0663,2.2808,2.4843,2.505,2.763,3.0447,3.2733,3.3186,3.421,3.6752,3.608,3.551,3.6051,3.5287,3.4911,3.5236,3.5544,3.6246,3.7534,3.7951,3.8207,3.8477,3.8506,3.8506,3.8491,3.8491,3.8491,3.8491,3.8221,3.779,3.7109,3.6787,3.6451,3.61,3.5841,3.6539,3.796,3.7596,3.8103,3.9103,3.8722,3.7964,3.7107,3.8509,3.8893,3.8624,3.8624,3.8563,3.808,0.0,0.0,0.0,0.0,0.0,0.0,0.0,0.0,0.0,0.0,0.0,0.0,0.0,0.0,0.0,0.0,0.0,0.0,0.9277,0.8962,0.9008,0.9483,1.0081,1.0529,1.0772,1.1104,1.1424,1.1619,1.2356,1.277,1.2935,1.3702,1.4221,1.4452,1.4623,1.4817,1.5011,1.5011,1.493,1.4759,1.4225,1.3876,1.3585,1.2767,1.2052,1.1468,1.124,1.0899,1.0601,1.0664,1.1289,1.2052,1.2214,1.2686,1.3309,1.3885,1.4984,1.6228,1.7301,1.8633,1.9974,2.0951,2.1031,2.0987,2.1438,2.1806,2.1617,2.0111,2.2366,2.4122,2.2487,2.5682,2.9289,3.1454,3.3271,3.5183,3.7256,3.727,3.6867,3.6306,3.5849,3.5742,3.6192,3.6193,3.6752,3.8155,3.8148,3.8207,3.8477,3.8711,3.874,3.8491,3.8491,3.8491,3.8491,3.8221,3.7907,3.7446,3.7124,3.667,3.61,3.5841,3.5791,3.5924,3.5563,3.5467,3.5456,3.4661,3.4772,3.5554,3.6467,3.7721,3.9025,3.8966,3.8343,3.7163,0.0,0.0,0.0,0.0,0.0,0.0,0.0,0.0,0.0,0.0,0.0,0.0,0.0,0.0,0.0,0.0,0.0,0.0,0.0,0.8868,0.8641,0.8588,0.8893,0.9167,0.9313,0.9564,0.9859,1.0114,1.0639,1.1028,1.1303,1.1893,1.238,1.2731,1.306,1.3367,1.362,1.3666,1.3561,0.0,0.0,1.2637,1.2256,1.1703,1.12,1.0785,1.0761,1.0883,1.111,1.15,1.2085,1.2751,1.3327,1.3888,1.4492,1.5455,1.6462,1.7502,1.8486,1.9654,2.0677,2.1148,2.1663,2.196,2.1563,2.2353,2.2516,2.0318,2.1911,2.3159,2.162,2.4378,2.7583,2.9744,3.1774,3.3851,3.6195,3.647,3.6428,3.6351,3.6313,3.6383,3.6679,3.6922,3.7484,3.8489,3.8373,3.847,3.8939,3.9012,3.8886,3.8711,3.8564,3.8491,3.8491,3.8075,3.7819,3.7578,3.7109,3.6539,3.5909,3.5782,3.5445,3.4944,0.0,3.4519,3.4168,3.348,3.3426,3.3849,3.4895,3.6341,3.7775,3.7775,3.7862,3.7731,0.0,0.0,0.0,0.0,0.0,0.0,0.0,0.0,0.0,0.0,1.1935,0.0,0.0,0.0,0.0,0.0,0.0,0.0,0.0,0.0,0.8834,0.8297,0.8056,0.7867,0.778,0.7825,0.8036,0.8425,0.86,0.8982,0.9521,1.0036,1.0494,1.0951,1.158,1.2027,1.2287,1.2418,1.2192,1.177,1.163,1.1228,1.0639,0.0,1.0134,0.9934,1.0145,1.0772,1.1622,1.2629,1.3147,1.3563,1.4627,1.5268,1.5853,1.7242,1.8005,1.8712,2.0028,2.0767,2.1165,2.1165,2.2501,2.3455,2.1606,2.278,2.3499,2.0806,2.1419,2.2241,2.1534,2.344,2.5879,2.8254,2.9927,3.1857,3.468,3.5021,3.5341,3.6307,3.6552,3.6694,3.6893,3.754,3.8141,3.8615,3.8576,3.8804,3.948,3.9246,3.9056,3.8968,3.8638,3.8462,3.847,3.7929,3.7592,3.7504,3.6934,3.6334,3.5753,3.5753,3.5416,3.4768,3.4768,0.0,3.4197,3.3815,3.3307,3.2861,3.4285,3.5328,3.6103,3.6362,3.7261,3.8114,0.0,0.0,0.0,0.0,0.0,0.0,0.0,0.0,0.0,0.0,1.2082,1.1873,0.0,0.0,0.0,0.0,0.0,0.0,0.0,0.0,0.0,0.871,0.8291,0.7921,0.7631,0.7952,0.8112,0.8088,0.8499,0.8798,0.9038,0.9355,0.9654,0.9954,1.0089,1.0303,1.061,1.0642,1.0664,1.0669,1.0544,1.0479,1.0417,1.0103,0.9941,0.0,1.0239,1.0742,1.1541,1.3344,1.4359,1.4986,1.5959,1.6909,1.7835,1.8736,1.9354,1.9924,2.0625,2.1043,2.1343,2.1343,2.2405,2.3021,2.1417,2.2971,2.377,2.0224,2.1266,2.2296,2.06,2.2716,2.5637,2.8496,3.0577,3.2721,3.516,3.5517,3.5699,3.641,3.6056,3.6285,3.7454,3.7256,3.7623,3.8904,3.8737,3.8845,3.9456,3.9465,3.9173,3.8594,3.8521,3.8412,3.8148,3.8083,3.776,3.7168,3.7065,3.667,3.6041,3.6041,3.569,3.5123,3.5123,0.0,3.4197,3.3815,3.4187,3.5063,3.6496,3.6834,3.666,3.8096,3.6847,3.4417,0.0,0.0,0.0,0.0,0.0,0.0,0.0,1.2788,1.318,1.3263,1.3205,1.2937,1.2392,1.218,1.2127,0.0,0.0,0.0,0.0,0.0,0.0,0.9035,0.837,0.7959,0.7875,0.7978,0.8062,0.8101,0.0,0.844,0.8638,0.8765,0.9045,0.9427,0.9427,0.9605,0.9892,1.0007,1.0154,1.0282,1.0227,1.0243,1.0266,0.9989,0.9966,0.0,1.0436,1.0972,1.1727,1.3141,1.4464,1.574,1.7006,1.8087,1.9248,2.1285,2.1353,2.1419,2.4406,2.4486,2.3912,2.4942,2.5759,2.5737,2.3637,2.4336,2.4529,2.1198,2.1547,2.2071,2.0788,2.2554,2.4814,2.6686,2.8436,3.056,3.3381,3.3652,3.4179,3.5855,3.5926,3.6194,3.6978,3.7251,3.7619,3.8136,3.8476,3.9073,3.9967,3.9699,3.9217,3.8506,3.8491,3.8309,3.7812,3.7863,3.7563,3.7095,3.6919,3.6583,3.6114,3.6114,3.5763,3.5211,3.5211,0.0,3.4461,3.43,3.4229,3.4372,3.5037,3.5371,3.541,3.4898,3.4394,3.3745,0.0,0.0,0.0,0.0,0.0,0.0,0.0,1.3133,1.3704,1.408,1.4328,1.4005,1.2819,1.2416,1.2184,0.0,0.0,0.0,0.0,0.0,0.0,0.0,0.0,0.0,0.8102,0.0,0.0,0.828,0.8266,0.0,0.0,0.0,0.0,0.0,0.9286,0.941,0.9607,0.977,0.9983,0.0,0.0,1.0145,1.0227,0.0,0.0,0.0,0.0,1.1053,1.1782,1.2759,1.4107,1.569,1.7218,1.8802,2.0568,2.3236,2.3308,2.3575,2.7956,2.7787,2.6731,2.8289,2.8779,2.8248,2.5672,2.5364,2.4847,2.2144,2.1662,2.1636,2.1269,2.2445,2.391,2.5115,2.6426,2.846,3.173,3.2104,3.2959,3.5431,3.5992,3.6273,3.658,3.7193,3.7578,3.7497,3.8237,3.9089,4.0067,3.9568,3.8956,3.8404,3.8448,3.8192,3.7475,3.7548,3.7373,3.6992,3.6729,3.6466,3.6217,3.6217,3.5866,3.5313,3.5313,0.0,0.0,3.471,3.4659,3.4592,3.4113,3.4422,3.4832,3.2416,3.2459,3.3414,0.0,0.0,0.0,0.0,0.0,0.0,0.0,1.3595,1.4511,1.4865,1.4772,1.4166,1.2831,1.3053,1.2886,0.0,0.0,0.0,0.0,0.0,0.0,0.0,0.0,0.0,0.0,0.0,0.0,0.857,0.893,0.0,0.0,0.0,0.0,0.0,0.0,0.9583,0.9599,0.9624,0.0,0.0,0.0,0.0,0.0,0.0,0.0,0.0,0.0,1.0712,1.1285,1.2629,1.353,1.4326,1.574,1.8834,2.2128,2.3026,2.4827,2.6881,2.8585,2.853,2.8165,2.8608,2.8518,2.77,2.5601,2.4706,2.3834,2.197,2.1181,2.098,2.1462,2.2071,2.3273,2.5556,2.6693,2.854,3.2059,3.2959,3.3911,3.5819,3.6286,3.658,3.6861,3.6969,3.7217,3.7729,3.8349,3.8742,3.8755,3.8517,3.8239,3.8134,3.8382,3.8038,3.7139,3.7431,3.727,3.6656,3.6626,3.6583,3.6553,3.6553,3.6202,3.565,3.565,0.0,0.0,3.471,3.6497,3.9082,3.7025,3.6695,3.717,3.5275,3.3236,3.1368,0.0,0.0,0.0,0.0,0.0,0.0,1.2866,1.3712,1.4546,1.5362,1.5582,1.5016,1.3298,1.3254,1.2514,1.0481,0.0,0.0,0.0,0.0,0.0,0.0,0.0,0.0,0.0,0.0,0.8745,0.8827,0.8922,0.0,0.0,0.0,0.0,0.0,0.0,0.9664,0.9778,0.9778,0.0,0.0,0.0,0.0,0.0,0.0,0.0,0.0,0.0,0.0,1.2346,1.2844,1.424,1.5634,1.5238,1.828,2.2353,2.401,2.538,2.7263,3.158,3.1743,3.1111,3.2481,3.1441,2.9491,2.7437,2.5427,2.3434,2.1657,2.1096,2.1002,2.1243,2.1649,2.2479,2.4102,2.4539,2.5891,2.9436,2.994,3.1169,3.4376,3.5017,3.5658,3.6779,3.6885,3.6929,3.703,3.6721,3.6931,3.7769,3.8198,3.8432,3.8316,3.8418,3.8075,3.7095,3.7417,3.7256,3.6597,3.6597,3.6597,3.6597,3.6597,3.6246,3.5694,3.5357,0.0,0.0,3.393,3.4507,3.5471,3.4395,3.4023,3.4017,3.2951,3.1874,3.0962,0.0,0.0,0.0,0.0,0.0,1.2258,1.3101,1.3773,1.4581,1.5567,1.5711,1.5072,1.3352,1.2672,1.1433,0.9253,0.9544,0.0,0.0,0.0,0.0,0.0,0.0,0.0,0.0,0.0,0.8942,0.9171,0.9139,0.9201,0.0,0.0,0.9482,0.9599,0.0,0.0,0.0,0.0,0.0,0.0,0.0,0.0,0.0,0.0,0.0,0.0,0.0,0.0,0.0,0.0,0.0,1.6401,1.5383,1.7856,2.1644,2.4221,2.5965,2.8189,3.3316,3.3923,3.3516,3.5098,3.328,3.0555,2.8497,2.5758,2.3153,2.1456,2.1042,2.1002,2.1096,2.1283,2.1836,2.2993,2.3233,2.4472,2.7844,2.8257,2.9499,3.2946,3.3534,3.4322,3.5952,3.6592,3.6805,3.6647,3.5979,3.6112,3.734,3.7808,3.8163,3.836,3.8433,3.8075,3.7095,3.7417,3.7256,3.6597,3.6597,3.6597,3.6597,3.6449,3.605,3.5454,3.4909,0.0,0.0,3.3351,3.3398,3.3622,3.2782,3.2514,3.2594,3.1535,3.1103,3.0914,0.0,0.0,0.0,0.0,0.0,0.0,1.2898,1.3859,1.4741,1.5405,1.4814,1.3895,1.2724,1.1063,0.9624,0.8586,0.8934,0.0,0.0,0.0,0.0,0.0,0.0,0.0,0.0,0.0,0.9251,0.9599,0.9795,0.9795,0.9607,0.9803,0.9786,0.9599,0.0,0.0,0.0,0.0,0.0,0.0,0.0,0.0,1.0533,0.0,0.0,0.0,0.0,0.0,0.0,0.0,0.0,0.0,0.0,1.7731,1.9949,2.3099,2.6774,3.037,3.2777,3.4108,3.4843,3.5124,3.2986,3.0247,2.8177,2.5438,2.2878,2.1416,2.0882,2.0806,2.1056,2.1109,2.1496,2.2706,2.3607,2.5224,2.819,2.9098,3.0127,3.1904,3.2118,3.2706,3.4202,3.5872,3.6885,3.6885,3.6647,3.6856,3.7649,3.717,3.7216,3.8075,3.8368,3.8075,3.7095,3.7417,3.7256,3.6597,3.6597,3.6597,3.6562,3.6053,3.5462,0.0,0.0,0.0,0.0,3.3224,3.4309,3.5866,3.359,3.36,3.4618,3.2532,3.1506,3.1071,0.0,0.0,0.0,0.0,0.0,0.0,0.0,1.3293,1.376,1.414,1.3706,1.294,1.1882,1.0749,0.9717,0.8863,0.8528,0.0,0.0,0.0,0.0,0.0,0.0,0.0,0.0,0.0,0.9275,0.9599,0.9803,0.995,1.0015,0.9942,0.9851,0.9803,0.9656,0.9672,0.0,0.0,0.0,0.0,0.0,1.1147,1.1819,0.0,0.0,0.0,0.0,0.0,0.0,0.0,0.0,0.0,0.0,0.0,0.0,2.1548,2.4503,2.755,2.8858,3.002,3.0822,3.0715,2.9379,2.7696,2.6239,2.4569,2.2865,2.1416,2.1042,2.1002,2.1096,2.1109,2.1697,2.3487,2.4182,2.5251,2.7388,2.8898,3.0354,3.1917,3.4055,3.5538,3.6005,3.6433,3.6647,3.6647,3.6193,3.6194,3.6849,3.6677,3.706,3.8331,3.828,3.7958,3.7431,3.7519,3.709,3.6053,3.64,3.64,3.6053,3.5855,3.5462,0.0,0.0,0.0,0.0,3.2327,3.255,3.298,3.2033,3.1956,3.2306,3.1794,3.1199,3.0659,0.0,0.0,0.0,0.0,0.0,0.0,0.0,1.2818,1.3037,1.3532,1.2683,1.1943,1.1685,1.0499,0.9609,0.9299,0.8747,0.0,0.0,0.0,0.0,0.0,0.0,0.0,0.0,0.9039,0.934,0.9827,1.0071,1.0276,1.039,1.0379,1.0276,1.0007,0.9876,0.9811,0.0,0.0,0.0,0.0,1.1397,1.2083,1.3085,0.0,0.0,0.0,0.0,0.0,0.0,0.0,0.0,0.0,0.0,0.0,0.0,0.0,2.2205,2.4419,2.6305,2.7709,2.8684,2.8617,2.7629,2.6346,2.5184,2.3915,2.2598,2.1363,2.1109,2.1109,2.1109,2.1109,2.1563,2.2979,2.3821,2.489,2.6586,2.8297,3.0047,3.1744,3.4309,3.5938,3.6045,3.6405,3.6632,3.6632,3.6126,3.6114,3.6773,3.6348,3.664,3.7852,3.7693,3.7425,3.6954,3.6839,3.6371,3.5508,3.5855,3.5805,3.5508,3.5309,3.4872,0.0,0.0,0.0,0.0,3.1806,3.1711,3.1698,3.1463,3.1396,3.1403,3.1388,3.1112,3.0721,0.0,0.0,0.0,0.0,0.0,0.0,0.0,1.2458,1.2544,1.3242,1.1674,1.084,1.1802,1.0203,0.9267,0.9812,0.0,0.0,0.0,0.0,0.0,0.0,0.0,0.0,0.9104,0.912,0.9494,1.0211,1.0553,1.0712,1.0753,1.1086,1.0867,1.0227,1.0211,1.0033,0.0,0.0,0.0,0.0,1.2659,1.3357,0.0,0.0,0.0,0.0,0.0,0.0,0.0,0.0,0.0,0.0,0.0,0.0,0.0,0.0,0.0,0.0,0.0,2.6613,2.775,2.8003,2.7054,2.5758,2.4626,2.3332,0.0,2.1283,2.1109,2.1122,2.1189,2.1149,2.1256,2.1729,2.296,2.4379,2.585,2.7669,2.9646,3.1677,3.3454,3.4589,3.4764,3.6058,3.6885,3.6845,3.6393,3.6396,3.7142,3.6105,3.5861,3.6712,3.6692,3.6416,3.5893,3.5613,3.5319,3.4961,3.4961,3.4961,3.4911,3.4386,3.3858,0.0,0.0,0.0,0.0,3.1711,3.1711,3.1711,3.1711,3.1711,3.1684,3.1356,3.1203,3.1183,0.0,0.0,0.0,0.0,0.0,0.0,0.0,0.0,0.0,0.0,0.9997,0.9553,0.9848,0.9192,0.8875,0.0,0.0,0.0,0.0,0.0,0.0,0.0,0.0,0.0,0.9315,0.9315,0.9673,1.0345,1.059,1.0907,1.1313,1.1395,1.1126,1.0593,1.0428,1.0577,0.0,0.0,0.0,0.0,1.3648,1.4461,0.0,0.0,0.0,0.0,1.7701,1.8032,0.0,0.0,0.0,0.0,0.0,0.0,0.0,0.0,1.972,2.0241,2.1296,0.0,2.2779,2.2859,2.2779,2.2653,0.0,2.2211,2.1897,2.1243,2.1109,2.1309,2.1991,2.1563,2.1724,2.3607,2.4209,2.4943,2.6413,2.9499,3.2291,3.4148,3.5525,3.6179,3.5805,3.6473,3.6834,3.662,3.6273,3.606,3.6006,3.5663,3.5467,3.5274,3.5219,3.5346,3.5585,3.5501,3.5118,3.4413,3.4812,3.4812,3.4399,3.408,3.3666,0.0,0.0,0.0,3.1711,3.1711,3.1711,3.1711,3.1711,3.1711,3.1711,3.1597,3.1423,3.1183,0.0,0.0,0.0,0.0,0.0,0.0,0.0,0.0,0.0,0.0,0.0,0.8896,0.9285,0.9039,0.0,0.0,0.0,0.0,0.0,0.0,0.0,0.0,0.0,0.9201,0.9396,0.9461,0.9876,1.068,1.085,1.1256,1.1866,1.1784,1.1674,1.1531,1.1483,1.1741,0.0,0.0,0.0,1.4612,1.4896,0.0,0.0,0.0,0.0,0.0,1.7889,1.8237,0.0,1.9132,1.9533,1.98,0.0,0.0,0.0,0.0,1.9508,1.9669,1.9786,2.0454,2.1149,2.1283,2.1368,2.1422,2.1555,2.1395,2.1162,2.1122,2.1002,2.1096,2.171,2.1537,2.1817,2.3332,2.4159,2.544,2.7854,3.0728,3.3146,3.4803,3.5912,3.6513,3.6473,3.6754,3.6779,3.654,3.6233,3.6006,3.5845,3.5535,3.521,3.4815,3.4631,3.4575,3.478,3.4629,3.4328,3.3864,3.4114,3.4114,3.38,3.3552,3.3255,0.0,0.0,0.0,3.1711,3.1711,3.1711,3.1711,3.1711,3.1711,3.1711,3.1711,3.157,3.1383,0.0,0.0,0.0,0.0,0.0,0.0,0.0,0.0,0.0,0.0,0.0,0.0,0.0,0.0,0.0,0.0,0.0,0.0,0.0,0.0,0.0,0.0,0.0,0.9299,0.9518,0.9772,1.0354,1.1273,1.1671,1.2235,1.2895,1.263,1.2505,1.2562,1.295,1.3259,0.0,0.0,1.4804,1.5862,1.6194,0.0,0.0,0.0,0.0,0.0,0.0,0.0,0.0,1.9466,1.9786,1.9893,2.0024,0.0,0.0,0.0,0.0,0.0,1.9562,2.0321,2.1149,2.1341,2.1229,2.1176,2.1462,2.0909,2.0477,2.0971,2.0909,2.0882,2.1363,2.1657,2.2104,2.2832,2.4239,2.644,2.9847,3.1757,3.337,3.4721,3.5645,3.6366,3.6754,3.6845,3.6794,3.6473,3.6219,3.6086,3.5939,3.5418,3.5147,3.5216,3.4557,3.4262,3.4321,3.3698,3.3414,3.3414,3.3414,3.3414,3.34,3.3066,3.2822,3.2581,0.0,0.0,3.1711,3.1711,3.1711,3.1711,3.1711,3.1711,3.1711,3.1711,3.1711,3.1684,0.0,0.0,0.0,0.0,0.0,0.0,0.0,0.0,0.0,0.0,0.0,0.0,0.0,0.0,0.0,0.0,0.0,0.0,0.0,0.0,0.0,0.9526,0.9526,0.9697,1.0082,1.0872,1.1671,1.2432,1.4157,1.5251,1.566,1.508,1.4048,1.2824,1.4438,1.4887,1.4554,0.0,0.0,1.6975,1.7252,0.0,0.0,0.0,0.0,0.0,0.0,0.0,0.0,1.9334,1.976,2.0064,1.9639,0.0,0.0,0.0,0.0,0.0,2.0298,2.0788,2.1002,2.0517,2.0775,2.1122,2.1162,2.1069,2.1002,2.1096,2.1069,2.1443,2.2705,2.2985,2.3567,2.5195,2.7081,2.9245,3.1831,3.324,3.4322,3.5044,3.6126,3.6647,3.6246,3.6647,3.6672,3.6179,3.6099,3.5859,3.5364,3.5017,3.5499,3.6946,3.4999,3.4647,3.6096,3.4327,3.3414,3.3414,3.3414,3.3414,3.3387,3.2902,3.2634,3.2567,0.0,3.1751,3.1711,3.1711,3.1711,3.1711,3.1711,3.1711,3.1711,3.1711,3.1711,3.1711,0.0,0.0,0.0,0.0,0.0,0.0,0.0,0.0,0.0,0.0,0.0,0.0,0.0,0.0,0.0,0.0,0.0,0.0,0.0,0.0,1.0113,1.0923,1.1021,1.1111,1.1217,1.2039,1.3222,1.4803,1.6063,1.6498,1.6166,1.4833,1.4349,1.4605,1.5057,1.5455,1.5818,1.6644,1.7234,1.7635,0.0,0.0,0.0,0.0,0.0,0.0,0.0,0.0,0.0,0.0,1.988,2.013,1.9733,0.0,0.0,0.0,0.0,0.0,1.9883,2.0445,2.0842,2.0735,2.1149,2.159,2.159,2.1336,2.1283,2.1924,2.1924,2.2178,2.3354,2.4209,2.5478,2.7736,2.9553,3.1076,3.2158,3.3467,3.4482,3.491,3.5859,3.6433,3.6313,3.654,3.6473,3.5872,3.693,3.7342,3.6673,3.7612,3.8415,3.8859,3.781,3.7571,3.8209,3.6109,3.4485,3.3414,3.3414,3.3414,3.34,3.2973,3.2741,3.2567,0.0,3.181,3.1711,3.1711,3.1711,3.1711,3.1711,3.1711,3.1711,3.1711,3.157,3.145,0.0,0.0,0.0,0.0,0.0,0.0,0.0,0.0,0.0,0.0,0.0,0.0,0.0,0.0,0.0,0.0,0.0,0.0,0.0,0.0,1.1187,1.2317,1.2641,1.2866,1.2996,1.3837,1.5292,1.7332,1.8215,1.8128,1.7086,1.5688,1.5455,1.6251,1.5864,1.6113,1.6834,1.7153,1.7555,1.7982,0.0,0.0,0.0,0.0,0.0,0.0,0.0,0.0,0.0,0.0,0.0,0.0,0.0,0.0,0.0,1.972,1.9548,1.9535,1.9749,2.0298,2.0869,2.1229,2.1603,2.201,2.2325,2.2058,2.2071,2.3281,2.3354,2.3474,2.4249,2.573,2.7617,3.0034,3.161,3.2585,3.2799,3.3921,3.4843,3.5071,3.5765,3.6259,3.6473,3.6924,3.6924,3.6392,3.8427,3.939,3.8683,4.0124,4.0967,4.0836,4.0298,4.0138,4.04,3.8307,3.6208,3.41,3.36,3.3414,3.34,3.3106,3.2902,3.2674,3.2265,3.1971,3.177,3.1751,3.1711,3.1711,3.1711,3.1711,3.1711,3.1711,3.153,3.137,0.0,0.0,0.0,0.0,0.0,0.0,0.0,0.0,0.0,0.0,0.0,0.0,0.0,0.0,0.0,0.0,0.0,0.0,0.0,0.0,1.3018,1.3114,1.3906,1.4746,1.5602,1.6838,1.8143,1.9459,2.1203,2.1365,2.0105,2.0151,1.8957,1.6784,1.7471,1.7556,1.7192,1.7448,1.7742,1.8036,1.8317,0.0,0.0,0.0,0.0,0.0,0.0,0.0,0.0,0.0,0.0,0.0,0.0,0.0,2.0619,2.0267,1.9987,1.9947,2.0762,2.1029,2.1216,2.1777,2.1783,2.1984,2.3362,2.3643,2.395,2.5077,2.5518,2.5837,2.6132,2.7856,2.982,3.165,3.2959,3.4042,3.4857,3.5538,3.6059,3.634,3.6433,3.6473,3.65,3.8098,3.9,3.8652,4.0719,4.1652,4.0892,4.0812,4.1405,4.2952,4.0854,4.0675,4.2536,4.0497,3.8405,3.6257,3.4349,3.3414,3.34,3.3106,3.2973,3.2919,3.2345,3.2091,3.2051,3.1784,3.1711,3.1711,3.1711,3.1711,3.1711,3.1711,3.1698,3.1677,0.0,0.0,0.0,0.0,0.0,0.0,0.0,0.0,0.0,0.0,0.0,0.0,0.0,0.0,0.0,0.0,0.0,0.0,0.0,1.3242,1.3728,1.4651,1.5478,1.6791,1.8614,1.9044,2.0323,2.2625,2.2349,2.2133,2.1897,1.9006,1.7816,1.8055,1.711,1.6987,1.7461,1.7742,1.8129,1.8556,1.8517,1.8424,0.0,0.0,0.0,0.0,0.0,0.0,0.0,0.0,1.9663,2.0144,1.9813,2.0147,2.0619,2.0107,1.988,1.9867,2.0201,2.0828,2.1475,2.1689,2.2358,2.3255,2.4365,2.5048,2.5732,2.6948,2.7724,2.835,2.9005,2.9913,3.1076,3.2666,3.3921,3.4817,3.5151,3.5698,3.6046,3.5965,3.6126,3.6694,3.7856,3.8619,3.9508,4.0583,4.2469,4.3339,4.2807,4.3734,4.4504,4.4851,4.4025,4.3937,4.4714,4.268,4.1222,4.04,3.8307,3.6603,3.5316,3.5203,3.4274,3.2755,3.2666,3.2332,3.1837,3.1904,3.1837,3.1711,3.1711,3.1711,3.1738,3.1877,3.1944,3.1984,0.0,0.0,0.0,0.0,0.0,0.0,0.0,0.0,0.0,0.0,0.0,0.0,0.0,0.0,0.0,0.0,0.0,0.0,1.4196,1.4307,1.4786,1.5908,1.6836,1.8306,2.0383,2.0837,2.2164,2.4398,2.3227,2.264,2.2552,1.8879,1.7959,1.9248,1.7685,1.75,1.829,1.841,1.8663,1.9052,1.8851,1.8718,0.0,0.0,0.0,0.0,0.0,0.0,0.0,0.0,1.957,2.0024,1.9883,2.0217,2.0632,2.0201,2.0013,1.9933,1.9933,2.0521,2.1234,2.1515,2.2706,2.4205,2.5743,2.6626,2.7509,2.8995,2.9717,3.0247,3.0942,3.1303,3.1891,3.308,3.4362,3.5231,3.5324,3.5685,3.6154,3.6714,3.6904,3.7783,3.9756,4.0456,4.1327,4.2476,4.4358,4.5203,4.4679,4.5832,4.6305,4.5902,4.5883,4.5883,4.5883,4.4353,4.3572,4.3572,4.2175,3.9707,3.6358,3.6358,3.5004,3.2607,3.2701,3.2358,3.181,3.1917,3.1851,3.1724,3.177,3.181,3.1837,3.2131,3.2238,3.2278,0.0,0.0,0.0,0.0,0.0,0.0,0.0,0.0,0.0,0.0,0.0,0.0,0.0,0.0,0.0,0.0,0.0,0.0,1.4316,1.5567,1.6431,1.6687,1.7849,1.9167,2.067,2.2271,2.3523,2.4407,2.4067,2.3256,2.1951,2.0775,2.0197,2.017,1.9626,1.9562,1.9773,1.9522,1.9401,1.9401,1.9401,1.9185,0.0,0.0,0.0,0.0,0.0,0.0,0.0,0.0,1.98,1.9907,2.0512,2.0699,2.0712,2.0699,2.0468,2.021,2.0197,2.021,2.0424,2.1381,2.2719,2.4593,2.7536,2.8433,2.9205,3.131,3.145,3.133,3.1637,3.1917,3.2305,3.2893,3.4229,3.5297,3.5578,3.5618,3.6566,3.9058,3.9076,3.9763,4.2019,4.3905,4.4864,4.4438,4.6418,4.7332,4.6525,4.6518,4.6287,4.5902,4.5883,4.5883,4.5883,4.5498,4.5297,4.5297,4.5297,4.2069,3.6182,3.6134,3.484,3.2629,3.2286,3.2104,3.2078,3.1797,3.1724,3.1751,3.1998,3.2104,3.2144,3.2487,3.2594,3.2648,0.0,0.0,0.0,0.0,0.0,0.0,0.0,0.0,0.0,0.0,0.0,0.0,0.0,0.0,0.0,0.0,0.0,0.0,1.5571,1.6064,1.6505,1.695,1.7728,1.8658,1.9765,2.1562,2.3105,2.4393,2.3687,2.2773,2.1689,2.0974,2.0375,1.992,2.0012,1.9834,1.9522,1.9428,1.9401,1.9415,1.9615,1.9372,1.8916,0.0,0.0,0.0,0.0,0.0,0.0,0.0,0.0,0.0,2.0,2.0481,2.0895,2.045,2.0454,2.0494,2.0264,2.0681,2.1408,2.2291,2.4084,2.6226,2.8593,2.9195,2.9927,3.2385,3.2505,3.2353,3.2799,3.2973,3.3173,3.3561,3.4336,3.5553,3.7386,3.7638,3.8489,4.0697,4.093,4.1648,4.3556,4.4243,4.5084,4.6207,4.6664,4.6727,4.6489,4.6213,4.6012,4.5902,4.5883,4.5755,4.548,4.5352,4.515,4.4856,4.4856,4.3297,4.036,3.8908,3.6991,3.4673,3.3118,3.2233,3.181,3.1931,3.1971,3.1998,3.2353,3.2291,3.2158,3.2666,3.2902,3.2942,0.0,0.0,0.0,0.0,0.0,0.0,0.0,0.0,0.0,0.0,1.5093,0.0,0.0,0.0,0.0,0.0,0.0,0.0,0.0,1.6149,1.6462,1.7227,1.7751,1.8687,2.0089,2.1447,2.2416,2.2975,2.2687,2.2156,2.1457,2.1208,2.1138,2.1115,2.1389,2.119,2.0645,2.0372,2.0057,1.972,1.9773,1.9653,1.9423,0.0,0.0,0.0,0.0,0.0,0.0,0.0,0.0,0.0,1.976,2.016,2.0535,2.0277,2.0281,2.0361,2.0535,2.1056,2.1943,2.3415,2.5288,2.7375,2.9806,3.0902,3.1917,3.3748,3.3561,3.3512,3.4811,3.4272,3.401,3.5194,3.5864,3.6777,3.8285,3.9233,4.0574,4.2774,4.2847,4.354,4.5547,4.5586,4.5847,4.6796,4.6617,4.6415,4.625,4.6012,4.5883,4.5883,4.5737,4.5535,4.5297,4.4985,4.4691,4.448,4.448,4.3518,4.1672,3.9729,3.7488,3.516,3.3209,3.2152,3.1738,3.1984,3.2104,3.2131,3.2474,3.2554,3.2505,3.2973,3.3146,3.3173,0.0,0.0,0.0,0.0,0.0,0.0,0.0,0.0,0.0,0.0,1.5253,1.5511,0.0,0.0,0.0,0.0,0.0,0.0,0.0,0.0,1.6343,1.7457,1.7999,1.9223,2.1212,2.1743,2.1575,2.0794,2.131,2.1386,2.1064,2.1542,2.2197,2.3018,2.3242,2.3065,2.2449,2.1744,2.094,2.0104,1.9893,1.9947,2.0104,1.992,0.0,0.0,0.0,0.0,0.0,0.0,0.0,0.0,1.9706,1.9813,1.9893,2.013,2.0067,2.008,2.0989,2.1443,2.2278,2.4713,2.6546,2.8486,3.1283,3.316,3.4548,3.5278,3.4651,3.4884,3.7599,3.6021,3.5138,3.765,3.8486,3.8885,3.9078,4.0749,4.2776,4.4967,4.4891,4.541,4.7394,4.7259,4.6855,4.6397,4.6397,4.625,4.5865,4.5865,4.5865,4.5828,4.548,4.526,4.5187,4.4453,4.4068,4.4031,4.385,4.2799,4.0983,3.9045,3.6791,3.4262,3.2743,3.1931,3.1778,3.1998,3.2118,3.2171,3.2514,3.2795,3.3013,3.3307,3.3414,3.3414,0.0,0.0,0.0,0.0,0.0,0.0,0.0,0.0,0.0,0.0,0.0,0.0,0.0,0.0,0.0,0.0,0.0,0.0,0.0,0.0,1.6587,1.7457,1.8989,2.0373,2.1556,2.1262,2.0963,2.0728,2.0607,2.037,2.0133,2.1937,2.2572,2.2281,2.3384,2.3077,2.1738,2.0663,1.9933,1.9602,1.9733,1.9706,1.9599,1.9987,0.0,0.0,0.0,0.0,0.0,0.0,0.0,0.0,1.9706,1.996,2.0117,2.0184,2.0347,2.0735,2.1844,2.2352,2.3295,2.6131,2.8951,3.1476,3.3053,3.4068,3.517,3.6962,3.607,3.6395,4.1214,3.9565,3.8384,4.1026,4.1219,4.16,4.3384,4.3758,4.464,4.6857,4.6778,4.6562,4.6716,4.6654,4.6324,4.5608,4.5847,4.5847,4.5443,4.5718,4.5755,4.5443,4.5352,4.5003,4.4343,4.4178,4.3921,0.0,4.2046,4.1061,4.0561,3.8947,3.6043,3.2327,3.192,3.1851,3.2011,3.2078,3.2238,3.2527,3.2822,3.2969,3.3013,3.3307,3.3414,3.3414,0.0,0.0,0.0,0.0,0.0,0.0,0.0,0.0,0.0,0.0,0.0,0.0,0.0,0.0,0.0,0.0,0.0,0.0,0.0,0.0,1.7213,1.836,1.9745,2.0644,2.1041,2.0855,2.0528,2.0075,2.0032,2.0154,2.0494,2.2117,2.2915,2.2996,2.379,2.3289,2.18,2.0989,2.0307,1.98,1.9947,2.0,2.0043,2.0144,0.0,0.0,0.0,0.0,0.0,0.0,0.0,0.0,0.0,0.0,1.984,1.9987,2.0134,2.0575,2.2031,2.3111,2.4747,2.8407,3.0939,3.2799,3.3855,3.4649,3.6144,3.9486,3.8602,3.8308,4.2024,4.1458,4.0998,4.2839,4.3055,4.3322,4.4289,4.5174,4.6101,4.726,4.7057,4.6727,4.6507,4.614,4.5737,4.5333,4.5297,4.5223,4.5003,4.5187,4.5205,4.5003,4.482,4.4508,4.4086,4.3903,4.3701,4.3499,4.1454,3.9515,3.7667,3.6839,3.4736,3.1724,3.1824,3.1877,3.1917,3.2198,3.2367,3.2407,3.2701,3.2822,3.2835,3.2995,3.308,3.32,0.0,0.0,0.0,0.0,0.0,0.0,0.0,0.0,0.0,0.0,0.0,0.0,0.0,0.0,0.0,0.0,0.0,0.0,0.0,0.0,0.0,1.9395,2.0256,2.0644,2.0528,2.063,2.0345,1.9625,1.9792,2.0458,2.1549,2.2375,2.3251,2.4089,2.4205,2.3461,2.2084,2.1592,2.0797,1.9903,2.007,2.0204,2.0311,2.0134,1.9867,1.9546,1.9334,0.0,1.9321,1.9374,0.0,0.0,0.0,0.0,1.9455,1.972,1.984,2.0241,2.1963,2.3893,2.6529,3.0923,3.247,3.3332,3.4931,3.565,3.7205,4.169,4.0881,4.0169,4.2807,4.3072,4.3206,4.4318,4.4705,4.4759,4.443,4.5889,4.7002,4.7002,4.6635,4.6342,4.6287,4.5682,4.5242,4.5095,4.4838,4.4682,4.4627,4.4756,4.471,4.4627,4.4325,4.4123,4.3976,4.3664,4.3499,4.3455,4.1138,3.7943,3.4107,3.4107,3.3243,3.1724,3.1917,3.1891,3.1751,3.2246,3.2326,3.2131,3.242,3.2554,3.2594,3.2594,3.2741,3.2955,0.0,0.0,0.0,0.0,0.0,0.0,0.0,0.0,0.0,0.0,1.665,1.657,0.0,0.0,0.0,0.0,0.0,0.0,0.0,0.0,0.0,1.9684,2.0365,2.0957,2.1496,2.0989,2.063,2.0524,2.0327,2.1119,2.2868,2.3257,2.3774,2.4357,2.4148,2.3317,2.2029,2.0958,1.9782,1.8799,1.9554,1.9428,1.8866,1.9334,1.9174,1.8664,1.8624,0.0,1.9025,1.9308,1.9401,0.0,0.0,0.0,1.9455,1.972,1.9943,2.0472,2.2054,2.5075,2.8772,3.3027,3.338,3.3843,3.8299,3.8358,3.8314,4.1502,4.0753,4.1283,4.7331,4.6161,4.4972,4.7009,4.7034,4.6713,4.6658,4.659,4.6562,4.6562,4.6213,4.5828,4.5498,4.537,4.5003,4.4306,4.4508,4.4572,4.4178,4.4838,4.4893,4.4178,4.448,4.4315,4.3573,4.3518,4.3499,4.3455,3.9743,3.5926,3.209,3.209,3.1948,3.1724,3.1751,3.1751,3.1724,3.1805,3.1917,3.2104,3.2144,3.2318,3.2594,3.2594,3.2621,3.2688,0.0,0.0,0.0,0.0,0.0,0.0,0.0,0.0,0.0,0.0,0.0,1.6975,0.0,0.0,0.0,0.0,0.0,0.0,0.0,0.0,0.0,1.9478,1.9774,2.0141,2.0613,2.0365,2.0279,2.0483,2.0323,2.1496,2.3925,2.4071,2.4463,2.5016,2.4553,2.3514,2.2016,2.0962,1.9945,1.9013,1.9379,1.9308,1.9013,1.9078,1.8958,1.8704,1.8544,1.8571,1.8731,1.9025,1.9118,1.9287,2.0266,0.0,0.0,0.0,2.1773,2.2705,2.6023,2.7858,2.9792,3.3859,3.4583,3.4952,3.7703,3.9376,4.0967,4.3122,4.3421,4.4125,4.6727,4.7276,4.7276,4.7184,4.7171,4.7007,4.65,4.6269,4.614,4.614,4.5792,4.5498,4.5315,4.4893,4.4471,4.4105,4.405,4.394,4.3756,4.4105,4.4123,4.3774,4.3921,4.3848,4.3499,4.3261,4.2049,3.9864,3.9415,3.6467,3.147,3.275,3.2738,3.1711,3.1711,3.1711,3.1724,3.1851,3.1891,3.1877,3.2038,3.2078,3.2099,3.2099,3.2206,3.2332,0.0,0.0,0.0,0.0,0.0,0.0,0.0,0.0,0.0,0.0,0.0,0.0,0.0,0.0,0.0,0.0,0.0,0.0,0.0,0.0,0.0,1.9137,1.9254,1.9456,1.978,1.9806,1.9966,2.0269,2.0304,2.1861,2.4818,2.4939,2.5519,2.6474,2.5488,2.4096,2.2378,2.1564,2.0571,1.9589,1.9459,1.9281,1.9038,1.9038,1.8945,1.8798,1.8651,1.8597,1.8651,1.8931,1.9038,1.9278,2.0831,2.1233,0.0,0.0,0.0,2.4014,2.8342,2.9476,3.0423,3.4561,3.5796,3.6575,3.8665,4.1111,4.3399,4.5215,4.6206,4.6707,4.6392,4.7752,4.8386,4.6869,4.6661,4.6529,4.5967,4.581,4.5737,4.5737,4.548,4.5223,4.5003,4.4435,4.3995,4.3838,4.3609,4.3444,4.3334,4.3536,4.3591,4.3499,4.3591,4.3536,4.3334,4.3067,4.1143,3.7747,3.962,3.7767,3.2701,3.3937,3.3902,3.2831,3.207,3.1711,3.1738,3.1904,3.1864,3.1738,3.1904,3.1864,3.1711,3.1711,3.181,3.2051,0.0,0.0,0.0,0.0,0.0,0.0,0.0,0.0,0.0,0.0,0.0,0.0,0.0,0.0,1.7308,1.7279,1.7279,1.7317,1.7331,1.7624,1.8116,1.8814,1.9137,0.0,1.9784,1.9796,1.993,2.0212,2.0532,2.2314,2.5456,2.5763,2.7115,2.9134,2.7248,2.5299,2.3406,2.2748,2.1589,2.0134,1.9881,1.9092,1.8183,1.9025,1.9027,1.8544,1.8783,0.0,1.8916,1.9267,1.9374,1.9618,2.1118,2.1379,2.1203,0.0,0.0,0.0,2.6176,2.8442,3.0967,3.549,3.7011,3.8758,4.3893,4.4664,4.5007,4.74,4.8003,4.8215,4.867,4.8045,4.7299,4.6682,4.5917,4.5527,4.5847,4.5572,4.5333,4.5333,4.5315,4.5003,4.4215,4.4105,4.3756,4.303,4.3279,4.3316,4.2957,4.3628,4.3884,4.3499,4.3866,4.3683,4.2957,4.292,4.1851,3.9754,4.0253,3.915,3.6612,3.4997,3.4908,3.5993,3.299,3.1711,3.1711,3.1738,3.1724,3.1711,3.1738,3.1724,3.1711,3.1711,3.1724,3.1818,0.0,0.0,0.0,0.0,0.0,0.0,0.0,0.0,0.0,0.0,0.0,0.0,0.0,1.7492,1.7536,1.7331,1.7302,1.739,1.7609,1.7726,1.8101,1.876,1.9122,1.9356,1.9474,1.9679,1.984,1.993,2.0225,2.1715,2.4305,2.5223,2.6471,2.7817,2.6918,2.5882,2.4722,2.3041,2.1791,2.0824,2.011,1.9676,1.946,1.9174,1.9668,2.0386,0.0,0.0,2.075,2.1075,2.1176,2.1546,2.3869,2.422,2.3883,2.4484,2.558,2.7,2.8793,2.9665,3.094,3.4507,3.639,3.8075,4.0765,4.3581,4.5788,4.6383,4.7224,4.7851,4.8008,4.7988,4.7754,4.7205,4.6606,4.6076,4.5592,4.515,4.4893,4.4893,4.4673,4.4398,4.4105,4.3654,4.3342,4.3279,4.3151,4.3151,4.3261,4.3554,4.3646,4.3499,4.3371,4.2957,4.2167,4.2406,4.1368,3.916,4.1125,4.0146,3.6717,3.7482,3.668,3.4623,3.3631,3.3182,3.3102,3.2103,3.1711,3.1711,3.1711,3.1711,3.1711,3.1711,3.1711,3.1778,0.0,0.0,0.0,0.0,0.0,0.0,0.0,0.0,0.0,0.0,0.0,0.0,0.0,0.0,1.7872,1.7653,1.7638,1.7726,1.7945,1.7984,1.8218,1.8785,1.9122,1.9356,1.9459,1.9781,1.9889,1.9808,2.03,2.1496,2.3345,2.459,2.5842,2.6969,2.631,2.6089,2.6042,2.4231,2.296,2.2034,2.0698,2.0384,2.0744,2.0347,2.1289,2.2691,0.0,0.0,2.2364,2.173,2.1612,2.2186,2.4676,2.5398,2.5516,2.6445,2.7474,2.8521,2.9486,3.0183,3.1354,3.4373,3.6109,3.7733,4.012,4.2904,4.5168,4.574,4.642,4.707,4.75,4.756,4.7431,4.7028,4.6468,4.5876,4.5215,4.4728,4.4517,4.4517,4.4251,4.3976,4.3701,4.3232,4.292,4.2894,4.2747,0.0,4.3078,4.3206,4.3279,4.3279,4.292,4.2387,4.1702,4.1959,4.1276,3.9738,4.1717,4.115,3.8273,3.9144,3.8335,3.6104,3.5242,3.4174,3.2994,3.2063,3.1711,3.1711,3.1711,3.1711,3.1758,3.2408,3.2266,3.1846,0.0,0.0,0.0,0.0,0.0,0.0,0.0,0.0,0.0,1.777,0.0,0.0,0.0,0.0,0.0,1.835,1.835,1.835,1.835,1.835,1.8496,1.8818,1.9166,1.9488,1.9796,2.0064,2.0073,1.9813,2.0726,2.1685,2.2685,2.3941,2.5423,2.6939,2.5672,2.5944,2.7253,2.6315,2.5144,2.3784,2.1681,2.1228,2.186,2.2507,2.3876,2.5218,2.379,2.3663,2.3792,2.1352,2.0888,2.1607,2.3387,2.4772,0.0,0.0,2.6885,2.6974,0.0,0.0,0.0,3.5103,3.6211,3.7809,4.2383,4.2832,4.2967,4.5605,4.584,4.5976,4.7285,4.6766,4.614,4.6064,4.5348,4.4758,4.4691,4.4352,4.405,4.4068,4.405,4.3738,4.3012,4.292,4.2589,4.1776,4.2069,4.2314,4.2314,4.2681,4.2901,4.2901,4.2516,4.2069,4.1666,4.1666,4.1666,4.1666,4.2069,4.2051,4.1641,3.9807,3.9743,4.0862,3.7887,3.4577,3.1376,3.1732,3.1853,3.1806,3.1853,3.1853,3.2043,3.3981,3.3464,3.2178,0.0,0.0,0.0,0.0,0.0,0.0,1.8004,1.8004,1.8072,0.0,0.0,0.0,1.8642,1.9107,1.9386,1.9386,1.9386,1.9386,1.9386,1.9386,1.9506,1.9801,2.0122,2.0225,2.0079,2.0207,2.0195,2.0101,2.0411,2.0902,2.1642,2.2711,2.4455,2.6583,2.58,2.6313,2.764,2.5011,2.4347,2.4893,2.2936,2.2891,2.4042,2.4231,2.501,0.0,0.0,2.7555,2.8145,0.0,2.8501,2.8518,0.0,0.0,0.0,0.0,0.0,0.0,2.8169,0.0,0.0,0.0,0.0,0.0,3.668,3.7988,3.9453,4.2051,4.2988,4.3801,4.5406,4.5502,4.519,4.4766,4.4767,4.4646,4.4324,4.3691,4.336,4.3628,4.3389,4.3287,4.3316,4.3085,4.2828,0.0,4.2424,4.2314,4.2314,4.2424,4.2479,4.2479,4.2051,4.1647,4.1286,4.1268,4.1268,4.1286,4.1647,4.1794,4.1684,4.1152,4.0418,3.9434,3.8496,3.693,3.5091,3.573,3.5089,3.3934,3.5415,3.5089,3.4028,3.605,3.6421,3.6081,0.0,0.0,0.0,0.0,0.0,1.8701,1.8701,1.8701,1.8785,0.0,0.0,0.0,1.955,2.0413,2.0794,2.0426,2.0265,2.0192,2.0192,2.0033,2.0047,2.0196,2.0517,2.0605,2.0415,2.0441,2.0315,2.0013,2.0202,2.0359,2.0459,2.1553,2.2879,2.4289,2.4702,2.5595,2.6679,2.5141,2.472,2.5003,2.3911,2.4212,2.5384,2.6383,2.7761,0.0,0.0,0.0,3.2051,3.1574,3.1579,0.0,0.0,0.0,0.0,0.0,0.0,0.0,0.0,0.0,3.0762,3.1934,0.0,0.0,3.5019,3.5742,3.6738,3.9549,4.0625,4.162,4.3361,4.3641,4.3581,4.3458,4.3478,4.3571,4.3819,4.3177,4.2883,4.3426,4.2839,4.2589,4.2949,4.2663,4.2351,4.2167,4.1947,4.1892,4.2014,4.2387,4.2424,4.2051,4.1647,4.1341,4.1102,4.0937,4.0937,4.1102,4.1359,4.147,4.147,4.147,4.0856,3.9854,4.0085,3.9722,3.8995,3.9757,3.8402,3.5958,3.7115,3.6884,3.6097,3.8081,3.8408,3.7983,0.0,0.0,1.8964,1.9342,1.9415,1.9444,1.9561,1.9503,1.9605,0.0,1.9898,2.012,2.1101,2.2184,0.0,0.0,2.1145,2.0912,2.0809,2.0532,2.0356,2.0312,2.0634,2.078,2.0751,2.0773,2.0487,1.9907,2.0172,2.0043,1.9579,2.0613,2.1302,2.1735,2.3142,2.4315,2.5249,2.6201,2.583,2.4655,2.4993,2.5621,2.6637,2.907,3.135,3.3255,3.3483,3.4473,3.5321,3.2788,3.2258,0.0,0.0,0.0,0.0,0.0,2.9987,0.0,0.0,0.0,0.0,3.3313,3.2793,0.0,3.5424,3.5013,3.4857,3.7731,3.8594,3.9396,4.123,4.1522,4.1581,4.1865,4.1663,4.1922,4.3188,4.2692,4.2491,4.3261,4.2362,4.1849,4.2234,4.1959,4.1574,4.1194,4.1121,4.1286,4.1666,4.2351,4.2406,4.1702,4.1323,4.1102,4.1102,4.0754,4.0754,4.1102,4.1102,4.1102,4.1102,4.1158,4.1139,4.1139,4.191,4.2277,4.2387,4.3059,4.1203,3.7943,3.8173,3.8127,3.8143,4.0158,3.9874,3.8799,0.0,1.9026,1.9386,1.9918,2.002,2.0283,2.1101,2.0779,2.075,2.1628,2.2315,2.312,2.4133,2.4236,2.391,0.0,2.2828,2.2315,2.1554,2.1452,2.1291,2.1028,2.1335,2.1379,2.1115,2.1115,2.0909,2.0516,2.0378,2.0356,2.0433,2.0481,2.1935,2.4548,2.3598,2.4122,2.5826,2.7194,2.6874,2.5643,2.7654,2.9032,3.0173,3.2707,3.3893,3.4435,3.6734,3.739,3.7106,3.7138,3.6134,3.4609,0.0,0.0,0.0,3.0012,0.0,0.0,0.0,0.0,0.0,0.0,0.0,0.0,3.2324,3.2812,3.4121,3.6113,3.6582,3.7339,3.9758,4.0215,3.9954,3.9018,3.9622,4.073,4.2289,4.2106,4.1977,4.2498,4.2032,4.1849,4.2234,4.2259,4.2039,4.1592,4.1286,4.1286,4.1666,4.1561,4.1543,4.1684,4.1323,4.1102,4.1102,4.1029,4.1029,4.1102,4.1102,4.1102,4.1121,4.1451,4.1415,4.1121,4.1635,4.1977,4.2332,4.2498,4.1533,4.0107,4.1742,4.1363,4.0249,4.2548,4.2144,4.0809,1.975,1.9784,1.9916,2.0371,2.0853,2.1423,2.2067,2.2023,2.2198,2.3049,2.4247,2.4993,2.4866,2.513,2.4832,0.0,0.0,0.0,0.0,2.1789,2.1554,2.1189,2.1351,2.135,2.1191,2.1045,2.0791,2.0494,2.0795,2.0941,2.0959,2.17,2.2605,2.3648,2.4387,2.5138,2.5926,2.7969,2.8687,2.8592,3.0102,3.1023,3.1785,3.4869,3.6208,3.6782,3.9354,3.9971,3.9432,3.8086,3.7803,0.0,3.4192,3.3669,3.3867,0.0,3.1949,3.2188,0.0,0.0,0.0,3.2793,0.0,0.0,0.0,3.2148,3.2715,3.4648,3.4707,3.5129,3.7471,3.7483,3.7253,3.7596,3.7848,3.8658,4.0492,4.0767,4.1121,4.1886,4.1079,4.0694,4.1359,4.1415,4.1415,4.1415,4.1415,4.1415,4.1415,4.1415,4.1415,4.1415,4.1011,4.0901,4.1102,4.0901,4.0901,4.1102,4.1102,4.1102,4.1102,4.1323,4.1304,4.1121,4.1543,4.1922,4.2332,4.2534,4.2339,4.2102,4.3124,4.3009,4.2449,4.3633,4.3687,4.3339,2.0524,2.0381,2.0254,2.0707,2.1569,2.233,2.274,2.3032,2.3501,2.4349,2.571,2.6216,2.5247,2.5778,2.5646,2.4265,0.0,0.0,0.0,2.2008,2.1482,2.1189,2.1205,2.113,2.1016,2.0891,2.0629,2.0303,2.1216,2.1613,2.148,2.3148,2.3541,2.2928,2.535,2.6445,2.6613,2.8736,3.0382,3.1628,3.2593,3.2819,3.2978,3.6544,3.8309,3.9133,4.1107,4.1797,4.1348,3.8398,3.8713,3.9536,3.524,3.5577,0.0,0.0,0.0,0.0,0.0,0.0,0.0,0.0,0.0,3.3371,0.0,0.0,0.0,3.3547,3.3223,3.3262,3.5142,3.4691,3.4471,3.5779,3.5921,3.6384,3.7831,3.8566,3.9524,4.1042,3.9832,3.9245,4.0143,4.0162,4.035,4.0827,4.1176,4.1268,4.0992,4.1378,4.1451,4.1121,4.079,4.0772,4.1102,4.079,4.079,4.1102,4.1102,4.1102,4.1102,4.1194,4.1176,4.1121,4.1543,4.1922,4.2351,4.2663,4.3041,4.3499,4.3499,4.3683,4.3976,4.405,4.4316,4.4658,1.9823,1.9876,2.0133,2.0998,2.173,2.2476,2.3354,2.3515,2.4086,2.5593,2.6457,2.6991,2.7078,2.6975,2.6663,2.6135,2.4247,0.0,2.4262,0.0,2.1234,2.1189,2.1205,2.0945,2.0401,2.0891,2.0865,2.0303,2.1401,2.2082,2.2364,2.3781,2.5143,2.6484,2.6243,2.7301,2.9271,2.9631,3.0948,3.2999,3.5253,3.5579,3.501,3.8344,3.9891,4.0395,4.1445,4.1797,4.1621,0.0,3.9792,3.9256,0.0,3.719,3.6379,3.6731,0.0,0.0,0.0,0.0,0.0,0.0,3.605,0.0,0.0,0.0,3.3586,3.3047,0.0,3.257,3.3535,0.0,0.0,3.1563,3.317,3.444,3.3947,3.4844,3.6512,3.915,3.8362,3.805,3.9223,3.9021,3.9171,3.9964,4.0074,4.024,4.057,4.0956,4.1158,4.1102,4.1066,4.1066,4.1102,4.1066,4.1066,4.1102,4.1102,4.1102,4.1121,4.1488,4.1451,4.1121,4.1543,4.1922,4.2289,4.2369,4.2803,4.3499,4.3499,4.3518,4.3609,4.3958,4.323,4.2325,2.0035,2.0087,2.0223,2.0795,2.1628,2.2536,2.3457,2.4876,2.6091,2.6778,2.7744,2.8437,2.856,2.8098,2.7669,2.7293,2.5902,2.5018,0.0,0.0,0.0,2.2028,2.2572,2.2557,2.1818,2.2811,2.3067,2.2452,2.381,2.4451,2.4458,2.6289,2.7217,2.7363,2.7902,2.8908,3.0217,3.1155,3.2363,3.3819,3.6137,3.6778,3.6685,3.9812,4.1426,4.2012,4.2129,4.2012,4.1523,0.0,3.9614,0.0,0.0,0.0,0.0,0.0,0.0,0.0,0.0,0.0,0.0,0.0,0.0,0.0,3.3809,0.0,3.3098,0.0,0.0,0.0,0.0,0.0,0.0,0.0,3.2271,3.298,3.3444,3.3521,3.4615,3.7484,3.631,0.0,3.697,3.7373,3.7794,3.8401,3.8878,3.9318,3.9722,4.0405,4.0864,4.1102,4.1102,4.1102,4.1102,4.1102,4.1102,4.1102,4.1341,4.1341,4.1121,4.1782,4.1727,4.1121,4.1543,4.1794,4.1959,4.2179,4.2663,4.3195,4.3408,4.3628,4.3866,4.4031,4.3969,4.3909,1.9978,2.0136,2.0371,2.0868,2.1715,2.2681,2.3823,2.5666,2.71,2.7554,2.8491,2.9212,2.9483,2.9158,2.8895,2.8807,2.7725,2.6677,0.0,0.0,2.3446,0.0,0.0,0.0,2.2976,2.4083,2.4565,2.4282,2.5737,2.6452,2.6467,2.8408,2.9028,2.8646,2.9831,3.0986,3.2068,3.3007,3.4349,3.5957,3.7285,3.8242,3.9082,4.0918,4.2226,4.3008,4.2461,4.2051,4.1484,3.9492,3.9863,0.0,3.863,0.0,0.0,0.0,0.0,0.0,3.8359,0.0,0.0,0.0,0.0,0.0,0.0,0.0,0.0,0.0,0.0,0.0,0.0,0.0,0.0,0.0,0.0,3.2483,3.3086,3.2567,3.3125,3.5797,3.5044,0.0,0.0,3.6182,3.664,3.7024,3.7501,3.805,3.8673,3.952,4.0253,4.0919,4.1047,4.1102,4.1102,4.1102,4.1102,4.1102,4.1415,4.1396,4.1121,4.1837,4.1837,4.1286,4.1555,4.1812,4.2032,4.2241,4.2626,4.3078,4.3371,4.3664,4.394,4.405,4.46,4.5297,1.9335,1.9784,2.0502,2.1496,2.2184,2.3149,2.4793,2.5344,2.6114,2.7692,2.8204,2.8773,2.9684,3.0127,3.0532,3.1066,2.9384,2.8177,2.7808,0.0,2.3823,0.0,0.0,2.3106,0.0,2.3761,2.4425,2.5068,2.6274,2.7234,2.7973,2.9187,3.0355,3.1386,3.203,3.3611,3.5806,3.5181,3.6999,4.0254,3.9453,4.0644,4.2814,0.0,4.2012,4.3009,4.2129,0.0,0.0,4.123,4.1152,0.0,0.0,0.0,0.0,0.0,0.0,0.0,0.0,0.0,0.0,3.7457,0.0,0.0,0.0,0.0,3.5664,0.0,0.0,0.0,0.0,0.0,0.0,0.0,0.0,0.0,0.0,3.1451,3.1954,3.4131,3.5059,3.5724,0.0,3.587,3.5815,0.0,3.5925,3.62,3.7373,3.8215,3.9205,4.0497,4.0901,4.1102,4.1102,4.1102,4.1102,4.1102,4.1121,4.1121,4.1121,4.1519,4.1702,4.1666,4.1684,4.2124,4.2846,4.2479,4.2747,4.3481,4.3481,4.3499,4.3554,4.394,4.46,4.5297,2.0516,2.0911,2.1233,2.135,2.173,2.2623,2.4485,2.595,2.7355,2.882,2.9657,3.0595,3.1864,3.2037,3.2303,3.2913,3.1975,3.0845,2.9776,2.8501,0.0,0.0,0.0,2.8003,0.0,0.0,0.0,2.8814,2.9389,2.9662,2.9691,3.083,3.157,3.1992,3.3062,3.4466,3.6079,3.7257,3.8345,3.9277,3.9844,4.1445,4.3418,0.0,0.0,4.2578,4.1992,4.1621,0.0,4.1269,4.1211,4.1152,4.084,4.084,4.0898,4.0605,4.0723,0.0,0.0,0.0,4.1074,3.8887,0.0,0.0,0.0,0.0,0.0,0.0,0.0,0.0,0.0,0.0,0.0,0.0,0.0,0.0,0.0,3.1314,3.1408,3.2443,3.3184,3.356,3.345,0.0,3.367,3.3798,3.3688,0.0,3.5724,3.7079,3.8362,3.9612,4.0308,4.0845,4.1102,4.1102,4.1102,4.1102,4.1378,4.1525,4.15,4.2204,4.2369,4.2087,4.2387,4.2516,4.2534,4.2663,4.2883,4.3158,4.3389,4.3811,4.4251,4.4123,4.4416,4.4966,2.154,2.173,2.1832,2.173,2.2271,2.3283,2.488,2.6677,2.838,2.9724,3.0794,3.1918,3.3298,3.345,3.3625,3.4083,3.3701,3.2811,3.1322,3.0487,0.0,2.7459,2.9931,0.0,0.0,0.0,0.0,0.0,3.1772,3.1869,3.1603,3.2002,3.2433,3.2941,3.4544,3.5684,3.6641,3.9238,4.0117,3.9805,4.0801,4.1991,4.3203,0.0,4.2637,4.2558,0.0,4.1406,4.1211,4.1211,4.1211,4.1172,4.084,4.0957,4.1094,4.0644,4.084,4.1172,4.0976,4.1367,0.0,3.9844,3.9258,0.0,3.6348,0.0,0.0,0.0,0.0,0.0,0.0,0.0,0.0,0.0,0.0,0.0,0.0,3.1183,3.1175,3.1617,3.2334,3.2607,3.2202,3.2563,3.2514,3.1799,3.2001,3.268,0.0,0.0,3.7373,3.871,3.9887,4.0699,4.1102,4.1102,4.1102,4.1102,4.1482,4.1684,4.1721,4.2553,4.2773,4.2553,4.2791,4.2846,4.2711,4.2865,4.2993,4.3158,4.3389,4.3811,4.4297,4.4288,4.4636,4.5187,2.2286,2.2286,2.2388,2.268,2.3764,2.492,2.5895,2.751,2.9058,3.0382,3.1474,3.264,3.3893,3.443,3.4696,3.471,3.483,3.4264,3.287,3.2046,0.0,0.0,3.0739,3.1066,3.027,0.0,0.0,0.0,3.3359,3.3688,3.3636,3.2727,3.2941,3.4173,3.6328,3.7285,3.75,4.0937,4.2187,4.1894,4.2246,4.2401,4.2401,4.1953,4.2305,4.2871,4.166,4.1211,4.1211,4.1211,4.1211,4.1211,4.1211,4.1211,4.1094,4.0684,4.084,4.1074,4.0664,4.1172,4.1543,4.0293,0.0,0.0,0.0,0.0,4.1465,0.0,0.0,0.0,0.0,0.0,0.0,0.0,0.0,0.0,0.0,0.0,3.1142,3.1573,3.2426,3.2809,3.2455,3.2807,3.2239,3.0314,3.0846,3.1451,3.1928,0.0,3.6311,3.7906,3.9575,4.068,4.1102,4.1102,4.1121,4.1139,4.1543,4.1702,4.1776,4.2571,4.292,4.2938,4.2938,4.3177,4.3463,4.3103,4.3133,4.3499,4.3499,4.3518,4.3646,4.4444,4.5187,4.5883,2.2515,2.3263,2.4012,2.4329,2.449,2.5038,2.6387,2.775,2.9262,3.1079,3.2255,3.3371,3.4449,3.6262,3.7457,3.7692,3.9123,0.0,0.0,0.0,0.0,3.5359,3.6958,3.7521,3.6737,3.7428,0.0,3.7091,0.0,3.4807,3.4536,3.3914,3.3625,3.3691,3.6191,3.7129,3.7086,4.0508,4.2266,4.2715,4.2168,4.2539,4.3223,0.0,4.1855,4.2461,4.1523,4.1211,4.1211,4.1211,4.1211,4.1211,4.1211,4.1211,4.1191,4.1074,4.1132,4.1191,4.1035,4.1621,4.2109,4.1465,4.1484,4.125,0.0,0.0,0.0,0.0,0.0,0.0,0.0,0.0,0.0,0.0,0.0,0.0,0.0,0.0,0.0,3.1949,3.1245,3.0952,3.1556,3.1163,3.0593,2.9794,2.9684,3.0039,3.1047,0.0,0.0,3.7061,3.9006,4.0387,4.1102,4.1102,4.1268,4.1561,4.1629,4.1996,4.2608,4.2828,4.3085,4.3334,4.3334,4.3389,4.3481,4.3371,4.3389,4.3499,4.3499,4.3848,4.4444,4.4645,4.5187,4.5883,2.3666,2.4669,2.5513,2.5534,2.5826,2.6426,2.7626,2.8408,2.9495,3.1284,3.3284,3.4809,3.5567,3.8167,3.9882,3.9877,4.0077,0.0,4.1062,0.0,0.0,3.9055,4.008,4.0018,3.8684,3.9575,0.0,3.8382,0.0,3.5956,3.5932,3.4485,3.375,3.3809,3.623,3.707,3.691,4.0137,4.2129,4.3029,4.1953,4.207,0.0,4.1641,4.1465,4.1816,4.1348,4.1211,4.1211,4.1211,4.1211,4.1211,4.1211,4.1211,4.1211,4.1211,4.1211,4.1211,4.1211,4.1797,4.2323,4.2129,4.25,4.2637,4.1543,4.2168,4.2656,0.0,0.0,0.0,0.0,0.0,0.0,0.0,0.0,0.0,0.0,0.0,0.0,3.1797,3.1446,3.1268,3.1463,3.0032,2.9057,2.898,2.9471,2.9823,0.0,0.0,0.0,3.5999,3.8853,4.0626,4.1102,4.1451,4.1672,4.1684,4.1867,4.2314,4.292,4.3103,4.3279,4.3499,4.3499,4.3499,4.3499,4.3499,4.3499,4.3499,4.3499,4.3866,4.448,4.4645,4.5187,4.5883,2.5067,2.6099,2.6767,2.6327,2.7326,2.845,2.9322,2.9562,3.0172,3.1558,3.4607,3.6751,3.698,4.0097,4.2034,4.178,4.0233,4.0306,4.2747,4.0056,3.9379,4.1786,4.1741,4.0866,3.9236,4.0517,4.0275,0.0,0.0,3.68,3.6914,3.4531,3.3633,3.4114,3.6191,3.7109,3.7301,3.992,4.1758,4.2734,4.166,4.1426,4.1758,4.1328,4.1211,4.1211,4.1211,4.1211,4.1211,4.1211,4.1211,4.1211,4.1211,4.1211,4.1211,4.1211,4.1211,4.123,4.125,4.1836,4.2401,4.25,4.3457,4.418,4.3381,4.3496,4.3652,4.3224,4.2773,4.2321,0.0,0.0,0.0,0.0,0.0,0.0,0.0,0.0,0.0,0.0,0.0,0.0,3.1934,2.9715,2.8356,2.8416,2.9849,0.0,0.0,0.0,0.0,3.5117,3.8755,4.0925,4.126,0.0,4.2094,4.2008,4.2204,4.2553,4.3012,4.3334,4.3499,4.3499,4.3499,4.3499,4.3499,4.3499,4.3499,4.3499,4.3554,4.3811,4.4215,4.4645,4.5242,4.5883,2.5236,2.6495,2.7325,2.6664,2.8112,2.9854,3.1217,3.1787,3.247,3.3478,3.6447,3.8456,3.8514,4.2077,4.438,4.4363,4.5339,0.0,0.0,0.0,0.0,4.6036,4.5401,4.5062,4.5114,4.2778,4.135,0.0,0.0,3.6182,3.5137,3.3965,3.3425,3.3613,3.543,3.7402,3.9375,3.9902,4.0664,4.1523,4.1308,4.1426,4.1758,4.1328,4.1211,4.1211,4.1211,4.1211,4.1211,4.1211,4.1211,4.1211,4.1211,4.1211,4.1211,4.1211,4.1211,4.1289,4.1601,4.2051,4.2479,4.2871,4.3691,4.4258,4.3711,4.3945,4.4043,4.3242,4.3008,4.2539,4.0997,0.0,0.0,0.0,0.0,0.0,0.0,0.0,0.0,0.0,0.0,3.2181,3.2724,3.1704,3.0662,2.9741,2.9938,0.0,0.0,0.0,0.0,0.0,3.8095,0.0,0.0,0.0,4.2162,4.3751,4.2764,4.2656,4.3389,4.3463,4.3499,4.3499,4.3499,4.3499,4.3499,4.3499,4.3499,4.3518,4.3848,4.4215,4.4664,4.504,4.548,4.5883,2.6744,2.7357,2.7889,2.8167,2.936,3.1218,3.4054,3.4333,3.4564,3.5599,3.7215,3.917,4.1538,4.4041,4.599,4.6927,4.6782,4.7004,4.7961,4.6579,4.6217,4.7357,4.6635,4.6229,4.629,4.3463,4.1793,4.1435,0.0,0.0,3.5084,3.3713,3.2988,3.2832,3.4101,3.6621,3.9863,3.9414,0.0,4.1484,4.1289,4.1426,4.1758,4.1328,4.1211,4.1211,4.1211,4.1211,4.1211,4.1211,4.1211,4.1211,4.1211,4.1211,4.1211,4.1211,4.1211,4.1308,4.168,4.2109,4.2499,4.2969,4.3555,4.3984,4.375,4.3867,4.3926,4.3496,4.3223,4.2558,4.084,3.8557,0.0,0.0,0.0,0.0,0.0,0.0,0.0,0.0,0.0,0.0,0.0,0.0,3.1541,2.983,3.0414,0.0,0.0,0.0,0.0,0.0,0.0,0.0,0.0,0.0,0.0,4.3883,4.3291,4.3158,4.3499,4.3499,4.3499,4.3499,4.3499,4.3499,4.3499,4.3499,4.3609,4.3829,4.4013,4.437,4.4774,4.515,4.5425,4.5608,2.8457,2.848,2.8809,2.9825,3.0757,3.247,3.5818,3.6387,3.6963,3.8415,3.8708,4.0319,4.4417,4.5969,4.7272,4.8667,4.7152,4.6758,4.8205,4.6374,4.5999,4.7778,4.7039,4.6561,4.6383,4.3785,4.1987,0.0,0.0,0.0,0.0,3.3629,3.2832,3.2511,3.3711,0.0,0.0,0.0,4.0019,4.166,4.1504,4.1582,4.1758,4.1426,4.1348,4.1348,4.1348,4.1348,4.1348,4.1348,4.1289,4.1211,4.1211,4.1211,4.1211,4.1211,4.1211,4.1328,4.1797,4.2168,4.2558,4.3086,4.3457,4.3711,4.3711,4.3711,4.3691,4.3594,4.3164,4.2363,4.0918,3.9394,0.0,0.0,0.0,0.0,0.0,0.0,0.0,0.0,0.0,0.0,3.2316,0.0,0.0,0.0,0.0,0.0,2.8925,0.0,0.0,0.0,0.0,4.0925,4.255,0.0,4.387,0.0,4.3721,4.3563,4.3499,4.3499,4.3499,4.3499,4.3499,4.3536,4.3628,4.3628,4.3848,4.4215,4.4215,4.4453,4.4884,4.5187,4.5352,4.548,2.9418,2.9989,3.0478,3.1001,3.2211,3.345,3.4377,3.7163,4.0036,4.2503,4.2724,4.3507,4.5703,4.7573,4.8531,4.8377,4.8192,4.8124,4.8286,4.8101,4.8033,4.8231,4.7479,4.7261,4.7601,4.4486,4.2074,0.0,0.0,0.0,0.0,0.0,0.0,0.0,0.0,0.0,0.0,3.9551,4.0684,4.1328,4.2012,4.2109,4.1797,4.1758,4.1738,4.1738,4.1738,4.1738,4.1738,4.1738,4.1484,4.1211,4.1211,4.1211,4.1211,4.1211,4.1211,4.1348,4.2148,4.2362,4.2577,4.3437,4.3672,4.3711,4.3711,4.3711,4.3594,4.3223,4.248,4.1758,4.1211,4.0351,3.9297,0.0,0.0,0.0,0.0,0.0,3.6426,3.4726,0.0,0.0,3.2472,3.2891,0.0,0.0,3.0335,0.0,0.0,0.0,0.0,3.4701,0.0,4.0509,4.3007,4.2724,0.0,4.5286,4.4134,4.3563,4.3499,4.3499,4.3499,4.3499,4.3499,4.3701,4.4031,4.4031,4.4251,4.4664,4.4664,4.4875,4.5242,4.5278,4.5535,4.5847,3.093,3.0849,3.112,3.2305,3.2893,3.4583,0.0,3.9521,4.1461,4.7076,4.5332,4.483,4.8115,4.7938,4.7857,4.8608,4.8653,4.8561,4.8304,4.8286,4.8286,4.8286,4.7754,4.772,4.8297,4.5437,4.336,0.0,0.0,0.0,0.0,0.0,0.0,0.0,0.0,3.6504,3.8496,3.9355,4.0293,4.1289,4.209,4.2284,4.2168,4.2168,4.2168,4.2168,4.2168,4.2168,4.2207,4.248,4.1993,4.1211,4.1211,4.1211,4.1269,4.1484,4.1543,4.1738,4.2578,4.2812,4.2969,4.3555,4.3711,4.3711,4.3711,4.3711,4.3652,4.3496,4.2988,4.2441,4.2012,4.1016,4.0273,0.0,0.0,0.0,0.0,0.0,0.0,3.4902,0.0,3.2734,3.1553,3.1465,0.0,0.0,0.0,0.0,0.0,0.0,0.0,3.5413,0.0,3.9793,4.2626,4.3234,4.3947,4.4725,4.4209,4.3823,4.3499,4.3499,4.3628,4.3848,4.3848,4.4068,4.448,4.448,4.4673,4.5058,4.5058,4.5297,4.5645,4.5645,4.5755,4.5883,3.2144,3.1874,3.2256,3.451,3.4757,3.6434,4.1942,4.1911,4.3249,4.8785,4.7283,4.676,4.9614,4.8354,4.7708,4.8631,4.8726,4.8598,4.8304,4.8286,4.8286,4.8286,4.7901,0.0,4.8345,4.6215,4.4525,4.333,4.1147,0.0,0.0,0.0,0.0,0.0,3.5625,3.7051,3.9238,3.9883,4.0762,4.1836,4.2519,4.2772,4.2793,4.2676,4.2695,4.2793,4.2656,4.2695,4.2851,4.3164,4.2656,4.1894,4.1817,4.1641,4.1621,4.2051,4.209,4.2207,4.3203,4.3359,4.3359,4.3789,4.3906,4.3867,4.373,4.3711,4.3711,4.3711,4.3359,4.2988,4.2676,4.1777,4.1191,4.1562,0.0,0.0,0.0,0.0,0.0,0.0,3.3457,3.1973,3.1328,3.0996,0.0,0.0,0.0,0.0,0.0,0.0,0.0,0.0,0.0,0.0,0.0,4.3716,4.4348,4.4403,4.4284,4.3926,4.3499,4.3609,4.3884,4.4297,4.4297,4.449,4.4902,4.4902,4.5095,4.548,4.548,4.5645,4.5883,4.5883,4.5883,4.5883,3.2732,3.3187,3.4441,3.786,3.8441,3.9271,4.1816,4.4083,4.5806,4.6628,4.8639,4.987,4.9551,4.9116,4.8713,4.8322,4.8286,4.8286,4.8286,4.8286,4.8286,0.0,0.0,4.7759,4.7835,4.6606,4.5239,4.3676,0.0,0.0,3.7968,0.0,3.7031,3.6773,3.8887,3.959,3.9336,4.1445,4.2656,4.3086,4.3516,4.3691,4.3633,4.3223,4.332,4.3633,4.3223,4.334,4.3691,4.3691,4.3691,4.3594,4.3183,4.2754,4.25,4.293,4.2754,4.2655,4.4023,4.4043,4.3808,4.4277,4.4394,4.4277,4.3808,4.3711,4.3711,4.3711,4.3359,4.3127,4.3066,4.2695,4.2129,4.1308,0.0,0.0,0.0,0.0,0.0,3.689,3.5879,3.4492,3.2394,3.2179,0.0,0.0,0.0,0.0,0.0,0.0,0.0,3.5351,3.8711,0.0,4.3047,4.3913,4.4501,4.4902,4.4415,4.3926,4.3499,4.3903,4.4288,4.4719,4.4719,4.4911,4.5297,4.5297,4.5535,4.5883,4.5883,4.5883,4.5883,4.5883,4.5883,4.5883,3.4093,3.432,3.4768,3.6015,3.7496,3.9352,4.1972,4.4169,4.6317,4.8363,4.8984,4.9239,4.9111,4.9221,4.9038,0.0,4.8286,4.8286,0.0,4.8286,4.8286,4.8286,4.8521,4.8573,4.8345,4.7997,4.7142,4.587,0.0,0.0,0.0,3.9162,3.9004,3.8906,3.9883,4.0723,4.1465,4.2461,4.3125,4.3555,4.4004,4.4355,4.459,4.4453,4.4492,4.459,4.4453,4.4492,4.4648,4.4941,4.4844,4.4629,4.4805,4.4141,4.332,4.3457,4.3633,4.3926,4.4629,4.4707,4.4648,4.4785,4.4824,4.4707,4.4277,4.3926,4.3711,4.3711,4.3594,4.3496,4.3496,4.3164,4.2676,4.2129,4.1894,0.0,0.0,0.0,0.0,0.0,3.3555,3.2051,0.0,3.212,0.0,0.0,0.0,0.0,0.0,0.0,0.0,0.0,3.9043,0.0,4.3066,4.4203,4.4654,4.4422,4.4284,4.4119,4.3903,4.4352,4.471,4.5095,4.5095,4.5333,4.57,4.57,4.5773,4.5883,4.5883,4.5883,4.5883,4.5883,4.5883,4.5883,3.5755,3.6021,3.6622,3.8515,4.0008,4.1766,4.4259,4.5766,4.7256,4.9019,4.9074,4.8909,4.8909,4.9129,0.0,4.8341,4.8286,4.8286,4.8286,4.8286,4.8286,4.8286,4.8632,4.8557,4.8057,0.0,0.0,4.6838,4.5705,4.3965,4.1582,4.1406,4.1328,4.1348,4.1777,4.2422,4.3203,4.3633,4.3965,4.4219,4.4512,4.4883,4.5254,4.5098,4.5117,4.5273,4.5273,4.5273,4.5351,4.5937,4.5957,4.5762,4.5879,4.5566,4.5058,4.459,4.4531,4.4766,4.5351,4.5391,4.5273,4.5273,4.5273,4.5156,4.4726,4.4277,4.3965,4.3965,4.3828,4.3711,4.3711,4.3496,4.3125,4.2479,4.207,4.1074,3.9004,0.0,0.0,0.0,0.0,0.0,0.0,3.3398,0.0,0.0,0.0,0.0,0.0,0.0,0.0,3.7578,4.0137,0.0,4.3789,4.4744,4.496,4.446,4.4275,4.431,4.4545,4.4801,4.5132,4.5517,4.5517,4.5663,4.5883,4.5883,4.5883,4.5883,4.5883,4.5883,4.5883,4.5883,4.5883,4.5883,3.7307,3.8053,3.9576,0.0,4.4817,0.0,4.7772,4.8187,4.8432,4.8818,4.8891,4.8909,4.8873,4.8891,4.8744,4.8322,0.0,0.0,0.0,4.8286,4.8286,4.8286,4.8385,4.8017,4.7227,4.8182,4.8102,4.6804,4.6161,4.5391,4.457,4.4101,4.3867,4.3867,4.4297,4.4473,4.4473,4.4863,4.4996,4.5035,4.5035,4.5332,4.5664,4.5273,4.5371,4.5766,4.5742,4.5762,4.5879,4.6699,4.6928,4.687,4.6523,4.6933,4.7344,4.6137,4.5449,4.5332,4.6172,4.6074,4.5781,4.5801,4.5824,4.5644,4.5176,4.4766,4.4473,4.4414,4.4043,4.375,4.3711,4.3711,4.3418,4.2479,4.2012,4.0801,3.8167,0.0,0.0,0.0,0.0,0.0,0.0,3.5756,3.6543,0.0,0.0,0.0,0.0,0.0,3.7715,3.9238,4.1836,4.3828,4.5098,4.5503,4.5444,4.4996,4.4427,4.4563,4.5297,4.5333,4.5535,4.5883,4.5883,4.5883,4.5883,4.5883,4.5883,4.5883,4.5883,4.5883,4.5883,4.5883,4.5883,4.5883,0.0,0.0,4.0687,4.0147,4.2758,4.517,4.5672,4.7207,4.8322,4.8414,4.8708,4.8799,4.8469,4.8726,4.8744,4.8322,4.8286,4.8286,4.8286,4.8286,4.8286,4.8286,4.9095,4.9143,4.8249,4.9301,4.9156,4.7838,4.7391,4.6855,4.6328,4.5898,4.5508,4.5215,4.5312,4.5195,4.484,4.4938,4.5215,4.5527,4.5527,4.5781,4.6152,4.6035,4.6074,4.6191,4.6523,4.6641,4.6719,4.7246,4.7422,4.7402,4.7305,4.7422,4.7402,4.6426,4.6308,4.6557,4.7129,4.6953,4.6719,4.7051,4.6875,4.6445,4.5703,4.5449,4.5195,4.4531,4.4316,4.4121,4.3769,4.3711,4.332,4.2129,4.1308,3.9922,3.7324,3.6328,0.0,0.0,3.5215,3.5566,3.5566,3.6523,3.7109,0.0,0.0,0.0,0.0,3.9922,4.0469,4.0215,4.3047,4.5019,4.5996,4.6391,4.6311,4.5784,4.526,4.5113,4.5315,4.5608,4.5792,4.5883,4.5883,4.5883,4.5883,4.5883,4.5883,4.5883,4.5883,4.5883,4.5883,4.5883,4.5883,4.5883,3.7928,4.0685,4.3035,4.2996,4.5105,4.6773,4.6773,4.7956,4.8836,4.8836,4.9038,4.9093,4.8873,4.9038,4.9019,4.8616,4.8396,4.8286,4.8286,4.8286,4.8286,4.8286,4.8909,4.8907,4.8249,4.9061,4.918,4.8496,4.8066,4.7754,4.75,4.709,4.6758,4.6587,4.6587,4.6426,4.6191,4.6191,4.6211,4.6269,4.6465,4.6445,4.6348,4.6738,4.6758,4.666,4.7285,4.7383,4.7324,4.7949,4.8027,4.7871,4.7871,4.8008,4.8073,4.7363,4.7187,4.7285,4.7519,4.7402,4.7285,4.7519,4.7402,4.7109,4.666,4.625,4.584,4.5371,4.4805,4.4316,4.4062,4.3691,4.293,4.1465,4.0488,3.8945,3.6152,3.5742,0.0,3.5078,3.6133,3.7051,3.7441,3.8437,3.8906,3.8516,0.0,0.0,4.0371,4.2226,4.2871,4.2012,4.4336,4.6016,4.6875,4.6664,4.6497,4.6371,4.5649,4.5407,4.5572,4.5792,4.5883,4.5883,4.5883,4.5883,4.5883,4.5883,4.5883,4.5883,4.5883,4.5883,4.5883,4.5883,4.5883,4.5883,4.0685,4.3355,4.5792,4.7591,4.8508,4.9001,4.9001,4.9294,4.9478,4.9423,4.9514,4.9551,4.9423,4.9514,4.9404,4.8946,4.8679,4.844,4.8286,4.8385,4.8434,4.8434,4.8643,4.8562,4.8151,4.8586,4.8877,4.8913,4.8476,4.8301,4.8301,4.7949,4.7779,4.7676,4.7676,4.7637,4.7578,4.7578,4.7363,4.7051,4.7441,4.7148,4.6582,4.7305,4.7344,4.7129,4.793,4.7969,4.7793,4.864,4.8659,4.8301,4.8301,4.8555,4.8835,4.8418,4.8047,4.7818,4.7818,4.7818,4.7754,4.7695,4.7715,4.7715,4.7519,4.7012,4.6543,4.6348,4.5449,4.4648,4.4512,4.3769,4.2637,4.0976,3.9746,3.8047,3.5293,0.0,3.5605,3.5664,3.7305,3.8769,3.9707,4.0684,4.1074,4.0605,4.1387,4.2012,0.0,4.4082,4.4844,4.4219,4.5683,4.6875,4.7656,4.6784,4.6447,4.6806,4.5853,4.5572,4.5883,4.5883,4.5883,4.5883,4.5883,4.5883,4.5883,4.5883,4.5883,4.5883,4.5883,4.5883,4.5883,4.5883,4.5883,4.5883,3.8836,4.379,4.7756,4.6293,4.788,4.9404,4.9404,4.9459,4.9386,4.9056,4.9606,4.9771,4.9074,4.9624,4.9735,4.8983,4.9236,4.9151,4.8354,4.8731,4.8978,4.8978,4.9856,5.0115,4.9694,4.9449,4.9204,4.8913,4.8835,4.8796,4.8796,4.8737,4.8503,4.8105,4.8105,4.791,4.7578,4.7578,4.7539,4.748,4.7558,4.75,4.7402,4.7519,4.7539,4.7539,4.8027,4.8164,4.8183,4.8737,4.8855,4.8796,4.8796,4.8855,4.8894,4.8815,4.8757,4.8698,4.8698,4.8698,4.862,4.8203,4.8379,4.8424,4.7285,4.748,4.7598,4.6523,4.6152,4.5781,4.5058,4.4199,4.3164,4.1816,3.9648,3.7543,3.6035,0.0,3.6601,3.6953,3.918,4.1152,4.2363,4.2012,4.2266,4.3594,4.2851,4.2928,4.4392,4.5195,4.584,4.6406,4.7051,4.7617,4.8105,4.7512,4.7231,4.7307,4.6261,4.5828,4.5883,4.5883,4.5883,4.5883,4.5883,4.5883,4.5883,4.5883,4.5883,4.5883,4.5883,4.5883,4.5883,4.5883,4.5883,4.5883,4.1636,4.5473,4.8608,4.7546,4.8744,4.9845,4.9845,5.0028,5.0101,4.9918,5.0211,5.023,4.9624,5.034,5.0512,4.9717,5.0127,5.0041,4.9132,4.9355,4.9538,4.9538,5.0045,5.0156,4.9738,4.9585,4.9316,4.8913,4.8913,4.8913,4.8913,4.8913,4.8796,4.86,4.86,4.8457,4.8307,4.8307,4.8125,4.7949,4.8229,4.8033,4.7637,4.8131,4.8125,4.7969,4.8398,4.86,4.864,4.8835,4.8913,4.8913,4.8913,4.8913,4.8913,4.8913,4.8913,4.8913,4.8913,4.8913,4.8855,4.8613,4.8757,4.8737,4.8105,4.8086,4.8047,4.7441,4.6973,4.6445,4.582,4.4609,4.3359,4.2305,3.957,0.0,0.0,3.7168,3.7598,3.9199,4.1093,4.2715,4.4004,4.3574,4.3633,4.4668,4.3965,4.4141,4.5625,4.6113,4.6738,4.7598,4.8047,4.8405,4.86,4.7799,4.7401,4.7401,4.6353,4.5883,4.5883,4.5883,4.5883,4.5883,4.5883,4.5883,4.5883,4.5883,4.5883,4.5883,4.5883,4.5883,4.5883,4.5883,4.5883,4.5883,4.3639,4.6582,4.9056,4.9056,4.9716,5.0215,5.0215,5.0471,5.0688,5.0596,5.0651,5.0578,5.0123,5.0933,5.1201,5.04,5.0912,5.0886,4.9978,5.0151,5.0127,4.9882,5.0097,5.0058,4.9797,4.9582,4.9355,4.907,4.8952,4.8913,4.8913,4.8913,4.8913,4.8913,4.8913,4.8913,4.8913,4.8913,4.8718,4.8379,4.8776,4.8503,4.7994,4.8659,4.8698,4.8398,4.8776,4.8913,4.8913,4.8913,4.8913,4.8913,4.8913,4.8913,4.8913,4.8913,4.8913,4.8913,4.8913,4.8913,4.8913,4.8913,4.8913,4.8874,4.8776,4.8535,4.832,4.8223,4.7676,4.709,4.668,4.5273,4.3848,4.2871,0.0,0.0,0.0,3.8496,3.8984,4.1074,4.2637,4.4004,4.5215,4.5117,4.5156,4.5586,4.5312,4.5605,4.668,4.7051,4.7578,4.834,4.8718,4.8913,4.8913,4.7894,4.7401,4.7401,4.6353,4.5883,4.5883,4.5883,4.5883,4.5883,4.5883,4.5883,4.5883,4.5883,4.5883,4.5883,4.5883,4.5883,4.5883,4.5883,4.5883,4.5883,4.1468,4.5817,4.9459,4.9459,5.0138,5.067,5.067,5.0706,5.0578,5.0178,5.0486,5.0578,5.0123,5.0933,5.1201,5.04,5.1233,5.147,5.0694,5.1056,5.0861,4.9931,5.0455,5.0733,5.0703,4.9941,4.9512,4.9473,4.9062,4.8913,4.8913,4.8913,4.8913,4.8913,4.8913,4.8913,4.8913,4.8913,4.8894,4.8855,4.8894,4.8855,4.8815,4.8874,4.8894,4.8855,4.8894,4.8913,4.8913,4.8913,4.8913,4.8913,4.8913,4.8913,4.8913,4.8913,4.8913,4.8913,4.8913,4.8913,4.8913,4.8913,4.8913,4.8796,4.834,4.8535,4.8737,4.8281,4.8164,4.7988,4.7558,4.6406,4.5098,4.3828,0.0,0.0,3.9902,4.043,4.1094,4.168,4.3594,4.5234,4.6133,4.6479,4.6914,4.7363,4.7363,4.7558,4.8047,4.8105,4.832,4.8835,4.8894,4.8913,4.8913,4.7894,4.7401,4.7401,4.6353,4.5883,4.5883,4.5883,4.5883,4.5883,4.5883,4.5883,4.5883,4.5883,4.5883,4.5883,4.5883,4.5883,4.5883,4.5883,4.5883,4.5883,4.2692,4.5376,4.7452,4.7401,4.8051,4.8614,4.8614,4.8614,4.905,5.0297,5.0413,5.0141,4.979,5.0903,5.1338,5.051,5.1612,5.2014,5.1157,5.1289,5.1231,5.0861,5.0794,5.0801,5.0801,4.9961,4.9484,4.9484,4.9128,4.8913,4.8913,4.8913,4.8913,4.8913,4.8913,4.8913,4.8913,4.8913,4.8913,4.8913,4.8913,4.8913,4.8913,4.8913,4.8913,4.8913,4.8913,4.8913,4.8913,4.8913,4.8913,4.8913,4.8913,4.8913,4.8913,4.8913,4.8913,4.8913,4.8913,4.8913,4.8913,4.8913,4.8913,4.8855,4.8652,4.8776,4.8855,4.8698,4.8613,4.8476,4.8047,4.7129,4.6289,4.5781,0.0,4.2207,4.2969,4.2656,4.2853,4.4062,4.5391,4.6445,4.7031,4.7246,4.7519,4.793,4.7969,4.8164,4.864,4.8613,4.8737,4.8894,4.8913,4.8729,4.8405,4.7755,4.7243,4.6916,4.6213,4.5883,4.5883,4.5883,4.5883,4.5883,4.5883,4.5883,4.5883,4.5883,4.5883,4.5883,4.5883,4.5883,4.5883,4.5883,4.5883,4.5883,4.1716,4.3638,4.4981,4.4913,4.616,4.7143,4.7143,4.7843,4.8946,5.0498,5.0325,5.0079,4.992,5.0947,5.1366,5.0813,5.1848,5.2195,5.1374,5.1358,5.1377,5.1377,5.1035,5.0859,5.0996,5.0039,4.959,4.9726,4.9187,4.8913,4.8913,4.8913,4.8913,4.8913,4.8913,4.8913,4.8913,4.8913,4.8913,4.8913,4.8913,4.8913,4.8913,4.8913,4.8913,4.8913,4.8913,4.8913,4.8913,4.8913,4.8913,4.8933,4.907,4.9206,4.9324,4.9324,4.9324,4.9324,4.9324,4.9324,4.9246,4.8972,4.9011,4.907,4.8933,4.8913,4.8913,4.8913,4.8913,4.8815,4.8476,4.7812,4.7201,4.6928,4.5153,4.4118,4.5098,4.4687,4.4726,4.5918,4.6816,4.7441,4.7754,4.7891,4.8105,4.8398,4.8418,4.8535,4.8894,4.8913,4.8913,4.8913,4.8913,4.859,4.7914,4.7588,4.7102,4.6588,4.6119,4.5883,4.5883,4.5883,4.5883,4.5883,4.5883,4.5883,4.5883,4.5883,4.5883,4.5883,4.5883,4.5883,4.5883,4.5883,4.5883,4.5883,3.762,4.0184,4.2382,4.2314,4.4732,4.6749,4.6749,4.8941,5.0654,5.0706,5.0376,5.0325,5.0819,5.1005,5.1143,5.1289,5.1794,5.1894,5.1416,5.1377,5.1377,5.1377,5.1035,5.0996,5.1377,5.0128,4.9746,5.0176,4.9343,4.8913,4.8913,4.8913,4.8913,4.8913,4.8913,4.8913,4.8913,4.8913,4.8913,4.8913,4.8913,4.8913,4.8913,4.8913,4.8913,4.8913,4.8913,4.8913,4.8913,4.8913,4.8913,4.8991,4.9394,4.9824,5.0176,5.0176,5.0176,5.0176,5.0176,5.0176,5.0028,4.9128,4.9199,4.9414,4.9011,4.8913,4.8913,4.8913,4.8913,4.8913,4.8913,4.8496,4.793,4.7026,4.6889,4.6641,4.5801,4.6406,4.6889,4.6889,4.7695,4.8223,4.8223,4.8659,4.8913,4.8913,4.8913,4.8913,4.8913,4.8913,4.8913,4.8913,4.8913,4.8405,4.7401,4.7401,4.7102,4.6588,4.6119,4.5883,4.5883,4.5883,4.5883,4.5883,4.5883,4.5883,4.5883,4.5883,4.5883,4.5883,4.5883,4.5883,4.5883,4.5883,4.5883,4.5883,3.7542,3.9063,4.0055,3.9935,4.0913,4.2208,4.3786,4.4669,4.6368,4.9835,5.0003,5.0086,5.0815,5.1359,5.1562,5.1289,5.2066,5.2207,5.1436,5.1377,5.1377,5.1377,5.1035,5.0996,5.1377,5.0128,4.9746,5.0176,4.9343,4.8913,4.8913,4.8913,4.8913,4.8913,4.8913,4.8913,4.8913,4.8913,4.8913,4.8913,4.8913,4.8913,4.8913,4.8913,4.8913,4.8913,4.8913,4.8913,4.8913,4.8913,4.8913,4.8991,4.9394,4.9824,5.0176,5.0176,5.0176,5.0176,5.0176,5.0391,5.041,4.9551,4.9433,4.9414,4.9011,4.8913,4.8913,4.8913,4.8913,4.8913,4.8913,4.8796,4.8476,4.791,4.7832,4.7637,4.709,4.748,4.7832,4.7832,4.832,4.8718,4.8718,4.8835,4.8913,4.8913,4.8913,4.8913,4.8913,4.8913,4.8913,4.8913,4.8913,4.8405,4.7401,4.7401,4.6962,4.6119,4.5978,4.5883,4.5883,4.5883,4.5883,4.5883,4.5883,4.5883,4.5883,4.5883,4.5883,4.5883,4.5883,4.5883,4.5883,4.5883,4.5883,4.5883,3.6598,3.7409,3.7858,3.7624,3.8648,4.0188,4.2283,4.3491,4.5596,4.964,4.99,5.0028,5.0956,5.1286,5.1419,5.1316,5.1873,5.2051,5.1719,5.1475,5.1377,5.1377,5.1191,5.1172,5.1377,5.0508,5.0156,5.043,4.9551,4.9121,4.9121,4.8991,4.8913,4.8913,4.8913,4.8913,4.8913,4.8913,4.8913,4.8913,4.8913,4.8913,4.8913,4.9109,4.9121,4.9141,4.9363,4.9422,4.9422,4.9422,4.9539,4.9668,4.9941,5.0332,5.0664,5.0664,5.0664,5.0664,5.0664,5.0859,5.0879,5.0215,5.0039,4.9863,4.9258,4.9304,4.9324,4.8972,4.905,4.9121,4.9121,4.9121,4.9043,4.8769,4.873,4.8574,4.819,4.8301,4.8476,4.8476,4.8737,4.8913,4.8913,4.8913,4.8913,4.8913,4.8913,4.8913,4.8913,4.8913,4.8913,4.8913,4.8913,4.8405,4.7401,4.7401,4.6887,4.5883,4.5883,4.5883,4.5883,4.5883,4.5883,4.5883,4.5883,4.5883,4.5883,4.5883,4.5883,4.5883,4.5883,4.5883,4.5883,4.5883,4.5883,4.5883,3.5204,3.5685,3.5993,3.5939,3.7836,4.0175,4.2211,4.4573,4.7108,4.9897,4.9984,5.0159,5.1259,5.1061,5.1036,5.1455,5.1436,5.166,5.2051,5.1738,5.1455,5.1397,5.1416,5.1416,5.1377,5.1016,5.0801,5.0801,4.9941,4.9504,4.9523,4.9082,4.8933,4.8952,4.8913,4.8913,4.8913,4.8913,4.8913,4.8913,4.8952,4.8972,4.9011,4.9414,4.9543,4.9648,5.0039,5.0176,5.0176,5.0176,5.0449,5.0801,5.0801,5.1094,5.1377,5.1377,5.1377,5.1377,5.1377,5.1377,5.1299,5.0957,5.0859,5.0644,4.9785,4.9902,4.9941,4.9187,4.9297,4.9543,4.9543,4.9543,4.9523,4.9484,4.9484,4.9375,4.8972,4.8913,4.8913,4.8913,4.8913,4.8913,4.8913,4.8933,4.8972,4.8972,4.8972,4.8972,4.8972,4.8933,4.8913,4.8913,4.8913,4.8405,4.7401,4.7401,4.6887,4.5883,4.5883,4.5883,4.5883,4.5883,4.5883,4.5883,4.5883,4.5883,4.5883,4.5883,4.5883,4.5883,4.5883,4.5883,4.5883,4.5883,4.5883,4.5883,3.5685,3.5792,3.6219,3.7861,3.8643,4.0234,4.3855,4.4903,4.634,4.9416,5.0097,5.072,5.1662,5.2053,5.2206,5.1973,5.1933,5.1973,5.207,5.2305,5.2129,5.1416,5.1758,5.1777,5.1397,5.1016,5.0801,5.0801,4.9941,4.9707,5.0019,4.9285,4.9043,4.9375,4.907,4.8913,4.8913,4.8913,4.8913,4.8933,4.9238,4.9375,4.9433,4.9883,5.0039,5.0039,5.0137,5.0176,5.0176,5.0176,5.0449,5.0801,5.0801,5.1094,5.1377,5.1377,5.1377,5.1377,5.1377,5.1377,5.1358,5.126,5.124,5.1074,5.0234,5.0117,5.0137,4.9988,4.9961,5.0039,5.0039,5.0039,4.9922,4.959,4.9484,4.9375,4.8972,4.8913,4.8913,4.8913,4.8913,4.8913,4.8913,4.918,4.9375,4.9375,4.9375,4.9375,4.9375,4.9043,4.8913,4.8913,4.8913,4.8405,4.7401,4.7401,4.6887,4.5883,4.5883,4.5883,4.5883,4.5883,4.5883,4.5883,4.5883,4.5883,4.5883,4.5883,4.5883,4.5883,4.5883,4.5883,4.5883,4.5883,4.5883,4.5883,3.6126,3.6259,3.6897,3.9078,3.9407,4.0762,4.47,4.5478,4.6655,4.9443,5.0254,5.0873,5.1597,5.2087,5.2402,5.2383,5.2012,5.1933,5.2363,5.2207,5.1992,5.1758,5.1758,5.166,5.1397,5.1162,5.1094,5.1094,5.0449,5.0254,5.0449,4.959,4.9297,4.9465,4.9062,4.8913,4.8913,4.8913,4.9031,4.9199,4.9433,4.9648,4.9883,5.0312,5.0469,5.0508,5.0703,5.0781,5.0781,5.0781,5.0918,5.1094,5.1094,5.1201,5.1377,5.1377,5.1377,5.1377,5.1377,5.1377,5.1377,5.1377,5.1377,5.1221,5.0625,5.0625,5.0664,5.0273,5.0332,5.0469,5.0469,5.0469,5.041,5.0176,5.0137,4.9922,4.9258,4.918,4.9101,4.8933,4.8913,4.8991,4.916,4.957,4.9844,4.9844,4.9844,4.9746,4.9484,4.9297,4.9082,4.8913,4.8913,4.8405,4.7401,4.7401,4.6887,4.5883,4.5883,4.5883,4.5883,4.5883,4.5883,4.5883,4.5883,4.5883,4.5883,4.5883,4.5883,4.5883,4.5883,4.5883,4.5883,4.5883,4.5883,4.5883,3.6965,3.7305,3.821,4.0717,4.111,4.2217,4.5771,4.6632,4.7648,4.9773,5.0479,5.0987,5.1348,5.1816,5.2226,5.2578,5.2012,5.1914,5.2558,5.2012,5.1738,5.1973,5.1699,5.1455,5.1377,5.1377,5.1377,5.1377,5.0937,5.0742,5.0781,4.9844,4.9406,4.9465,4.9062,4.8913,4.8913,4.8913,4.9082,4.9433,4.957,4.9844,5.0234,5.0723,5.0918,5.0957,5.126,5.1377,5.1377,5.1377,5.1377,5.1377,5.1377,5.1377,5.1377,5.1377,5.1377,5.1377,5.1377,5.1377,5.1377,5.1377,5.1377,5.1299,5.0996,5.1172,5.123,5.0527,5.0664,5.0918,5.0918,5.0918,5.0898,5.082,5.0801,5.0527,4.9746,4.9648,4.9492,4.9167,4.907,4.916,4.959,4.9961,5.0215,5.0273,5.0293,5.0098,4.9668,4.9523,4.9316,4.8913,4.8913,4.8451,4.7541,4.7448,4.6934,4.6025,4.593,4.5883,4.5883,4.5883,4.5883,4.5883,4.5883,4.5883,4.5883,4.5883,4.5883,4.5883,4.5883,4.5883,4.5883,4.5883,4.5883,4.5883,3.8952,3.9531,4.0878,4.5088,4.5503,4.6132,4.8727,4.8928,4.9182,5.0421,5.0943,5.1266,5.1387,5.1816,5.2109,5.2168,5.2402,5.2441,5.2187,5.2402,5.2226,5.1494,5.1816,5.1816,5.1397,5.1377,5.1377,5.1377,5.0644,5.0449,5.0781,4.9531,4.916,4.9465,4.9062,4.8913,4.8913,4.8913,4.8933,4.907,4.9785,5.0117,5.0273,5.1055,5.1299,5.1348,5.1358,5.1377,5.1377,5.1377,5.1377,5.1377,5.1377,5.1377,5.1377,5.1377,5.1377,5.1377,5.1377,5.1377,5.1377,5.1377,5.1377,5.1358,5.1319,5.1338,5.1358,5.1289,5.126,5.1299,5.1299,5.1299,5.1182,5.0859,5.0801,5.0644,5.0156,5.0098,5.0078,5.0,4.9668,4.9609,5.0039,5.0137,5.0332,5.0683,5.0723,5.0527,5.0117,4.9726,4.9316,4.8913,4.8913,4.8636,4.7987,4.7569,4.7102,4.6494,4.6072,4.5883,4.5883,4.5883,4.5883,4.5883,4.5883,4.5883,4.5883,4.5883,4.5883,4.5883,4.5883,4.5883,4.5883,4.5883,4.5883,4.5883,4.1263,4.1989,4.3069,4.6172,4.6785,4.7506,4.9416,5.0039,5.0443,5.0685,5.1064,5.1367,5.1397,5.1601,5.1816,5.2051,5.2031,5.2012,5.207,5.2031,5.1933,5.1797,5.1738,5.1621,5.1397,5.1377,5.1377,5.1377,5.1055,5.0976,5.1133,5.0078,4.9824,5.0195,4.9324,4.905,4.9219,4.9011,4.905,4.9297,4.9922,5.0312,5.0586,5.1211,5.1377,5.1416,5.1719,5.1797,5.1797,5.1797,5.1797,5.1758,5.1455,5.1377,5.1377,5.1377,5.1377,5.1377,5.1377,5.1377,5.1377,5.1377,5.1377,5.1455,5.1738,5.1797,5.1719,5.1436,5.1621,5.1719,5.1436,5.1377,5.1319,5.1143,5.1152,5.1016,5.0586,5.0527,5.0449,5.0215,5.0215,5.0312,5.0508,5.0742,5.0957,5.1133,5.0937,5.0625,5.0195,4.9766,4.9316,4.8913,4.8913,4.8636,4.8099,4.7634,4.7102,4.6588,4.6119,4.5883,4.5883,4.5883,4.5883,4.5883,4.5883,4.5883,4.5883,4.5883,4.5883,4.5883,4.5883,4.5883,4.5883,4.5883,4.5883,4.5883]},{"header":{"parameterUnit":"m.s-1","parameterCategory":1,"la1":30.6,"la2":28.766,"lo1":-90.7593,"lo2":-88.6598,"dy":0.0162,"dx":0.0183,"nx":116,"ny":114,"refTime":"2023-04-09T00:00:00:Z","depth":0,"parameterNumber":3,"parameterNumberName":"V-component_of_WINDS"},"data":[0.0,0.0,0.0,0.0,0.0,0.0,0.0,0.0,0.0,0.0,0.0,0.0,0.0,0.0,0.0,0.0,0.0,0.0,0.0,0.0,0.0,0.0,0.0,0.0,0.0,0.0,0.0,0.0,0.0,0.0,0.0,0.0,0.0,0.0,0.0,0.0,0.0,0.0,0.0,0.0,0.0,0.0,0.0,0.0,0.0,0.0,0.0,0.0,0.0,0.0,0.0,0.0,0.0,0.0,0.0,0.0,0.0,0.0,0.0,0.0,0.0,0.0,0.0,0.0,0.0,0.0,0.0,0.0,0.0,0.0,0.0,0.0,0.0,0.0,0.0,0.0,0.0,0.0,0.0,0.0,0.0,0.0,0.0,0.0,0.0,0.0,0.0,0.0,0.0,0.0,0.0,0.0,0.0,0.0,0.0,0.0,0.0,0.0,0.0,0.0,0.0,0.0,0.0,0.0,0.0,0.0,0.0,0.0,0.0,0.0,0.0,0.0,0.0,0.0,0.0,0.0,0.0,0.0,0.0,0.0,0.0,0.0,0.0,0.0,0.0,0.0,0.0,0.0,0.0,0.0,0.0,0.0,0.0,0.0,0.0,0.0,0.0,0.0,0.0,0.0,0.0,0.0,0.0,0.0,0.0,0.0,0.0,0.0,0.0,0.0,0.0,0.0,0.0,0.0,0.0,0.0,0.0,0.0,0.0,0.0,0.0,0.0,0.0,0.0,0.0,0.0,0.0,0.0,0.0,0.0,0.0,0.0,0.0,0.0,0.0,0.0,0.0,0.0,0.0,0.0,0.0,0.0,0.0,0.0,0.0,0.0,0.0,0.0,0.0,0.0,0.0,0.0,0.0,0.0,0.0,0.0,0.0,0.0,0.0,0.0,0.0,0.0,0.0,0.0,0.0,0.0,0.0,0.0,0.0,0.0,0.0,0.0,0.0,0.0,0.0,0.0,0.0,0.0,0.0,0.0,0.0,0.0,0.0,0.0,0.0,0.0,0.0,0.0,0.0,0.0,0.0,0.0,0.0,0.0,0.0,0.0,0.0,0.0,0.0,0.0,0.0,0.0,0.0,0.0,0.0,0.0,0.0,0.0,0.0,0.0,0.0,0.0,0.0,0.0,0.0,0.0,0.0,0.0,0.0,0.0,0.0,0.0,0.0,0.0,0.0,0.0,0.0,0.0,0.0,0.0,0.0,0.0,0.0,0.0,0.0,0.0,0.0,0.0,0.0,0.0,0.0,0.0,0.0,0.0,0.0,0.0,0.0,0.0,0.0,0.0,0.0,0.0,0.0,0.0,0.0,0.0,0.0,0.0,0.0,0.0,0.0,0.0,0.0,0.0,0.0,0.0,0.0,0.0,0.0,0.0,0.0,0.0,0.0,0.0,0.0,0.0,0.0,0.0,0.0,0.0,0.0,0.0,0.0,0.0,0.0,0.0,0.0,0.0,0.0,0.0,0.0,0.0,0.0,0.0,0.0,0.0,0.0,0.0,0.0,0.0,0.0,0.0,0.0,0.0,0.0,0.0,0.0,0.0,0.0,0.0,0.0,0.0,0.0,0.0,0.0,0.0,0.0,0.0,0.0,0.0,0.0,0.0,0.0,0.0,0.0,0.0,0.0,0.0,0.0,0.0,0.0,0.0,0.0,0.0,0.0,0.0,0.0,0.0,0.0,0.0,0.0,0.0,0.0,0.0,0.0,0.0,0.0,0.0,0.0,0.0,0.0,0.0,0.0,0.0,0.0,0.0,0.0,0.0,0.0,0.0,0.0,0.0,0.0,0.0,0.0,0.0,0.0,0.0,0.0,0.0,0.0,0.0,0.0,0.0,0.0,0.0,0.0,0.0,0.0,0.0,0.0,0.0,0.0,0.0,0.0,0.0,0.0,0.0,0.0,0.0,0.0,0.0,0.0,0.0,0.0,0.0,0.0,0.0,0.0,0.0,0.0,0.0,0.0,0.0,0.0,0.0,0.0,0.0,0.0,0.0,0.0,0.0,0.0,0.0,0.0,0.0,0.0,0.0,0.0,0.0,0.0,0.0,0.0,0.0,0.0,0.0,0.0,0.0,0.0,0.0,0.0,0.0,0.0,0.0,0.0,0.0,0.0,0.0,0.0,0.0,0.0,0.0,0.0,0.0,0.0,0.0,0.0,0.0,0.0,0.0,0.0,0.0,0.0,0.0,0.0,0.0,0.0,0.0,0.0,0.0,0.0,0.0,0.0,0.0,0.0,0.0,0.0,0.0,0.0,0.0,0.0,0.0,0.0,0.0,0.0,0.0,0.0,0.0,0.0,0.0,0.0,0.0,0.0,0.0,0.0,0.0,0.0,0.0,0.0,0.0,0.0,0.0,0.0,0.0,0.0,0.0,0.0,0.0,0.0,0.0,0.0,0.0,0.0,0.0,0.0,0.0,0.0,0.0,0.0,0.0,0.0,0.0,0.0,0.0,0.0,0.0,0.0,0.0,0.0,0.0,0.0,0.0,0.0,0.0,0.0,0.0,0.0,0.0,0.0,0.0,0.0,0.0,0.0,0.0,0.0,0.0,0.0,0.0,0.0,0.0,0.0,0.0,0.0,0.0,0.0,0.0,0.0,0.0,0.0,0.0,0.0,0.0,0.0,0.0,0.0,0.0,0.0,0.0,0.0,0.0,0.0,0.0,0.0,0.0,0.0,0.0,0.0,0.0,0.0,0.0,0.0,0.0,0.0,0.0,0.0,0.0,0.0,0.0,0.0,0.0,0.0,0.0,0.0,0.0,0.0,0.0,0.0,0.0,0.0,0.0,0.0,0.0,0.0,0.0,0.0,0.0,0.0,0.0,0.0,0.0,0.0,0.0,0.0,0.0,0.0,0.0,0.0,0.0,0.0,0.0,0.0,0.0,0.0,0.0,0.0,0.0,0.0,0.0,0.0,0.0,0.0,0.0,0.0,0.0,0.0,0.0,0.0,0.0,0.0,0.0,0.0,0.0,0.0,0.0,0.0,0.0,0.0,0.0,0.0,0.0,0.0,0.0,0.0,0.0,0.0,0.0,0.0,0.0,0.0,0.0,0.0,0.0,0.0,0.0,0.0,0.0,0.0,0.0,0.0,0.0,0.0,0.0,0.0,0.0,0.0,0.0,0.0,0.0,0.0,0.0,0.0,0.0,0.0,0.0,0.0,0.0,0.0,0.0,0.0,0.0,0.0,0.0,0.0,0.0,0.0,0.0,0.0,0.0,0.0,0.0,0.0,0.0,0.0,0.0,0.0,0.0,0.0,0.0,0.0,0.0,0.0,0.0,0.0,0.0,0.0,0.0,0.0,0.0,0.0,0.0,0.0,0.0,0.0,0.0,0.0,0.0,0.0,0.0,0.0,0.0,0.0,0.0,0.0,0.0,0.0,0.0,0.0,0.0,0.0,0.0,0.0,0.0,0.0,0.0,0.0,0.0,0.0,0.0,0.0,0.0,0.0,0.0,0.0,0.0,0.0,0.0,0.0,0.0,0.0,0.0,0.0,0.0,0.0,0.0,0.0,0.0,0.0,0.0,0.0,0.0,0.0,0.0,0.0,0.0,0.0,0.0,0.0,0.0,0.0,0.0,0.0,0.0,0.0,0.0,0.0,0.0,0.0,0.0,0.0,0.0,0.0,0.0,0.0,0.0,0.0,0.0,0.0,0.0,0.0,0.0,0.0,0.0,0.0,0.0,0.0,0.0,0.0,0.0,0.0,0.0,0.0,0.0,0.0,0.0,0.0,0.0,0.0,0.0,0.0,0.0,0.0,0.0,0.0,0.0,0.0,0.0,0.0,0.0,0.0,0.0,0.0,0.0,0.0,0.0,0.0,0.0,0.0,0.0,0.0,0.0,0.0,0.0,0.0,0.0,0.0,0.0,0.0,0.0,0.0,0.0,0.0,0.0,0.0,0.0,0.0,0.0,0.0,0.0,0.0,0.0,0.0,0.0,0.0,0.0,0.0,0.0,0.0,0.0,0.0,0.0,0.0,0.0,0.0,0.0,0.0,0.0,0.0,0.0,0.0,0.0,0.0,0.0,0.0,0.0,0.0,0.0,0.0,0.0,0.0,0.0,0.0,0.0,0.0,0.0,0.0,0.0,0.0,0.0,0.0,0.0,0.0,0.0,0.0,0.0,0.0,0.0,0.0,0.0,0.0,0.0,0.0,0.0,0.0,0.0,0.0,0.0,0.0,0.0,0.0,0.0,0.0,0.0,0.0,0.0,0.0,0.0,0.0,0.0,0.0,0.0,0.0,0.0,0.0,0.0,0.0,0.0,0.0,0.0,0.0,0.0,0.0,0.0,0.0,0.0,0.0,0.0,0.0,0.0,0.0,0.0,0.0,0.0,0.0,0.0,0.0,0.0,0.0,0.0,0.0,0.0,0.0,0.0,0.0,0.0,0.0,0.0,0.0,0.0,0.0,0.0,0.0,0.0,0.0,0.0,0.0,0.0,0.0,0.0,0.0,0.0,0.0,0.0,0.0,0.0,0.0,0.0,0.0,0.0,0.0,0.0,0.0,0.0,0.0,0.0,0.0,0.0,0.0,0.0,0.0,0.0,0.0,0.0,0.0,0.0,0.0,0.0,0.0,0.0,0.0,0.0,0.0,0.0,0.0,0.0,0.0,0.0,0.0,0.0,0.0,0.0,0.0,0.0,0.0,0.0,0.0,0.0,0.0,0.0,0.0,0.0,0.0,0.0,0.0,0.0,0.0,0.0,0.0,0.0,0.0,0.0,0.0,0.0,0.0,0.0,0.0,0.0,0.0,0.0,0.0,0.0,0.0,0.0,0.0,0.0,0.0,0.0,0.0,0.0,0.0,0.0,0.0,0.0,0.0,0.0,0.0,0.0,0.0,0.0,0.0,0.0,0.0,0.0,0.0,0.0,0.0,0.0,0.0,0.0,0.0,0.0,0.0,0.0,0.0,0.0,0.0,0.0,0.0,0.0,0.0,0.0,0.0,0.0,0.0,0.0,0.0,0.0,0.0,0.0,0.0,0.0,0.0,0.0,0.0,0.0,0.0,0.0,0.0,0.0,0.0,0.0,0.0,0.0,0.0,0.0,0.0,0.0,0.0,0.0,0.0,0.0,0.0,0.0,0.0,0.0,0.0,0.0,0.0,0.0,0.0,0.0,0.0,0.0,0.0,0.0,0.0,0.0,0.0,0.0,0.0,0.0,0.0,0.0,0.0,0.0,0.0,0.0,0.0,0.0,0.0,0.0,0.0,0.0,0.0,0.0,0.0,0.0,0.0,0.0,0.0,0.0,0.0,0.0,0.0,0.0,0.0,0.0,0.0,0.0,0.0,0.0,0.0,0.0,0.0,0.0,0.0,0.0,0.0,0.0,0.0,0.0,0.0,0.0,0.0,0.0,0.0,0.0,0.0,0.0,0.0,0.0,0.0,0.0,0.0,0.0,0.0,0.0,0.0,0.0,0.0,0.0,0.0,0.0,0.0,0.0,0.0,0.0,0.0,0.0,0.0,0.0,0.0,0.0,0.0,0.0,0.0,0.0,0.0,0.0,0.0,0.0,0.0,0.0,0.0,0.0,0.0,0.0,0.0,0.0,0.0,0.0,0.0,0.0,0.0,0.0,0.0,0.0,0.0,0.0,0.0,0.0,0.0,0.0,0.0,0.0,0.0,0.0,0.0,0.0,0.0,0.0,0.0,0.0,0.0,0.0,0.0,0.0,0.0,0.0,0.0,0.0,0.0,0.0,0.0,0.0,0.0,0.0,0.0,0.0,0.0,0.0,0.0,0.0,0.0,0.0,0.0,0.0,0.0,0.0,0.0,0.0,0.0,0.0,0.0,0.0,0.0,0.0,0.0,0.0,0.0,0.0,0.0,0.0,0.0,0.0,0.0,0.0,0.0,0.0,0.0,0.0,0.0,0.0,0.0,0.0,0.0,0.0,0.0,0.0,0.0,0.0,0.0,0.0,0.0,0.0,0.0,0.0,0.0,0.0,0.0,0.0,0.0,0.0,0.0,0.0,0.0,0.0,0.0,0.0,0.0,0.0,0.0,0.0,0.0,0.0,0.0,0.0,0.0,0.0,0.0,0.0,0.0,0.0,0.0,0.0,0.0,0.0,0.0,0.0,0.0,0.0,4.1592,0.0,0.0,0.0,0.0,0.0,0.0,0.0,0.0,0.0,0.0,0.0,0.0,0.0,0.0,0.0,0.0,0.0,0.0,0.0,0.0,0.0,0.0,0.0,0.0,0.0,0.0,0.0,0.0,0.0,0.0,0.0,0.0,0.0,0.0,0.0,0.0,0.0,0.0,4.2805,4.2344,4.2247,4.2559,4.3761,4.3223,4.1369,0.0,0.0,0.0,0.0,0.0,0.0,0.0,0.0,0.0,0.0,0.0,0.0,0.0,0.0,0.0,0.0,0.0,0.0,0.0,0.0,0.0,0.0,0.0,0.0,0.0,0.0,0.0,0.0,0.0,0.0,0.0,0.0,0.0,0.0,0.0,0.0,0.0,0.0,0.0,0.0,0.0,0.0,0.0,0.0,0.0,0.0,0.0,0.0,0.0,0.0,0.0,0.0,0.0,0.0,0.0,0.0,0.0,0.0,0.0,0.0,0.0,0.0,0.0,0.0,0.0,0.0,0.0,0.0,0.0,0.0,0.0,4.3272,0.0,0.0,0.0,0.0,0.0,0.0,0.0,0.0,0.0,0.0,0.0,0.0,0.0,0.0,0.0,0.0,0.0,0.0,0.0,0.0,0.0,0.0,0.0,3.8213,3.8557,3.9433,3.9358,3.9183,0.0,0.0,0.0,0.0,0.0,0.0,4.1148,4.1965,4.2749,4.3506,4.3191,4.3386,4.4117,4.5878,4.5138,4.2432,4.3069,0.0,0.0,0.0,0.0,0.0,0.0,0.0,0.0,0.0,0.0,0.0,0.0,0.0,0.0,0.0,0.0,0.0,0.0,0.0,0.0,0.0,0.0,0.0,0.0,0.0,0.0,0.0,0.0,0.0,0.0,0.0,0.0,0.0,0.0,0.0,0.0,0.0,0.0,0.0,0.0,0.0,0.0,0.0,0.0,0.0,0.0,0.0,0.0,0.0,0.0,0.0,0.0,0.0,0.0,0.0,0.0,0.0,0.0,0.0,0.0,0.0,0.0,0.0,5.3257,5.425,5.6122,5.5154,5.4777,5.4578,5.0982,4.8104,4.5832,4.4626,0.0,0.0,0.0,0.0,0.0,0.0,0.0,0.0,0.0,0.0,0.0,0.0,0.0,0.0,0.0,0.0,0.0,0.0,0.0,0.0,0.0,3.8213,3.8557,3.9433,3.8826,3.8351,3.8315,0.0,0.0,0.0,0.0,0.0,4.1401,4.2253,4.2934,4.3506,4.5434,4.6779,4.7575,4.9917,5.0352,4.9074,4.5704,4.5012,4.6193,0.0,0.0,0.0,0.0,0.0,0.0,0.0,0.0,0.0,0.0,0.0,0.0,0.0,0.0,0.0,0.0,0.0,0.0,0.0,0.0,0.0,0.0,0.0,0.0,0.0,0.0,0.0,0.0,0.0,0.0,0.0,0.0,0.0,0.0,0.0,0.0,0.0,0.0,0.0,0.0,0.0,4.158,4.3394,0.0,0.0,0.0,0.0,0.0,0.0,0.0,0.0,0.0,0.0,0.0,0.0,0.0,5.2808,5.4116,5.7431,5.8998,5.8871,6.0338,6.1073,6.113,6.041,6.0181,6.0317,5.9738,0.0,4.9593,4.828,0.0,0.0,0.0,0.0,0.0,0.0,0.0,0.0,0.0,0.0,0.0,0.0,0.0,0.0,0.0,0.0,0.0,0.0,0.0,0.0,0.0,3.9504,4.061,4.19,4.2974,4.2727,4.0684,4.0551,0.0,0.0,0.0,3.9524,4.1468,4.1831,4.3151,4.5507,4.8845,5.0668,5.1035,5.3025,5.348,5.2605,5.0837,4.9132,4.7548,4.5562,0.0,0.0,0.0,0.0,0.0,0.0,0.0,0.0,0.0,0.0,0.0,0.0,0.0,0.0,0.0,0.0,0.0,0.0,0.0,0.0,0.0,0.0,0.0,0.0,0.0,0.0,0.0,0.0,0.0,0.0,0.0,0.0,0.0,0.0,0.0,0.0,0.0,0.0,0.0,4.3565,4.5279,4.379,4.6065,4.6552,0.0,0.0,0.0,0.0,0.0,0.0,0.0,0.0,0.0,5.4311,5.6151,5.7787,5.9302,6.1573,6.3094,6.3782,6.458,6.5273,6.5766,6.5092,6.5094,6.5724,6.529,6.2866,5.8895,5.4698,5.1496,4.906,0.0,0.0,0.0,0.0,4.7364,4.8736,0.0,0.0,0.0,0.0,0.0,0.0,0.0,0.0,0.0,0.0,0.0,0.0,3.968,4.1457,4.3252,4.5158,4.6648,4.6314,4.3633,4.2741,4.1632,4.0094,3.8925,3.9383,4.1668,4.2806,4.511,4.8654,5.2517,5.4645,5.5086,5.6675,5.7116,5.6528,5.6345,5.4063,5.0214,4.7577,4.6003,4.5232,0.0,0.0,0.0,0.0,0.0,0.0,0.0,0.0,0.0,0.0,0.0,0.0,0.0,0.0,0.0,0.0,0.0,0.0,0.0,0.0,0.0,0.0,0.0,0.0,0.0,0.0,0.0,0.0,0.0,0.0,0.0,0.0,0.0,0.0,0.0,0.0,0.0,4.6841,4.8609,4.543,4.9384,5.0487,0.0,0.0,0.0,0.0,0.0,0.0,5.3636,5.5581,5.778,6.0385,6.1907,6.3429,6.4918,6.6091,6.7272,6.8516,6.8518,6.9009,6.9895,6.9249,6.9364,7.0086,6.9317,6.8372,6.6831,6.0519,5.6365,5.3788,5.1573,5.0491,5.022,5.0592,5.1575,5.2994,0.0,0.0,0.0,0.0,0.0,0.0,0.0,0.0,0.0,0.0,0.0,3.8038,4.2144,4.4098,4.6123,4.8645,4.7455,4.6495,4.6293,4.1699,3.969,4.1346,3.9658,3.9792,4.2214,4.6336,4.9917,5.2884,5.6161,5.8547,6.0089,6.1692,6.2426,6.2352,6.1594,5.9428,5.6003,5.0498,4.9067,5.0105,4.6168,0.0,0.0,0.0,0.0,0.0,0.0,0.0,0.0,0.0,0.0,0.0,0.0,0.0,0.0,0.0,0.0,0.0,0.0,0.0,0.0,0.0,0.0,0.0,0.0,0.0,0.0,0.0,0.0,0.0,0.0,0.0,0.0,0.0,0.0,0.0,0.0,0.0,0.0,5.0382,5.436,0.0,0.0,0.0,0.0,5.3951,5.4804,5.6916,6.0622,6.1569,6.3666,6.7286,6.8876,7.0398,7.1887,7.2665,7.3071,7.3138,7.2928,7.2962,7.3251,7.2737,7.2676,7.2855,7.2138,7.1364,7.0198,6.4177,6.0512,5.8438,5.624,5.5767,5.6292,5.5597,5.6274,5.7476,0.0,0.0,0.0,0.0,0.0,0.0,0.0,0.0,3.5399,3.6232,3.8317,4.1113,4.4781,4.8143,5.1168,5.369,5.3874,5.2881,5.0703,4.6783,4.4598,4.4699,4.2543,4.3689,4.8706,5.0871,5.3791,5.7502,5.9394,6.0896,6.1949,6.2536,6.3086,6.3613,6.3332,6.2561,6.1153,5.5967,5.2627,5.0535,4.7489,4.5902,0.0,0.0,0.0,0.0,0.0,0.0,0.0,0.0,0.0,0.0,0.0,0.0,0.0,0.0,0.0,0.0,0.0,0.0,0.0,0.0,0.0,0.0,0.0,0.0,0.0,0.0,0.0,0.0,0.0,0.0,0.0,0.0,0.0,0.0,0.0,0.0,0.0,5.6736,6.1632,0.0,5.8323,5.851,5.9117,5.9545,6.1622,6.4255,6.7557,6.9969,7.1755,7.2891,7.4559,7.4923,7.3815,7.4559,7.4661,7.4221,7.3962,7.4222,7.4874,7.3927,7.363,7.3844,7.3599,7.3036,7.2128,6.9692,6.658,6.3091,6.0892,5.9877,5.9674,5.9404,5.9945,6.0825,0.0,0.0,0.0,0.0,0.0,0.0,0.0,0.0,3.5721,3.7173,4.0267,4.3825,4.7794,5.2231,5.5823,5.8084,5.8039,5.6816,5.4263,4.9862,4.7106,4.6533,4.5736,4.7794,5.3106,5.5425,5.8165,6.1348,6.2662,6.3487,6.3898,6.4144,6.4524,6.4897,6.5204,6.5167,6.4677,6.1447,5.7262,5.259,5.0168,4.9167,4.8727,0.0,0.0,0.0,0.0,0.0,0.0,0.0,0.0,0.0,0.0,0.0,0.0,0.0,0.0,0.0,0.0,0.0,0.0,0.0,0.0,0.0,0.0,0.0,0.0,0.0,0.0,0.0,0.0,0.0,0.0,0.0,0.0,0.0,0.0,5.821,6.2752,6.2057,6.7397,6.9388,6.4769,6.5688,6.6707,6.7073,6.917,7.1494,7.3991,7.6162,7.7349,7.74,7.8541,7.8198,7.6252,7.6695,7.654,7.5743,7.5633,7.587,7.6454,7.5667,7.5224,7.5166,7.4897,7.4323,7.3558,7.3002,7.1007,6.8119,6.592,6.458,6.3937,6.3937,6.4241,6.4647,0.0,0.0,0.0,0.0,0.0,0.0,0.0,3.4655,3.6103,3.8663,4.1987,4.6031,5.1117,5.6199,5.9904,6.1554,5.9415,5.7619,5.6747,5.0359,4.6648,4.6724,4.9137,5.1987,5.5125,5.9915,6.3063,6.4413,6.5943,6.647,6.6124,6.6858,6.7025,6.6612,6.7407,6.7333,6.6586,6.6586,6.2952,5.6921,5.4388,5.3361,5.3067,0.0,0.0,0.0,0.0,0.0,0.0,0.0,0.0,0.0,0.0,0.0,0.0,0.0,0.0,0.0,0.0,0.0,0.0,0.0,0.0,0.0,0.0,0.0,0.0,0.0,0.0,0.0,0.0,0.0,0.0,0.0,0.0,0.0,5.6525,6.258,6.6816,6.6225,7.1627,7.4158,7.108,7.3556,7.569,7.6474,7.728,7.8354,7.9803,7.993,8.0246,8.0907,8.0963,8.0496,7.9511,7.9523,7.907,7.8132,7.8083,7.8117,7.8117,7.8068,7.7638,7.6927,7.6115,7.5337,7.4627,7.3849,7.3567,7.3331,7.1131,6.9823,6.918,6.9147,6.9113,6.8842,0.0,0.0,0.0,0.0,0.0,0.0,3.3887,3.4201,3.5458,3.8591,4.3515,4.8443,5.2919,5.8453,6.2541,6.4229,6.1516,5.9338,5.8453,5.2646,5.0092,5.1926,5.3842,5.7814,6.4153,6.4162,6.5771,6.919,6.8731,6.8436,6.8333,6.8148,6.8321,6.879,6.9249,6.8972,6.8274,6.8862,6.7393,6.4273,5.949,5.7214,5.6308,0.0,0.0,0.0,0.0,0.0,0.0,0.0,0.0,0.0,0.0,0.0,0.0,0.0,0.0,0.0,0.0,0.0,0.0,0.0,0.0,0.0,0.0,0.0,0.0,0.0,0.0,0.0,0.0,0.0,0.0,0.0,5.9496,6.2688,6.153,6.7629,7.2766,7.4208,7.8405,8.0605,7.9119,8.0235,8.1112,8.1295,8.2543,8.3446,8.3802,8.5045,8.4946,8.331,8.4492,8.3889,8.1243,8.2327,8.2192,8.0819,8.0143,8.0099,8.059,7.9337,7.8686,7.845,7.7705,7.6927,7.6217,7.5405,7.4762,7.4119,7.2462,7.1345,7.0635,7.0094,6.918,6.8166,0.0,0.0,0.0,0.0,0.0,0.0,3.3394,3.4044,3.584,3.9546,4.4895,4.9939,5.418,5.9911,6.3427,6.3312,6.1523,5.9269,5.6625,5.3263,5.2652,5.5556,5.8651,6.2861,6.8325,6.8329,6.9444,7.1889,7.1475,7.1015,7.053,7.1244,7.1522,7.1475,7.2024,7.2032,7.1587,7.1698,7.1228,7.009,6.6773,6.4301,6.2108,5.807,5.7151,5.7633,5.4822,5.4252,5.4531,5.1962,0.0,0.0,0.0,0.0,0.0,0.0,0.0,0.0,0.0,0.0,0.0,0.0,0.0,0.0,0.0,0.0,0.0,0.0,0.0,0.0,0.0,0.0,0.0,0.0,6.5917,6.987,7.0656,7.4447,7.7883,7.9862,8.326,8.5159,8.4339,8.5215,8.5697,8.5312,8.6104,8.6617,8.6596,8.7509,8.7428,8.5919,8.6864,8.629,8.3981,8.4526,8.4154,8.2844,8.1575,8.119,8.1556,8.0174,7.9612,0.0,7.8879,7.8153,7.7426,7.6618,7.5782,0.0,0.0,0.0,0.0,0.0,7.0601,6.9316,0.0,0.0,0.0,0.0,0.0,0.0,3.2695,3.404,3.6566,4.0812,4.5779,5.0474,5.4518,6.0141,6.2746,6.0606,6.0155,5.8059,5.3549,5.3422,5.5065,5.8574,6.3312,6.7056,6.9693,7.2062,7.3323,7.3399,7.424,7.411,7.3145,7.5276,7.5701,7.4673,7.5417,7.5732,7.5669,7.4955,7.4665,7.4628,7.4553,7.2385,6.8807,6.5064,6.4188,6.4517,6.148,5.9306,5.771,5.6576,0.0,0.0,0.0,0.0,0.0,0.0,0.0,0.0,0.0,0.0,0.0,0.0,0.0,0.0,0.0,0.0,0.0,0.0,0.0,0.0,0.0,0.0,0.0,0.0,7.2311,7.7164,8.1219,8.1907,8.2505,8.3755,8.6525,8.8099,8.7539,8.8807,8.9422,8.8787,8.8751,8.8715,8.8606,0.0,0.0,0.0,0.0,8.7889,8.6954,8.6347,8.5458,8.4335,8.2789,8.1955,8.1745,8.0902,8.0599,8.0732,7.9845,7.9074,7.8338,7.7487,7.6554,7.5642,7.4897,7.4221,7.3635,7.3534,7.2563,7.1289,0.0,0.0,0.0,0.0,0.0,0.0,3.2585,3.3582,3.5763,3.9962,4.4928,4.9131,5.2034,5.6963,6.0179,6.0377,5.8558,5.6984,5.6027,5.7155,5.9713,6.377,6.6865,6.996,7.317,7.4401,7.5318,7.5997,7.6838,7.749,7.796,7.7972,7.8257,7.8663,7.8417,7.8276,7.8262,7.8126,7.805,7.8011,7.736,7.465,7.0915,6.9488,6.7841,6.6049,6.4136,6.419,6.4689,6.1582,6.1047,6.1207,5.8101,5.4258,0.0,0.0,0.0,0.0,0.0,0.0,0.0,0.0,0.0,0.0,0.0,0.0,0.0,0.0,0.0,0.0,0.0,0.0,0.0,7.3414,7.7543,8.1328,8.5366,8.6996,8.743,8.6452,8.801,8.935,8.9857,9.0799,9.1559,9.201,9.2046,9.1813,9.1161,9.0509,8.9857,8.9205,8.9169,8.8764,8.7936,8.8425,8.7535,8.5322,0.0,0.0,8.2709,8.2529,8.2481,8.2429,8.1029,7.9947,7.9063,7.7694,7.6554,7.5642,7.4897,7.4525,7.4322,7.3713,7.2563,7.1289,0.0,0.0,0.0,0.0,0.0,0.0,3.2657,3.3773,3.5954,3.9809,4.3209,4.6418,4.9398,5.309,5.502,5.4224,5.3795,5.4617,5.7143,6.0022,6.3503,6.7706,7.0763,7.3323,7.5424,7.6303,7.7144,7.7993,7.8825,7.9474,7.9895,8.0467,8.0758,8.0814,8.0937,8.1003,8.1014,8.1003,8.1003,8.0976,8.0558,7.89,7.648,7.4281,7.2327,7.0612,6.9801,6.8953,6.7829,6.5562,6.4698,6.4021,6.0823,5.8197,5.588,0.0,0.0,0.0,0.0,0.0,0.0,0.0,0.0,0.0,0.0,0.0,0.0,0.0,0.0,6.1488,6.614,0.0,7.3378,7.8992,8.2251,8.5166,8.8408,8.9495,8.9712,8.8915,9.0219,9.1197,9.1197,9.1921,9.2392,9.2392,9.203,9.1813,9.1813,9.1052,9.04,9.0002,9.0002,8.9821,8.9403,8.9386,8.8754,8.7484,8.623,8.5343,8.486,8.3569,8.3472,8.4223,8.263,8.1493,8.0567,7.8108,7.6554,7.5676,7.5303,7.5168,7.51,7.4728,7.368,7.2394,0.0,0.0,0.0,0.0,0.0,0.0,0.0,3.4113,3.6371,3.9618,4.1495,4.3716,4.6735,4.9182,4.9833,4.7869,4.98,5.3157,5.787,6.24,6.6797,7.0946,7.4393,7.6541,7.7182,7.8213,7.9092,7.9789,8.0592,8.1079,8.127,8.2617,8.299,8.2531,8.3028,8.3343,8.3496,8.3305,8.3343,8.3458,8.3305,8.276,8.17,7.8501,7.6468,7.5291,7.4949,7.2411,6.912,6.8585,6.7017,6.4894,6.2452,6.1651,6.0775,5.6671,5.6133,0.0,0.0,0.0,0.0,0.0,0.0,0.0,0.0,5.8299,6.0303,6.5331,6.6239,6.795,7.3876,7.6465,7.9182,8.3882,8.6235,8.8316,9.0726,9.1052,9.1052,9.1052,9.2066,9.2646,9.232,9.2718,9.2827,9.232,9.1668,9.1523,9.203,9.1414,9.098,9.0835,9.0835,9.0762,9.0581,8.9966,8.9452,8.9112,8.7218,8.651,8.6751,8.4861,8.4691,8.5785,8.3794,8.244,8.1358,7.831,7.6506,7.5676,7.554,7.5473,7.5506,7.5642,7.4762,7.35,0.0,0.0,0.0,0.0,0.0,0.0,0.0,0.0,3.6141,3.8816,4.0616,4.2393,4.4306,4.6115,4.7118,4.6945,5.1108,5.528,5.893,6.4372,6.9349,7.3582,7.7038,7.891,7.9025,8.0544,8.1423,8.1538,8.235,8.3114,8.3868,8.4059,8.448,8.5053,8.4441,8.4556,8.5167,8.4441,8.4556,8.5167,8.4441,8.3649,8.2646,8.0755,7.9028,7.7424,7.5944,7.2716,6.9273,6.9914,6.8004,6.5582,6.661,6.4929,6.242,6.1842,5.8623,5.5144,5.4589,5.3583,5.3503,5.6936,5.805,6.0189,0.0,6.8774,6.9389,7.2987,7.5035,7.6905,7.9203,8.1223,8.39,8.8053,8.8951,8.9966,9.2392,9.2754,9.2754,9.2754,9.2247,9.2465,9.3784,9.337,9.3241,9.3856,9.3856,9.3494,9.2899,9.2791,9.2392,9.1704,9.1668,9.1306,9.0618,9.0509,8.9677,8.8141,8.8694,8.8217,8.6829,8.738,8.7322,8.6655,8.3421,8.1203,7.9726,7.7742,7.6414,7.5642,7.4999,7.4705,7.4796,7.5473,7.4762,7.35,0.0,0.0,0.0,0.0,0.0,0.0,0.0,0.0,0.0,3.7761,3.868,3.9819,4.1467,4.2508,4.3285,4.385,4.8925,5.4164,5.8968,6.5212,7.0812,7.5462,7.8497,8.0074,8.0018,8.1718,8.2817,8.3257,8.3601,8.4174,8.5015,8.5015,8.5167,8.5501,8.5167,8.5206,8.5473,8.5129,8.5206,8.5473,8.5129,8.448,8.3524,8.1308,7.8557,7.5577,7.3904,7.1191,0.0,6.7706,6.6904,6.6277,6.6877,6.5723,6.4129,6.3548,6.1187,5.8593,5.8061,5.8053,5.874,6.0984,6.3751,6.7096,7.1559,7.3037,7.4591,7.8457,8.0005,8.1488,8.4213,8.5443,8.6933,8.9668,9.0473,9.1487,9.3422,9.3298,9.2827,9.2356,9.1595,9.1559,9.2682,9.2935,9.3153,9.3458,9.3494,9.3587,9.3675,9.3241,9.2863,9.2501,9.2501,9.2356,9.1994,9.1523,9.0907,9.0182,8.9662,8.9244,8.8993,8.8449,8.7447,8.6085,8.4169,8.188,7.9396,7.8156,7.6603,7.5033,7.4705,7.4356,7.4052,7.4796,7.4119,7.2993,0.0,0.0,0.0,0.0,0.0,0.0,0.0,0.0,0.0,0.0,3.7282,3.8026,3.972,4.0205,4.0765,4.1676,4.6733,5.2352,5.8234,6.4645,7.0675,7.6156,7.9162,8.0864,8.1277,8.2996,8.4183,8.472,8.4691,8.4987,8.5551,8.5521,8.5501,8.5501,8.5501,8.5501,8.5501,8.5501,8.5501,8.5463,8.5282,8.4403,8.2951,8.0162,7.6341,7.2291,7.1077,6.844,6.5299,6.4076,6.3923,6.4329,6.4688,6.4725,6.4473,6.3832,6.2589,6.1294,6.06,6.191,6.3891,6.5609,6.9475,7.3378,7.5539,7.732,7.9519,8.3043,8.3739,8.4561,8.7306,8.7931,8.8618,9.0612,9.1595,9.2682,9.4312,9.3479,9.2284,9.1269,9.0038,8.9531,9.011,9.1704,9.2754,9.2972,9.3406,9.3841,9.4182,9.3877,9.3551,9.3334,9.3313,9.3225,9.3008,9.2211,9.1813,9.1776,9.04,9.0038,9.0545,8.8932,8.7357,8.5859,8.4554,8.2286,7.9316,7.8499,7.6743,7.457,7.439,7.3849,7.3286,7.4081,7.3663,7.2925,0.0,0.0,0.0,0.0,0.0,0.0,0.0,0.0,0.0,0.0,0.0,0.0,0.0,4.0072,4.0613,4.163,4.5563,5.05,5.6472,6.2306,6.8556,7.534,7.89,8.1501,8.3199,8.4848,8.573,8.5768,8.5676,8.5667,8.5705,8.5561,8.5501,8.5501,8.5501,8.5501,8.5501,8.5501,8.5501,8.5435,8.4632,8.2837,8.0238,7.6923,7.249,6.8096,6.802,6.4305,5.937,5.9293,5.8803,5.8459,6.0071,6.1649,6.2887,6.2931,6.226,6.1492,6.1393,6.3739,6.7148,7.1133,7.4677,7.8078,8.1387,8.3422,8.5117,8.6909,8.6732,8.6598,8.7604,8.7931,8.8837,9.1353,9.2465,9.3551,9.513,9.3334,9.1233,8.964,8.743,8.6054,8.609,8.9567,9.2175,9.2915,9.4457,9.5,9.4219,9.4927,9.4964,9.4182,9.4146,9.3784,9.3008,9.2211,9.1813,9.1813,9.0943,9.0581,9.0545,8.8932,8.7681,8.6623,8.4105,8.1668,7.9339,7.8394,7.6647,7.4525,7.3815,7.3071,7.2542,7.3386,7.3697,7.3662,0.0,0.0,0.0,0.0,0.0,0.0,0.0,0.0,0.0,0.0,0.0,0.0,0.0,0.0,0.0,0.0,4.3943,4.8043,5.3974,5.9313,6.4768,7.0379,7.5547,7.8823,7.9902,8.2723,8.4181,8.4128,8.5187,8.5408,8.4863,8.5293,8.5501,8.5501,8.5501,8.5501,8.5501,8.5501,8.5501,8.532,8.341,8.1767,8.0009,7.5548,7.0351,6.5154,0.0,6.0064,5.7275,5.6167,5.5976,5.6549,5.8192,5.8713,5.8693,5.872,6.0817,6.3429,6.4534,6.8858,7.403,7.8093,8.1696,8.4785,8.6843,8.7885,8.8383,8.8234,8.6908,8.555,8.4755,8.4769,8.5689,8.8198,9.0183,9.232,9.5021,9.4239,9.2211,8.8968,8.8372,8.7611,8.6054,8.8046,9.0199,9.2066,9.3696,9.471,9.4964,9.5274,9.5274,9.5,9.5,9.4855,9.4602,9.3805,9.3117,9.2573,9.1233,9.0581,9.0545,8.9495,8.8205,8.6715,8.533,8.3342,8.0958,7.957,7.7623,7.5422,7.4143,7.3128,7.2508,7.3382,7.4385,7.5315,0.0,0.0,0.0,0.0,0.0,0.0,0.0,0.0,0.0,0.0,0.0,0.0,0.0,0.0,0.0,0.0,0.0,4.6129,5.1819,5.5531,5.9888,6.5238,6.9438,7.2339,7.3768,7.6018,7.7554,7.8459,7.9442,8.0242,8.0923,8.164,8.211,8.2416,8.2999,8.3295,8.3295,8.3295,8.276,8.1729,7.9207,7.6953,7.4622,7.019,6.523,0.0,5.7421,5.5129,5.3378,5.2919,5.3492,5.4677,5.5747,5.6326,5.6823,5.8046,6.1526,6.5871,6.9959,7.5063,8.0179,8.4252,8.7633,9.0042,9.035,9.0748,9.0666,8.9085,8.6392,8.3907,8.2458,8.1259,8.1518,8.4807,8.6634,8.9133,9.3479,9.2718,9.0887,8.8859,8.8336,8.7684,8.6452,8.7447,8.933,9.203,9.3458,9.4565,9.5383,9.5419,9.5419,9.5419,9.5419,9.5419,9.5419,9.4602,9.3639,9.2573,9.1233,9.0436,9.0147,8.935,8.8025,8.6344,8.5502,8.3755,8.1383,8.0041,7.8132,7.5879,7.4304,7.3201,7.2502,7.3043,7.3913,7.4956,0.0,0.0,0.0,0.0,0.0,0.0,0.0,0.0,0.0,0.0,0.0,0.0,0.0,0.0,0.0,0.0,0.0,0.0,4.9928,5.1004,5.4083,5.9949,6.1134,6.29,6.5513,6.5705,6.6974,6.9436,6.9386,7.1034,7.4228,7.49,7.5621,7.6425,7.7991,7.8728,7.8719,7.8719,7.7305,7.4898,7.2338,6.8937,6.4955,6.1562,5.7702,5.3874,5.2264,5.0048,4.8176,4.9748,5.1544,5.3078,5.3116,5.4912,5.7626,6.0943,6.4458,6.9057,7.7111,8.1889,8.5558,8.9538,9.2371,9.3704,9.2006,9.2146,9.1868,8.928,8.5122,8.1574,8.0366,7.7487,7.6802,8.1399,8.2396,8.4805,9.1108,8.9442,8.8029,8.937,8.7614,8.6544,8.7213,8.7974,8.9712,9.2899,9.3784,9.4565,9.5383,9.5456,9.5456,9.5419,9.5419,9.5419,9.5419,9.4602,9.3386,9.1849,9.1052,9.0219,8.935,8.857,8.7269,8.5636,8.4814,8.3129,8.0844,7.9944,7.8271,7.6081,7.4371,7.3244,7.2546,7.2546,7.2623,7.3054,0.0,0.0,0.0,0.0,0.0,0.0,0.0,0.0,0.0,0.0,0.0,0.0,0.0,0.0,0.0,0.0,0.0,0.0,4.5469,4.7204,4.9658,5.3105,5.6451,5.9148,6.1089,6.2974,6.4583,6.5897,6.7074,6.807,6.8953,6.9681,7.0095,7.0247,7.0691,7.085,7.0809,7.0809,7.0427,6.9625,6.7102,6.5459,6.4084,6.0064,5.6702,5.3951,5.2881,5.1276,4.9742,5.0168,5.311,5.6702,5.7307,5.9682,6.2784,6.5497,7.0495,7.6141,8.0745,8.6732,9.2237,9.4502,9.5605,9.5654,9.3792,9.2383,9.026,8.604,8.0992,7.6359,7.3267,7.3286,7.5075,7.9092,8.3792,8.8749,9.3978,9.4014,9.2998,9.1581,9.1594,9.1174,8.986,9.0575,9.2119,9.4586,9.442,9.4565,9.5383,9.5963,9.6035,9.5419,9.5419,9.5419,9.5419,9.4602,9.3675,9.2682,9.1885,9.0762,8.935,8.857,8.762,8.6594,8.5856,8.4838,8.3528,8.1532,7.9613,7.7679,7.4872,7.3635,7.3395,7.3382,7.4149,7.5358,0.0,0.0,0.0,0.0,0.0,0.0,0.0,0.0,0.0,0.0,0.0,0.0,0.0,0.0,0.0,0.0,0.0,0.0,0.0,4.4078,4.5515,4.7789,4.9798,5.1495,5.2818,5.4241,5.5736,5.7357,5.8652,6.005,6.1549,6.2273,6.2775,6.3103,6.3834,6.4089,6.4076,6.4466,6.3969,0.0,0.0,5.9453,5.7817,5.5059,5.269,5.0741,5.0627,5.12,5.227,5.4104,5.6855,5.9988,6.2701,6.5337,6.8363,7.2711,7.7449,8.234,8.7203,9.2465,9.676,9.7658,9.7465,9.6077,9.248,9.0282,8.7259,8.0926,7.6413,7.2484,6.8833,6.9563,7.2091,7.6239,8.1443,8.7048,9.2926,9.3783,9.3674,9.3326,9.4137,9.432,9.3114,9.3732,9.4854,9.6473,9.5425,9.5217,9.6376,9.6557,9.6397,9.5963,9.56,9.5419,9.5419,9.4239,9.3458,9.3008,9.1849,9.0436,8.8879,8.8425,8.7592,8.6489,0.0,8.5438,8.4569,8.2867,8.0948,7.8905,7.6349,7.4717,7.3739,7.3739,7.4308,7.5163,0.0,0.0,0.0,0.0,0.0,0.0,0.0,0.0,0.0,0.0,3.6126,0.0,0.0,0.0,0.0,0.0,0.0,0.0,0.0,0.0,4.2011,4.3831,4.3201,4.3235,4.4124,4.4235,4.5427,4.7778,4.862,5.0615,5.3654,5.4315,5.4944,5.5691,5.7079,5.7665,5.765,5.8421,5.7511,5.5524,5.4715,5.2684,5.0054,0.0,4.7805,4.6609,4.7603,5.0544,5.4677,5.9574,6.202,6.3809,6.8814,7.1833,7.4783,8.1117,8.4709,8.8033,9.4223,9.77,9.9572,9.9572,9.8197,9.5401,8.978,8.6908,8.3149,7.5182,7.1591,6.8963,6.5907,6.6539,6.9102,7.3967,7.8346,8.3672,9.0789,9.183,9.2669,9.4893,9.5845,9.6376,9.6425,9.6846,9.745,9.8187,9.669,9.6346,9.7716,9.7137,9.6666,9.6449,9.5782,9.5347,9.5217,9.3877,9.3044,9.2827,9.1414,8.9929,8.8353,8.8353,8.752,8.6054,8.6054,0.0,8.4642,8.3827,8.2052,7.9702,7.8035,7.5977,7.392,7.3837,7.3825,7.4004,0.0,0.0,0.0,0.0,0.0,0.0,0.0,0.0,0.0,0.0,3.5913,3.5941,0.0,0.0,0.0,0.0,0.0,0.0,0.0,0.0,0.0,4.1877,4.1922,4.2351,4.3278,4.3974,4.4858,4.6013,4.6853,4.791,4.9216,4.9276,4.9378,4.9477,4.9729,4.9805,4.978,4.9933,5.0168,5.0327,4.9475,4.9169,4.9142,4.7532,4.6768,0.0,4.8302,5.0671,5.4295,6.2777,6.7553,7.0694,7.508,7.9551,8.3907,8.7908,9.0812,9.3486,9.6772,9.8999,10.0413,10.0413,9.7778,9.3858,8.8781,8.354,7.7899,7.141,6.6937,6.3959,6.3048,6.5509,6.9609,7.5588,8.1107,8.6937,9.3573,9.4524,9.5165,9.6901,9.7408,9.7698,9.8051,9.8335,9.8655,9.9081,9.8181,9.7676,9.781,9.768,9.6956,9.5673,9.5492,9.5072,9.442,9.411,9.3313,9.1994,9.174,9.0762,8.9205,8.9205,8.8336,8.6795,8.6795,0.0,8.4642,8.3827,8.2028,7.957,7.7932,7.6258,7.4647,7.3969,7.4207,7.4978,0.0,0.0,0.0,0.0,0.0,0.0,0.0,3.662,3.7808,3.8316,3.8419,3.818,3.7374,3.7279,3.7255,0.0,0.0,0.0,0.0,0.0,0.0,4.0649,4.091,4.143,4.236,4.3175,4.4034,4.494,0.0,4.6387,4.6748,4.6724,4.667,4.6595,4.6595,4.6559,4.6538,4.6953,4.7641,4.8372,4.7985,4.8061,4.8296,4.6997,4.6762,0.0,4.9098,5.162,5.5174,6.1822,6.805,7.4049,8.0009,8.5091,8.9356,9.2424,9.5333,9.7879,9.927,10.0779,10.1799,10.0506,9.6342,9.0879,8.4693,7.8829,7.265,6.5482,6.2689,6.1263,6.0265,6.3579,6.783,7.2094,7.682,8.2698,9.0484,9.1217,9.2646,9.7191,9.8205,9.8772,9.9399,9.9798,9.9952,9.9672,9.9583,9.935,9.9078,9.826,9.7064,9.5456,9.5419,9.4819,9.3587,9.3567,9.2972,9.1813,9.1378,9.0545,8.9386,8.9386,8.8517,8.7013,8.7013,0.0,8.5293,8.4895,8.3279,8.0975,8.0221,7.8406,7.6154,7.5918,7.6019,7.6352,0.0,0.0,0.0,0.0,0.0,0.0,0.0,3.741,3.87,4.039,4.1172,4.0746,3.8591,3.7654,3.6949,0.0,0.0,0.0,0.0,0.0,0.0,0.0,0.0,0.0,4.1681,0.0,0.0,4.4271,4.5148,0.0,0.0,0.0,0.0,0.0,4.5388,4.5362,4.5321,4.5965,4.6839,0.0,0.0,4.7603,4.7985,0.0,0.0,0.0,0.0,5.2002,5.5282,6.0026,6.6369,7.362,8.1003,8.7055,9.1826,9.4288,9.7085,9.9631,10.0805,10.1702,10.1984,10.0306,9.4871,8.8081,8.1112,7.4719,6.8151,6.0737,5.9416,5.9343,5.8437,6.1667,6.5582,6.8885,7.2481,7.806,8.7178,8.8206,9.0555,9.7346,9.8888,9.9659,10.0503,10.0986,10.101,10.029,10.0595,10.0518,9.9796,9.8397,9.6875,9.5202,9.5311,9.4529,9.2754,9.2935,9.2501,9.1559,9.0907,9.0255,8.964,8.964,8.877,8.7266,8.7266,0.0,0.0,8.5909,8.4454,8.224,8.2228,8.036,7.7664,7.7899,7.7882,7.7774,0.0,0.0,0.0,0.0,0.0,0.0,0.0,3.8324,4.0278,4.1977,4.23,4.1806,4.0312,3.9295,3.7826,0.0,0.0,0.0,0.0,0.0,0.0,0.0,0.0,0.0,0.0,0.0,0.0,4.4216,4.5021,0.0,0.0,0.0,0.0,0.0,0.0,4.5326,4.5283,4.5397,0.0,0.0,0.0,0.0,0.0,0.0,0.0,0.0,0.0,5.0397,5.2951,5.9415,6.3656,6.74,7.4248,8.2606,9.0216,9.1925,9.3882,9.6319,10.01,10.0115,9.9245,9.9768,9.4012,8.6698,8.0889,7.3044,6.5485,6.026,5.8095,5.7545,5.8866,6.0639,6.3943,7.0096,7.3215,7.828,8.7932,9.0555,9.3327,9.8411,9.9695,10.0503,10.1274,10.14,10.1393,10.1079,10.0887,10.0109,9.8384,9.747,9.6152,9.4384,9.5,9.4296,9.1921,9.2646,9.2247,9.0726,9.0654,9.0545,9.0473,9.0473,8.9603,8.8099,8.8099,0.0,0.0,8.5909,8.4315,8.1938,8.2074,8.0637,7.8478,7.8535,7.8657,7.8874,0.0,0.0,0.0,0.0,0.0,0.0,3.6842,3.8324,4.01,4.2712,4.4002,4.4157,4.2827,4.1407,3.9019,3.5313,0.0,0.0,0.0,0.0,0.0,0.0,0.0,0.0,0.0,0.0,4.3226,4.4126,4.4983,0.0,0.0,0.0,0.0,0.0,0.0,4.5588,4.6003,4.6003,0.0,0.0,0.0,0.0,0.0,0.0,0.0,0.0,0.0,0.0,5.2433,5.5085,5.8889,6.285,6.4714,7.0682,7.8439,8.6211,9.0939,9.4302,9.7555,9.898,9.9426,9.8863,9.2621,8.5196,7.9541,7.1803,6.4383,5.9501,5.796,5.7703,5.8364,5.938,6.1655,6.6219,6.7307,7.1013,8.0739,8.226,8.5637,9.4446,9.6208,9.797,10.122,10.1514,10.129,10.0713,9.9203,9.8124,9.7595,9.7595,9.679,9.4985,9.5238,9.4239,9.1813,9.261,9.2211,9.0581,9.0581,9.0581,9.0581,9.0581,8.9712,8.8208,8.8343,0.0,0.0,8.6136,8.5275,8.3819,8.3422,8.2392,8.0998,8.0045,7.9766,7.9747,0.0,0.0,0.0,0.0,0.0,3.4736,3.7256,3.8427,4.0128,4.3136,4.4909,4.5457,4.4362,4.2609,4.0203,3.7025,3.7072,0.0,0.0,0.0,0.0,0.0,0.0,0.0,0.0,0.0,4.3345,4.4454,4.5298,4.5604,0.0,0.0,4.5587,4.5283,0.0,0.0,0.0,0.0,0.0,0.0,0.0,0.0,0.0,0.0,0.0,0.0,0.0,0.0,0.0,0.0,0.0,5.9013,5.856,6.1889,6.8129,7.9069,8.5765,9.0435,9.4245,9.6972,9.8558,9.7757,9.1436,8.3948,7.8295,7.077,6.3613,5.8951,5.7813,5.7703,5.796,5.8474,5.9893,6.3172,6.3833,6.7123,7.6371,7.7635,8.1048,9.0519,9.2134,9.4299,9.8944,10.0706,10.1294,10.0686,9.8851,9.7721,9.7592,9.7538,9.6728,9.5093,9.5274,9.4239,9.1813,9.261,9.2211,9.0581,9.0581,9.0581,9.0581,9.0641,8.9791,8.8305,8.8479,0.0,0.0,8.632,8.5883,8.5082,8.4572,8.388,8.301,8.1619,8.1158,8.1063,0.0,0.0,0.0,0.0,0.0,0.0,3.7326,3.8935,4.0777,4.3277,4.4596,4.5095,4.4465,4.249,4.1276,4.1504,3.8989,0.0,0.0,0.0,0.0,0.0,0.0,0.0,0.0,0.0,4.364,4.5283,4.608,4.608,4.5321,4.6118,4.6042,4.5283,0.0,0.0,0.0,0.0,0.0,0.0,0.0,0.0,4.9158,0.0,0.0,0.0,0.0,0.0,0.0,0.0,0.0,0.0,0.0,5.8913,6.174,7.0697,7.7621,8.3724,9.0206,9.3712,9.5731,9.6502,9.0629,8.3104,7.7414,6.9889,6.2964,5.8841,5.7373,5.7068,5.785,5.7997,5.9061,6.2279,6.4861,6.9302,7.7451,7.9947,8.2774,8.7655,8.8243,8.9858,9.3969,9.8724,10.1514,10.1514,10.0686,9.9736,9.8562,9.6988,9.5547,9.4239,9.4964,9.4239,9.1813,9.261,9.2211,9.0581,9.0581,9.0581,9.0637,9.0799,9.0025,0.0,0.0,0.0,0.0,8.6411,8.586,8.5009,8.5137,8.4755,8.3964,8.3118,8.2886,8.2966,0.0,0.0,0.0,0.0,0.0,0.0,0.0,3.6772,3.7933,3.9249,4.0889,4.216,4.2755,4.1845,4.1775,4.3202,3.98,0.0,0.0,0.0,0.0,0.0,0.0,0.0,0.0,0.0,4.3634,4.5283,4.6118,4.6686,4.6991,4.6648,4.6347,4.6118,4.555,4.5627,0.0,0.0,0.0,0.0,0.0,5.0023,4.9587,0.0,0.0,0.0,0.0,0.0,0.0,0.0,0.0,0.0,0.0,0.0,0.0,6.149,6.8482,7.5564,7.9286,8.248,8.4682,8.4389,8.0718,7.6093,7.2092,6.7504,6.2928,5.8841,5.7813,5.7703,5.796,5.7997,5.9612,6.453,6.6439,6.9376,7.5249,7.9396,8.3398,8.7692,9.3565,9.7806,9.9091,10.0099,10.0686,10.0686,9.9438,9.8439,9.7904,9.6173,9.5146,9.5021,9.4746,9.395,9.2646,9.2863,9.2236,9.0799,9.0661,9.0661,9.0799,9.0878,9.0025,0.0,0.0,0.0,0.0,8.675,8.6625,8.6337,8.5818,8.5471,8.5131,8.4197,8.3586,8.3244,0.0,0.0,0.0,0.0,0.0,0.0,0.0,3.6071,3.7071,3.7434,3.9621,4.1479,4.2404,4.2109,4.2682,4.4827,4.171,0.0,0.0,0.0,0.0,0.0,0.0,0.0,0.0,4.2526,4.394,4.6233,4.7379,4.8214,4.8749,4.8831,4.8214,4.6953,4.6462,4.6156,0.0,0.0,0.0,0.0,5.0367,5.0207,4.9592,0.0,0.0,0.0,0.0,0.0,0.0,0.0,0.0,0.0,0.0,0.0,0.0,0.0,6.1006,6.6976,7.2151,7.613,7.8809,7.8626,7.5909,7.2386,6.9192,6.5705,6.2193,5.8694,5.7997,5.7997,5.7997,5.7997,5.9245,6.3135,6.5448,6.8385,7.2922,7.7745,8.2553,8.7215,9.4263,9.8907,9.9201,10.0192,10.0816,10.0816,9.9255,9.8386,9.8517,9.6256,9.5141,9.5633,9.4477,9.3659,9.3216,9.2925,9.2186,9.1014,9.0878,9.0897,9.1014,9.1091,9.0255,0.0,0.0,0.0,0.0,8.6943,8.6978,8.6941,8.6444,8.6261,8.6133,8.5224,8.4618,8.4262,0.0,0.0,0.0,0.0,0.0,0.0,0.0,3.6569,3.7694,3.733,3.9971,4.2103,4.2736,4.2704,4.3596,4.6036,0.0,0.0,0.0,0.0,0.0,0.0,0.0,0.0,4.2832,4.2908,4.4546,4.7908,4.9513,5.0397,5.0588,5.2155,5.1123,4.7985,4.7908,4.6948,0.0,0.0,0.0,0.0,5.0306,5.0287,0.0,0.0,0.0,0.0,0.0,0.0,0.0,0.0,0.0,0.0,0.0,0.0,0.0,0.0,0.0,0.0,0.0,7.2995,7.6114,7.6937,7.4331,7.077,6.7774,6.4213,0.0,5.8474,5.7997,5.8033,5.8217,5.8107,5.84,5.96,6.2976,6.6866,7.0903,7.6019,8.1452,8.7031,9.1913,9.5034,9.5677,9.9238,10.1514,10.1404,9.9989,9.9322,9.9838,9.689,9.5438,9.5951,9.42,9.3343,9.3504,9.2774,9.2009,9.1225,9.1225,9.1225,9.1244,9.136,9.0557,0.0,0.0,0.0,0.0,8.6978,8.6978,8.6978,8.6978,8.6978,8.6904,8.6151,8.5874,8.5673,0.0,0.0,0.0,0.0,0.0,0.0,0.0,0.0,0.0,0.0,3.6589,3.7876,3.8688,4.0012,4.1643,0.0,0.0,0.0,0.0,0.0,0.0,0.0,0.0,0.0,4.3706,4.3706,4.5387,4.8798,4.9824,5.1314,5.3225,5.3607,5.2346,4.9704,4.906,4.7709,0.0,0.0,0.0,0.0,4.9318,4.9412,0.0,0.0,0.0,0.0,4.9301,5.0137,0.0,0.0,0.0,0.0,0.0,0.0,0.0,0.0,5.4179,5.5611,5.851,0.0,6.2585,6.2805,6.2585,6.2132,0.0,6.0921,6.0162,5.8364,5.7997,5.8547,6.0419,5.9245,5.9685,6.4861,6.6512,6.8531,7.2569,8.1048,8.872,9.3822,9.7603,9.9402,9.8374,10.0209,10.12,10.0613,9.9659,9.8905,9.8425,9.6345,9.5335,9.5615,9.3885,9.2835,9.2701,9.2483,9.2085,9.1433,9.1282,9.1282,9.1397,9.0849,9.0045,0.0,0.0,0.0,8.6978,8.6978,8.6978,8.6978,8.6978,8.6978,8.6978,8.6811,8.6334,8.5673,0.0,0.0,0.0,0.0,0.0,0.0,0.0,0.0,0.0,0.0,0.0,3.7595,3.7943,4.0047,0.0,0.0,0.0,0.0,0.0,0.0,0.0,0.0,0.0,4.3171,4.3968,4.4393,4.6462,5.0245,5.1047,5.2957,5.5823,5.5441,5.3627,5.0577,4.8061,4.655,0.0,0.0,0.0,4.7981,4.9201,0.0,0.0,0.0,0.0,0.0,4.9233,5.0105,0.0,5.2564,5.3665,5.4399,0.0,0.0,0.0,0.0,5.3508,5.3948,5.4363,5.6198,5.8107,5.8474,5.8609,5.8756,5.9123,5.8682,5.8143,5.8033,5.7703,5.796,5.9648,5.9171,5.9942,6.4213,6.6489,7.0013,7.6659,8.4425,9.1069,9.5621,9.8668,10.0319,10.0209,10.098,10.122,10.0393,9.9548,9.8924,9.8484,9.6809,9.5763,9.5492,9.4187,9.3249,9.2714,9.2312,9.1966,9.1638,9.1546,9.1546,9.162,9.0795,8.9989,0.0,0.0,0.0,8.6978,8.6978,8.6978,8.6978,8.6978,8.6978,8.6978,8.6978,8.6738,8.6224,0.0,0.0,0.0,0.0,0.0,0.0,0.0,0.0,0.0,0.0,0.0,0.0,0.0,0.0,0.0,0.0,0.0,0.0,0.0,0.0,0.0,0.0,0.0,4.3629,4.4541,4.5126,4.7438,5.1515,5.2508,5.4623,5.7718,5.7416,5.5123,5.1095,4.6796,4.5123,0.0,0.0,4.7676,4.7664,4.92,0.0,0.0,0.0,0.0,0.0,0.0,0.0,0.0,5.3482,5.4363,5.4656,5.5108,0.0,0.0,0.0,0.0,0.0,5.3654,5.5831,5.8107,5.8535,5.8327,5.818,5.8866,5.7446,5.6356,5.7714,5.7446,5.7373,5.8694,5.9501,6.0627,6.2732,6.6709,7.2767,8.2003,8.7252,9.1528,9.5235,9.7933,9.9916,10.098,10.1404,10.109,10.0209,9.9512,9.8978,9.8741,9.7309,9.6077,9.5137,9.4463,9.3656,9.2719,9.2115,9.1803,9.1803,9.1803,9.1803,9.1767,9.0849,9.0024,8.9363,0.0,0.0,8.6978,8.6978,8.6978,8.6978,8.6978,8.6978,8.6978,8.6978,8.6978,8.6904,0.0,0.0,0.0,0.0,0.0,0.0,0.0,0.0,0.0,0.0,0.0,0.0,0.0,0.0,0.0,0.0,0.0,0.0,0.0,0.0,0.0,4.4939,4.4939,4.5621,4.7177,4.6399,4.7694,5.1168,5.3066,5.4995,5.6949,5.9243,5.7408,5.2037,4.8645,4.6421,4.5297,0.0,0.0,4.7279,4.8217,0.0,0.0,0.0,0.0,0.0,0.0,0.0,0.0,5.3031,5.4289,5.5218,5.3959,0.0,0.0,0.0,0.0,0.0,5.5673,5.7116,5.7703,5.6466,5.7079,5.8033,5.8143,5.7886,5.7703,5.796,5.7886,5.8914,6.2487,6.3258,6.4751,6.9105,7.4404,8.0351,8.7308,9.1326,9.4299,9.6282,9.9255,10.0686,9.9585,10.0686,10.0927,9.9402,9.9181,9.8521,9.7163,9.6208,9.4948,9.3345,9.33,9.2514,9.0908,9.1507,9.1803,9.1803,9.1803,9.1803,9.173,9.0244,8.951,8.9326,0.0,8.7088,8.6978,8.6978,8.6978,8.6978,8.6978,8.6978,8.6978,8.6978,8.6978,8.6978,0.0,0.0,0.0,0.0,0.0,0.0,0.0,0.0,0.0,0.0,0.0,0.0,0.0,0.0,0.0,0.0,0.0,0.0,0.0,0.0,4.6091,4.6388,4.6806,4.7186,4.7522,4.8287,5.0444,5.4065,5.5902,5.8012,6.0332,5.854,5.5358,5.1037,4.8211,4.6441,4.5616,4.6278,4.7269,4.8453,0.0,0.0,0.0,0.0,0.0,0.0,0.0,0.0,0.0,0.0,5.462,5.5401,5.4216,0.0,0.0,0.0,0.0,0.0,5.4535,5.6077,5.7262,5.6969,5.8107,5.9318,5.9318,5.8621,5.8474,6.0236,6.0236,6.0933,6.4163,6.6512,7.0,7.6203,8.1195,8.538,8.8353,9.195,9.474,9.5914,9.8521,10.0099,9.9769,10.0393,10.0209,9.8557,9.7957,9.6964,9.538,9.4425,9.3173,9.1547,9.1563,9.0985,8.9743,9.0651,9.1323,9.1803,9.1803,9.1803,9.1767,9.0592,8.9803,8.9326,0.0,8.7399,8.6978,8.6978,8.6978,8.6978,8.6978,8.6978,8.6978,8.6978,8.6738,8.6407,0.0,0.0,0.0,0.0,0.0,0.0,0.0,0.0,0.0,0.0,0.0,0.0,0.0,0.0,0.0,0.0,0.0,0.0,0.0,0.0,4.6485,4.6886,4.8012,4.8761,4.8928,5.0644,5.3441,5.736,5.8888,6.0833,6.3078,5.7791,5.3679,5.0578,4.8198,4.6796,4.625,4.7049,4.8233,4.9574,0.0,0.0,0.0,0.0,0.0,0.0,0.0,0.0,0.0,0.0,0.0,0.0,0.0,0.0,0.0,5.4179,5.3618,5.3581,5.4168,5.5673,5.7336,5.8327,5.9355,6.037,6.1337,6.0603,6.0639,6.3857,6.4163,6.4494,6.6623,7.0573,7.5747,8.2517,8.6848,8.9528,9.0115,9.3198,9.5731,9.6521,9.8264,9.9622,10.0209,9.9919,9.9086,9.7658,9.6623,9.539,9.3823,9.2832,9.1609,8.9996,8.9982,8.9625,8.8779,8.9702,9.0612,9.1509,9.1694,9.1803,9.1767,9.0959,9.0244,8.962,8.8647,8.7839,8.7288,8.7088,8.6978,8.6978,8.6978,8.6978,8.6978,8.6978,8.6628,8.6187,0.0,0.0,0.0,0.0,0.0,0.0,0.0,0.0,0.0,0.0,0.0,0.0,0.0,0.0,0.0,0.0,0.0,0.0,0.0,0.0,4.5681,4.5735,4.7905,5.059,5.3636,5.3507,5.5426,5.9558,6.0824,6.1719,6.2223,5.8419,5.5153,5.2335,5.0294,4.8482,4.7076,4.7856,4.8746,4.9637,5.0325,0.0,0.0,0.0,0.0,0.0,0.0,0.0,0.0,0.0,0.0,0.0,0.0,0.0,5.6554,5.5684,5.4913,5.4803,5.7042,5.7776,5.829,5.9832,5.9747,6.0297,6.4077,6.4848,6.5692,6.8898,7.011,7.0866,7.1798,7.6533,8.1929,8.6958,9.0555,9.3529,9.5768,9.764,9.9071,9.9842,10.0099,10.0209,10.0283,9.8766,9.7446,9.6576,9.5638,9.4382,9.2796,9.1934,9.0725,8.9049,8.913,8.8739,8.7819,8.8734,8.966,9.0592,9.1416,9.1803,9.1767,9.0959,9.0592,9.0445,8.8867,8.8169,8.8059,8.7325,8.6978,8.6978,8.6978,8.6978,8.6978,8.6978,8.6941,8.7031,0.0,0.0,0.0,0.0,0.0,0.0,0.0,0.0,0.0,0.0,0.0,0.0,0.0,0.0,0.0,0.0,0.0,0.0,0.0,4.5617,4.6533,4.6824,4.9184,5.1676,5.4156,5.5702,5.8607,6.3015,6.3775,6.3603,6.2485,5.8062,5.4629,5.2159,5.0046,4.8643,4.7893,4.8746,4.9894,5.1069,5.0875,5.0618,0.0,0.0,0.0,0.0,0.0,0.0,0.0,0.0,5.4116,5.5438,5.4436,5.5354,5.6554,5.5244,5.462,5.4583,5.55,5.7226,5.8902,5.949,6.1325,6.3783,6.683,6.8701,7.0697,7.3913,7.6041,7.7892,7.969,8.2186,8.538,8.9748,9.3198,9.5658,9.6575,9.808,9.9035,9.8814,9.9255,9.913,9.798,9.7262,9.6271,9.4888,9.3459,9.2153,9.1022,8.9669,8.8415,8.7318,8.7344,8.717,8.6818,8.7749,8.84,8.8779,8.9702,9.0453,9.0963,9.0671,9.0317,8.984,8.9748,8.883,8.7472,8.7655,8.7472,8.6978,8.6978,8.6978,8.7051,8.7582,8.7766,8.7876,0.0,0.0,0.0,0.0,0.0,0.0,0.0,0.0,0.0,0.0,0.0,0.0,0.0,0.0,0.0,0.0,0.0,0.0,4.4017,4.5376,4.6453,4.7031,4.9686,5.2237,5.4517,5.7347,6.0689,6.4609,6.4915,6.4046,6.1961,5.7569,5.4664,5.3062,5.1088,5.0201,5.0251,5.0582,5.1363,5.2344,5.1793,5.1426,0.0,0.0,0.0,0.0,0.0,0.0,0.0,0.0,5.3859,5.5108,5.4535,5.5453,5.659,5.55,5.4987,5.4766,5.4766,5.6381,5.8242,5.9013,6.2279,6.6389,7.061,7.3032,7.5579,7.9528,8.1509,8.3104,8.5013,8.6004,8.7619,9.0886,9.441,9.6795,9.7052,9.8043,9.8496,9.7871,9.8051,9.7631,9.6127,9.5452,9.4482,9.307,9.158,9.0293,8.9245,8.8043,8.7087,8.6329,8.6294,8.6294,8.6294,8.6696,8.6916,8.6916,8.7559,8.8663,9.013,9.013,8.9869,8.9436,8.9693,8.8904,8.7399,8.7692,8.7509,8.7014,8.7288,8.7399,8.7472,8.828,8.8573,8.8683,0.0,0.0,0.0,0.0,0.0,0.0,0.0,0.0,0.0,0.0,0.0,0.0,0.0,0.0,0.0,0.0,0.0,0.0,4.3978,4.4422,4.5067,4.5847,4.904,5.2218,5.5285,5.8397,6.118,6.3686,6.3732,6.2618,6.0309,5.7079,5.5585,5.5511,5.3922,5.3654,5.4326,5.3544,5.3214,5.3214,5.3214,5.2711,0.0,0.0,0.0,0.0,0.0,0.0,0.0,0.0,5.4399,5.4693,5.626,5.6774,5.6811,5.6774,5.6235,5.5622,5.5585,5.5622,5.6209,5.8646,6.2316,6.7453,7.5527,7.7986,8.0241,8.5877,8.6407,8.6077,8.6921,8.7692,8.8757,9.0372,9.4042,9.6979,9.775,9.786,9.7802,9.7591,9.6868,9.5997,9.5073,9.3355,9.1986,9.1238,9.0246,8.9019,8.7501,8.7372,8.7053,8.6329,8.6294,8.6294,8.6294,8.557,8.519,8.519,8.519,8.6613,8.9274,8.9294,8.9304,8.9345,8.8556,8.8206,8.8133,8.7362,8.7014,8.7088,8.7912,8.8206,8.8316,8.9106,8.94,8.9546,0.0,0.0,0.0,0.0,0.0,0.0,0.0,0.0,0.0,0.0,0.0,0.0,0.0,0.0,0.0,0.0,0.0,0.0,4.3592,4.4286,4.504,4.5792,4.8461,5.0574,5.1828,5.5447,5.9415,6.365,6.2623,6.1214,5.949,5.6756,5.5229,5.473,5.4155,5.3763,5.3544,5.3287,5.3214,5.3251,5.3801,5.3225,5.206,0.0,0.0,0.0,0.0,0.0,0.0,0.0,0.0,0.0,5.495,5.6271,5.7409,5.6282,5.6198,5.6308,5.5768,5.6822,5.8719,6.1141,6.6059,7.2055,7.8427,8.0078,8.2223,8.8977,8.9307,8.8739,9.0115,9.0592,9.1143,9.2207,9.4336,9.5886,9.5983,9.6011,9.5715,9.501,9.4697,9.3956,9.2483,9.1853,9.092,8.9476,8.8577,8.7881,8.7432,8.6915,8.6536,8.6329,8.6294,8.6053,8.5535,8.5294,8.4915,8.4363,8.4363,8.5436,8.7422,8.8035,8.835,8.8446,8.8873,8.8409,8.7399,8.7729,8.7839,8.7912,8.8739,8.872,8.8353,8.9748,9.0244,9.0354,0.0,0.0,0.0,0.0,0.0,0.0,0.0,0.0,0.0,0.0,4.1397,0.0,0.0,0.0,0.0,0.0,0.0,0.0,0.0,4.3922,4.4848,4.623,4.8036,5.0064,5.2248,5.524,5.7923,6.0344,6.0078,5.9359,5.816,5.7294,5.682,5.6662,5.7686,5.7343,5.5962,5.5687,5.5012,5.4179,5.4326,5.3995,5.3455,0.0,0.0,0.0,0.0,0.0,0.0,0.0,0.0,0.0,5.4289,5.539,5.6418,5.5805,5.5721,5.5941,5.6418,5.785,6.0187,6.4224,6.9362,7.5212,8.1893,8.4903,8.7692,9.2721,9.2207,9.1144,9.2035,9.2278,9.25,9.2892,9.4351,9.534,9.5208,9.4863,9.4297,9.332,9.2943,9.2188,9.0733,9.0319,8.9617,8.8242,8.7674,8.7294,8.6984,8.6536,8.6294,8.6294,8.6018,8.5639,8.519,8.4604,8.4052,8.3545,8.3545,8.427,8.5677,8.6551,8.6993,8.716,8.8381,8.8189,8.7051,8.7876,8.8206,8.828,8.9069,8.929,8.9307,9.0592,9.1069,9.1143,0.0,0.0,0.0,0.0,0.0,0.0,0.0,0.0,0.0,0.0,4.1837,4.2616,0.0,0.0,0.0,0.0,0.0,0.0,0.0,0.0,4.46,4.677,4.7902,5.0571,5.508,5.655,5.6572,5.5156,5.6714,5.7103,5.6431,5.8295,5.9469,6.0161,6.2789,6.2522,6.0042,5.9137,5.7435,5.5328,5.4656,5.4803,5.5328,5.473,0.0,0.0,0.0,0.0,0.0,0.0,0.0,0.0,5.4142,5.4436,5.4656,5.5401,5.5133,5.517,5.7666,5.8914,6.1104,6.7784,7.2812,7.8133,8.5803,9.1106,9.4758,9.5946,9.472,9.3301,9.2915,9.3078,9.3206,9.2894,9.4072,9.5048,9.4927,9.4137,9.319,9.2196,9.1407,9.0583,8.9605,8.8881,8.8122,8.726,8.726,8.6984,8.626,8.626,8.626,8.6191,8.5535,8.5121,8.4984,8.3604,8.288,8.2811,8.2906,8.3322,8.4144,8.506,8.5634,8.5878,8.7429,8.7729,8.7161,8.7912,8.8243,8.839,8.9179,8.995,9.0702,9.151,9.1803,9.1803,0.0,0.0,0.0,0.0,0.0,0.0,0.0,0.0,0.0,0.0,0.0,0.0,0.0,0.0,0.0,0.0,0.0,0.0,0.0,0.0,4.4885,4.5851,4.8987,5.2053,5.4988,5.4851,5.4255,5.3215,5.4391,5.4939,5.4943,5.7521,5.9286,6.0396,6.2027,6.1517,5.9222,5.6579,5.4766,5.3765,5.4216,5.4142,5.3849,5.4913,0.0,0.0,0.0,0.0,0.0,0.0,0.0,0.0,5.4142,5.484,5.5365,5.5548,5.5904,5.6969,6.0015,6.141,6.3894,7.1674,7.9543,8.6481,9.0812,9.3602,9.4695,9.2792,9.4272,9.5277,9.3251,9.392,9.4409,9.3377,9.3676,9.3849,9.3038,9.2258,9.14,9.0372,8.962,8.8851,8.7975,8.7743,8.7122,8.5777,8.6225,8.6225,8.5466,8.5984,8.6053,8.5466,8.5294,8.4639,8.3397,8.3087,8.2604,0.0,8.2742,8.3148,8.3393,8.4847,8.5952,8.675,8.7109,8.7509,8.7949,8.8133,8.8573,8.9216,9.0024,9.0427,9.0702,9.151,9.1803,9.1803,0.0,0.0,0.0,0.0,0.0,0.0,0.0,0.0,0.0,0.0,0.0,0.0,0.0,0.0,0.0,0.0,0.0,0.0,0.0,0.0,4.5359,4.7136,5.0286,5.2576,5.3931,5.3543,5.2957,5.2211,5.2269,5.2934,5.4183,5.7243,5.9405,6.0796,6.2793,6.198,5.8991,5.7375,5.5794,5.4399,5.4803,5.495,5.4976,5.5438,0.0,0.0,0.0,0.0,0.0,0.0,0.0,0.0,0.0,0.0,5.4509,5.4913,5.5317,5.6528,6.0529,6.2963,6.6856,7.6872,8.4431,9.0115,9.3015,9.4554,9.4621,9.2044,9.3771,9.5114,9.3018,9.3528,9.373,9.1999,9.22,9.2247,9.131,9.0482,8.9751,8.9234,8.8501,8.7881,8.7467,8.6777,8.6018,8.5259,8.519,8.5052,8.4639,8.4984,8.5018,8.4639,8.4294,8.3707,8.2914,8.2569,8.219,8.181,8.2691,8.3548,8.4355,8.5231,8.6109,8.7014,8.7435,8.7582,8.7692,8.8463,8.8776,8.8886,8.9693,9.0024,9.006,9.0501,9.0886,9.1216,0.0,0.0,0.0,0.0,0.0,0.0,0.0,0.0,0.0,0.0,0.0,0.0,0.0,0.0,0.0,0.0,0.0,0.0,0.0,0.0,0.0,4.908,5.126,5.2576,5.2957,5.2708,5.2316,5.1714,5.0896,5.1852,5.4445,5.7352,5.9694,6.1547,6.368,6.2541,5.8969,5.8527,5.6946,5.4777,5.5049,5.5416,5.571,5.5317,5.4583,5.3702,5.3031,0.0,5.2994,5.3141,0.0,0.0,0.0,0.0,5.3361,5.4179,5.4509,5.5611,6.0138,6.4548,7.0485,8.1352,8.7281,9.096,9.3117,9.4098,9.3998,9.2011,9.3185,9.3919,9.1799,9.2106,9.2,8.9992,9.028,9.0514,8.9849,8.8981,8.8398,8.8398,8.7708,8.7156,8.7053,8.5915,8.5087,8.4811,8.4328,8.3924,8.3821,8.4062,8.4087,8.3821,8.3362,8.2983,8.2707,8.2121,8.181,8.1834,8.2849,8.4231,8.5898,8.5898,8.632,8.7014,8.7692,8.7619,8.7088,8.8445,8.8666,8.828,8.8923,8.929,8.94,8.94,8.9803,9.0391,0.0,0.0,0.0,0.0,0.0,0.0,0.0,0.0,0.0,0.0,4.3023,4.3096,0.0,0.0,0.0,0.0,0.0,0.0,0.0,0.0,0.0,4.989,5.0964,5.2116,5.3541,5.2944,5.2204,5.1363,5.1358,5.3187,5.6779,5.7927,6.016,6.3245,6.2907,6.1343,5.8823,5.6054,5.3532,5.1563,5.2825,5.2663,5.1746,5.3031,5.259,5.1279,5.1169,0.0,5.227,5.2957,5.3214,0.0,0.0,0.0,5.3361,5.4179,5.4887,5.615,5.948,6.7401,7.6068,8.1744,8.6393,8.977,9.0639,9.1334,9.1649,9.1067,9.2345,9.2451,8.8666,8.9148,8.971,8.8527,8.8691,8.8904,8.8801,8.8086,8.757,8.757,8.6915,8.6191,8.557,8.5328,8.4639,8.3328,8.3707,8.3718,8.3087,8.4328,8.4432,8.3087,8.3545,8.3235,8.1948,8.1845,8.181,8.1834,8.344,8.5153,8.6838,8.6838,8.6891,8.7014,8.7088,8.7088,8.7014,8.7234,8.7692,8.8206,8.8316,8.8793,8.94,8.94,8.9473,8.9657,0.0,0.0,0.0,0.0,0.0,0.0,0.0,0.0,0.0,0.0,0.0,4.3651,0.0,0.0,0.0,0.0,0.0,0.0,0.0,0.0,0.0,4.8669,4.9097,5.0086,5.1749,5.0964,5.083,5.1422,5.0939,5.3625,5.9216,5.9579,6.1316,6.4121,6.2834,6.1058,5.8786,5.551,5.3346,5.215,5.2265,5.225,5.215,5.2417,5.2087,5.1389,5.0949,5.1022,5.1463,5.227,5.2527,5.2632,5.3142,0.0,0.0,0.0,5.3387,5.5327,6.1307,6.8413,7.5633,8.1995,8.5328,8.7748,9.0465,9.0559,8.9894,8.9401,8.9647,8.9477,8.7881,8.7986,8.7986,8.7015,8.7332,8.7598,8.7338,8.7018,8.6777,8.6777,8.6122,8.557,8.5225,8.4432,8.3638,8.2949,8.2845,8.2638,8.2293,8.2949,8.2983,8.2328,8.2604,8.2466,8.181,8.1362,8.1644,8.2646,8.3336,8.4625,8.6317,8.6299,8.6554,8.6978,8.6978,8.6978,8.7014,8.7509,8.7619,8.7582,8.8023,8.8133,8.8042,8.8042,8.8335,8.883,0.0,0.0,0.0,0.0,0.0,0.0,0.0,0.0,0.0,0.0,0.0,0.0,0.0,0.0,0.0,0.0,0.0,0.0,0.0,0.0,0.0,4.729,4.758,4.8383,4.9894,4.9253,4.9651,5.1129,5.0652,5.4194,6.1426,6.163,6.346,6.6569,6.4397,6.1964,5.9359,5.6451,5.4655,5.3728,5.2569,5.2176,5.2307,5.2307,5.205,5.1646,5.1242,5.1096,5.1242,5.2013,5.2307,5.2344,5.2629,5.2552,0.0,0.0,0.0,5.4174,6.139,6.6793,7.2,7.8895,8.2447,8.5132,8.8526,8.8667,8.8005,8.7439,8.6786,8.6473,8.6908,8.6927,8.6621,8.5986,8.6276,8.6481,8.6338,8.6156,8.6018,8.6018,8.5535,8.5052,8.4639,8.3569,8.2742,8.2338,8.2017,8.1707,8.15,8.1879,8.1983,8.181,8.1983,8.1879,8.15,8.089,8.1404,8.2948,8.3066,8.3839,8.5189,8.5335,8.5517,8.5808,8.6638,8.6978,8.7051,8.7655,8.7545,8.7051,8.7655,8.7545,8.6978,8.6978,8.7399,8.8059,0.0,0.0,0.0,0.0,0.0,0.0,0.0,0.0,0.0,0.0,0.0,0.0,0.0,0.0,4.2973,4.2901,4.2901,4.2928,4.2964,4.3689,4.4838,4.6494,4.729,0.0,4.8967,4.892,4.9329,5.0184,5.0898,5.5317,6.3106,6.3866,6.7112,7.211,6.8406,6.4639,6.0974,5.926,5.7361,5.5317,5.362,5.1663,5.0041,5.227,5.2186,5.0949,5.1693,0.0,5.206,5.2847,5.3141,5.3176,5.344,5.2999,5.2396,0.0,0.0,0.0,5.7356,6.1344,6.5381,7.0124,7.6519,8.1832,8.2442,8.4111,8.5432,8.5292,8.4415,8.3934,8.4619,8.5244,8.566,8.5865,8.5568,8.5511,8.6225,8.5708,8.5259,8.5259,8.5225,8.4639,8.3156,8.2949,8.2293,8.0821,8.1397,8.1466,8.0683,8.2052,8.2535,8.181,8.25,8.2155,8.0683,8.0614,8.1042,8.1961,8.2761,8.3245,8.3455,8.423,8.3759,8.2532,8.5664,8.6978,8.6978,8.7051,8.7014,8.6978,8.7051,8.7014,8.6978,8.6978,8.7014,8.7271,0.0,0.0,0.0,0.0,0.0,0.0,0.0,0.0,0.0,0.0,0.0,0.0,0.0,4.3363,4.3471,4.2964,4.2892,4.3109,4.3652,4.3942,4.4802,4.6432,4.7254,4.7833,4.8123,4.863,4.9028,4.9329,5.0137,5.3832,6.0158,6.2526,6.5518,6.885,6.6939,6.5081,6.3062,5.8308,5.5945,5.5144,5.2992,5.2279,5.2485,5.1799,5.1572,5.1671,0.0,0.0,5.1357,5.2742,5.2828,5.234,5.2226,5.1719,5.1144,5.0902,5.1235,5.2354,5.5384,5.8537,6.2311,6.7907,7.2295,7.5951,7.8833,8.0792,8.2076,8.219,8.2521,8.2881,8.3152,8.3749,8.4512,8.5489,8.5061,8.4861,8.552,8.4915,8.4432,8.4432,8.4018,8.35,8.2949,8.1994,8.1407,8.1397,8.1155,8.1155,8.1362,8.1914,8.2086,8.181,8.1569,8.0683,7.9201,7.9649,8.0105,8.0513,8.115,8.1857,8.2469,8.2725,8.287,8.2947,8.47,8.5464,8.5537,8.6583,8.6978,8.6978,8.6978,8.6978,8.6978,8.6978,8.6978,8.7161,0.0,0.0,0.0,0.0,0.0,0.0,0.0,0.0,0.0,0.0,0.0,0.0,0.0,0.0,4.4304,4.3761,4.3725,4.3942,4.4486,4.4512,4.5091,4.6421,4.7254,4.7833,4.8087,4.8884,4.9304,4.9336,5.0401,5.3373,5.8145,6.1054,6.3961,6.675,6.512,6.5083,6.59,6.0735,5.8382,5.7777,5.4273,5.3891,5.5299,5.4239,5.4044,5.4445,0.0,0.0,5.2845,5.3699,5.3157,5.203,5.1806,5.1151,5.0349,4.9999,5.0601,5.1719,5.3195,5.5663,5.9202,6.5073,6.7734,7.0409,7.5953,7.7601,7.8431,8.013,8.0911,8.1528,8.2272,8.2688,8.3303,8.4515,8.4156,8.3946,8.4703,8.4121,8.3614,8.3614,8.3225,8.2707,8.219,8.1201,8.0614,8.0672,8.0396,0.0,8.1017,8.1259,8.1397,8.1397,8.0614,7.9614,7.843,7.8913,7.9185,7.9269,7.9924,8.0436,8.0808,8.1041,8.1168,8.1331,8.3025,8.4187,8.5118,8.6474,8.6978,8.6978,8.6978,8.6978,8.696,8.6679,8.6731,8.7053,0.0,0.0,0.0,0.0,0.0,0.0,0.0,0.0,0.0,4.4051,0.0,0.0,0.0,0.0,0.0,4.5417,4.5417,4.5417,4.5417,4.5417,4.578,4.6576,4.7363,4.8159,4.892,4.9738,5.0156,5.0217,5.1704,5.4097,5.7314,5.9631,6.2824,6.6467,6.344,6.472,6.9076,6.6591,6.4867,6.3296,5.7702,5.6495,5.8177,5.9603,5.9657,5.923,6.0783,5.9406,5.6737,5.5988,5.4326,5.2569,5.2529,5.15,0.0,0.0,5.043,5.1134,0.0,0.0,0.0,6.0878,6.2719,6.5405,7.3409,7.4187,7.4515,7.8991,7.9397,7.9634,8.19,8.1928,8.1969,8.2995,8.2766,8.2864,8.3831,8.3304,8.2845,8.288,8.2845,8.2259,8.0787,8.0614,7.9994,7.8568,7.912,7.9477,7.9477,8.0166,8.058,8.058,7.9856,7.912,7.8361,7.8361,7.8361,7.8361,7.912,7.9086,7.8419,7.9191,7.8742,7.7461,8.0559,8.3347,8.5769,8.6595,8.6925,8.6943,8.6925,8.6925,8.6856,8.599,8.6192,8.6931,0.0,0.0,0.0,0.0,0.0,0.0,4.463,4.463,4.4729,0.0,0.0,0.0,4.6142,4.7218,4.7906,4.7906,4.7906,4.7906,4.7906,4.7906,4.8279,4.9086,4.9883,5.0137,4.9775,5.0649,5.078,5.0145,5.1241,5.2475,5.3904,5.6926,5.9591,6.1875,6.3261,6.4318,6.4822,6.1136,6.1026,6.2994,5.8601,5.9247,6.2529,5.9598,5.9826,0.0,0.0,6.029,5.9845,0.0,5.8114,5.6578,0.0,0.0,0.0,0.0,0.0,0.0,5.0753,0.0,0.0,0.0,0.0,0.0,6.3531,6.5797,6.8335,7.2834,7.4458,7.6153,7.9646,8.022,8.0486,8.1704,8.2237,8.2658,8.3142,8.2063,8.1442,8.2052,8.1603,8.1304,8.1466,8.0925,8.0442,0.0,7.9683,7.9477,7.9477,7.9683,7.9787,7.9787,7.9086,7.8327,7.7546,7.7511,7.7511,7.7546,7.8327,7.8603,7.8396,7.8632,7.8793,7.8984,7.9923,8.1388,8.3174,8.4558,8.5502,8.6009,8.5367,8.5502,8.5972,8.5058,8.49,8.513,0.0,0.0,0.0,0.0,0.0,4.6287,4.6287,4.6287,4.6421,0.0,0.0,0.0,4.8387,5.0524,5.1466,5.0477,5.0079,4.9897,4.9897,4.9582,4.9619,5.0064,5.0861,5.1079,5.0608,5.1481,5.1573,5.0726,5.1617,5.2101,5.2272,5.5157,5.6985,5.8011,5.9912,6.0852,6.0811,5.7391,5.8592,6.2572,6.0316,6.1961,6.5487,6.2724,6.328,0.0,0.0,0.0,6.3415,6.2387,6.1068,0.0,0.0,0.0,0.0,0.0,0.0,0.0,0.0,0.0,5.3281,5.531,0.0,0.0,6.0655,6.1907,6.3632,6.8415,7.0364,7.227,7.5865,7.7234,7.8119,7.9213,8.0181,8.1196,8.2304,8.1097,8.0545,8.1672,8.0569,7.9994,8.0776,8.0132,7.9545,7.9201,7.8787,7.8683,7.9017,7.9614,7.9683,7.9086,7.8327,7.7649,7.7201,7.6891,7.6891,7.7201,7.7684,7.789,7.789,7.789,7.817,7.8642,7.9313,8.0106,8.107,8.2654,8.4023,8.5098,8.4599,8.47,8.5039,8.4169,8.4278,8.4813,0.0,0.0,4.6939,4.7797,4.7978,4.8051,4.834,4.8196,4.8449,0.0,4.9173,4.98,5.2226,5.4907,0.0,0.0,5.2419,5.1839,5.1586,5.0898,5.0463,5.0354,5.1151,5.1513,5.1441,5.24,5.2512,5.169,5.255,5.2642,5.2107,5.4138,5.5045,5.5002,5.5188,5.6004,5.7045,5.532,5.7341,6.1701,6.186,6.4218,6.7513,6.7056,6.8004,6.9526,6.8461,6.7749,6.7046,6.5406,6.331,0.0,0.0,0.0,0.0,0.0,5.2599,0.0,0.0,0.0,0.0,5.7627,5.6799,0.0,6.1279,6.0569,6.0298,6.5269,6.6846,6.8322,7.1593,7.3765,7.5208,7.5721,7.7033,7.8844,8.1224,8.0293,7.9913,8.1362,7.9672,7.8706,7.9431,7.8913,7.8189,7.7373,7.7235,7.7546,7.8361,7.9545,7.9649,7.843,7.7615,7.7201,7.7201,7.6546,7.6546,7.7201,7.7201,7.7201,7.7201,7.7304,7.727,7.727,7.8718,7.9408,7.9614,8.0983,8.2641,8.4231,8.4127,8.4148,8.4184,8.3371,8.407,8.5259,0.0,4.7166,4.7906,4.9376,4.963,5.0282,5.2226,5.143,5.1357,5.3446,5.5233,5.7224,5.9638,5.9891,5.918,0.0,5.65,5.5233,5.3349,5.3096,5.2697,5.2045,5.2806,5.2915,5.2263,5.3861,5.3941,5.2417,5.3434,5.3818,5.358,5.4147,5.4122,5.3633,5.4271,5.4339,5.407,5.6144,5.755,5.845,5.9815,6.4168,6.96,6.7058,6.8259,7.0996,6.8906,6.8774,6.9238,6.7086,6.4605,6.1877,0.0,0.0,0.0,5.3796,0.0,0.0,0.0,0.0,0.0,0.0,0.0,0.0,5.5987,5.6833,5.9099,6.255,6.3362,6.5,7.0005,7.19,7.2358,7.149,7.374,7.6602,7.9534,7.9189,7.8948,7.9821,7.9051,7.8706,7.9431,7.9373,7.8959,7.8223,7.7546,7.7546,7.8361,7.8063,7.8028,7.8396,7.7615,7.7201,7.7201,7.7063,7.7063,7.7201,7.7201,7.7201,7.7235,7.7856,7.7787,7.7235,7.8201,7.8948,7.9511,7.9821,8.1294,8.3266,8.259,8.2736,8.3328,8.3056,8.3612,8.4488,4.6741,4.7912,4.9293,5.0499,5.1695,5.3023,5.4617,5.4508,5.4943,5.6958,6.0013,6.186,6.1448,6.21,6.1462,0.0,0.0,0.0,0.0,5.3929,5.3349,5.2528,5.3347,5.3599,5.32,5.4558,5.4697,5.3389,5.3734,5.3677,5.3208,5.329,5.2615,5.1296,5.2374,5.2408,5.1717,5.3656,5.5923,5.8461,6.1548,6.5224,6.875,6.8249,7.002,7.2579,7.0905,7.0738,7.0682,6.6552,6.5724,0.0,5.9824,5.9133,5.9784,0.0,5.6112,5.6246,0.0,0.0,0.0,5.6799,0.0,0.0,0.0,5.5683,5.6664,6.0013,6.0114,6.0998,6.5644,6.6759,6.7379,6.8617,7.0347,7.2705,7.6154,7.6671,7.7235,7.8775,7.7258,7.6533,7.7684,7.7787,7.7787,7.7787,7.7787,7.7787,7.7787,7.7787,7.7787,7.7787,7.7028,7.6822,7.7201,7.6822,7.6822,7.7201,7.7201,7.7201,7.7201,7.7615,7.758,7.7235,7.8028,7.8844,7.9511,7.989,8.1009,8.2407,8.1965,8.229,8.2975,8.2933,8.3698,8.4714,4.7344,4.8679,5.0209,5.1332,5.3385,5.5269,5.6283,5.7007,5.8166,6.0267,6.3635,6.4989,6.2685,6.3903,6.3577,6.0343,0.0,0.0,0.0,5.4556,5.3336,5.2528,5.3405,5.3728,5.3438,5.4868,5.5176,5.4213,5.3947,5.3494,5.2832,5.2763,5.1731,4.995,5.0913,5.1278,5.1191,5.1377,5.4529,5.972,6.3709,6.5914,6.7056,6.9184,7.1297,7.3116,7.2564,7.2394,7.1616,6.6508,6.7138,6.8738,6.1114,6.1777,0.0,0.0,0.0,0.0,0.0,0.0,0.0,0.0,0.0,5.7728,0.0,0.0,0.0,5.8032,5.7543,5.7611,6.0945,6.1473,6.2267,6.4713,6.6416,6.8428,7.1243,7.2533,7.4236,7.7189,7.4912,7.3809,7.5499,7.5533,7.5787,7.6684,7.7339,7.7511,7.6994,7.7718,7.7856,7.7235,7.6615,7.658,7.7201,7.6615,7.6615,7.7201,7.7201,7.7201,7.7201,7.7373,7.7339,7.7235,7.8028,7.8844,7.9545,8.0132,8.0948,8.181,8.181,8.2155,8.2707,8.2845,8.3898,8.5218,4.8529,4.8887,4.9753,5.1973,5.3784,5.5631,5.7804,5.8202,5.9615,6.3345,6.5482,6.712,6.8305,6.7294,6.641,6.6031,6.1359,0.0,6.005,0.0,5.3393,5.2528,5.3321,5.3172,5.1791,5.4868,5.5713,5.4213,5.4504,5.4569,5.4327,5.3807,5.3011,5.2048,5.1644,5.2726,5.4691,5.3114,5.5689,6.0935,6.2949,6.46,6.6106,6.8381,6.9795,7.0767,7.1966,7.2394,7.209,0.0,6.9446,6.9033,0.0,6.4905,6.3973,6.3862,0.0,0.0,0.0,0.0,0.0,0.0,6.2361,0.0,0.0,0.0,5.81,5.7239,0.0,5.6341,5.8084,0.0,0.0,5.6867,6.1331,6.4772,6.3929,6.5619,6.8759,7.3727,7.2243,7.1657,7.3865,7.3485,7.3671,7.5063,7.527,7.558,7.6201,7.6925,7.7304,7.7201,7.7132,7.7132,7.7201,7.7132,7.7132,7.7201,7.7201,7.7201,7.7235,7.7925,7.7856,7.7235,7.8028,7.8844,7.9534,7.958,8.05,8.181,8.181,8.1845,8.2017,8.2673,8.3936,8.5356,4.7129,4.842,5.0053,5.155,5.353,5.5691,5.8058,6.1571,6.4577,6.6279,6.8669,7.0496,7.1247,6.9874,6.87,6.8303,6.4821,6.2314,0.0,0.0,0.0,5.539,5.4917,5.4458,5.4001,5.5072,5.5092,5.4037,5.3794,5.342,5.2901,5.2584,5.18,5.066,5.1123,5.2488,5.4442,5.4856,5.691,6.0081,6.2987,6.4511,6.5505,6.948,7.1751,7.2766,7.2969,7.2766,7.1921,0.0,6.8873,0.0,0.0,0.0,0.0,0.0,0.0,0.0,0.0,0.0,0.0,0.0,0.0,0.0,5.8558,0.0,5.7255,0.0,0.0,0.0,0.0,0.0,0.0,0.0,5.8974,6.0901,6.216,6.2385,6.459,7.0498,6.8379,0.0,6.9621,7.038,7.1174,7.2222,7.3119,7.3947,7.4705,7.5891,7.6753,7.7201,7.7201,7.7201,7.7201,7.7201,7.7201,7.7201,7.7649,7.7649,7.7235,7.8477,7.8373,7.7235,7.8028,7.8603,7.8913,7.9327,8.0132,8.1132,8.1638,8.2052,8.25,8.2811,8.3904,8.5255,4.6431,4.8315,5.0499,5.1731,5.3748,5.6138,5.8963,6.3526,6.7076,6.8199,7.0517,7.2416,7.3317,7.2395,7.1743,7.1863,6.9056,6.6446,0.0,0.0,5.8861,0.0,0.0,0.0,5.5384,5.5636,5.5254,5.414,5.3507,5.2982,5.2581,5.2049,5.1437,5.089,5.2194,5.4008,5.6179,5.7532,5.9644,6.2279,6.458,6.6237,6.7692,7.0872,7.3138,7.4492,7.3544,7.2834,7.1853,6.8402,6.9045,0.0,6.6825,0.0,0.0,0.0,0.0,0.0,6.644,0.0,0.0,0.0,0.0,0.0,0.0,0.0,0.0,0.0,0.0,0.0,0.0,0.0,0.0,0.0,0.0,5.8903,6.0621,5.9747,6.1089,6.6971,6.5822,0.0,0.0,6.8138,6.9,6.9725,7.0622,7.1657,7.283,7.4326,7.5706,7.6856,7.7097,7.7201,7.7201,7.7201,7.7201,7.7201,7.7787,7.7753,7.7235,7.858,7.858,7.7546,7.8154,7.8637,7.9051,7.9339,8.0063,8.1017,8.1569,8.2121,8.2638,8.2845,8.388,8.519,4.7631,4.8967,5.0825,5.3204,5.4907,5.7297,6.1267,6.273,6.4736,6.8648,6.9916,7.1666,7.4877,7.5037,7.5927,7.8364,7.424,7.1189,7.0369,0.0,6.077,0.0,0.0,5.7188,0.0,5.675,5.6935,5.477,5.4245,5.4251,5.4752,5.327,5.3244,5.4499,5.6111,5.8807,6.2096,6.1554,6.4654,6.9722,6.8335,7.0398,7.4062,0.0,7.2676,7.44,7.2969,0.0,0.0,7.1413,7.1188,0.0,0.0,0.0,0.0,0.0,0.0,0.0,0.0,0.0,0.0,6.4796,0.0,0.0,0.0,0.0,6.1772,0.0,0.0,0.0,0.0,0.0,0.0,0.0,0.0,0.0,0.0,5.6884,5.8168,6.2943,6.5505,6.7187,0.0,6.7463,6.7359,0.0,6.7566,6.8172,7.038,7.1967,7.383,7.6063,7.6822,7.7201,7.7201,7.7201,7.7201,7.7201,7.7235,7.7235,7.7235,7.8085,7.843,7.8361,7.8396,7.9224,8.0476,7.9787,8.0396,8.1776,8.1776,8.181,8.1914,8.2638,8.388,8.519,5.0778,5.1756,5.2552,5.2842,5.3784,5.5993,6.0507,6.4128,6.8026,7.2699,7.493,7.7794,8.2204,8.1592,8.1613,8.3556,8.0146,7.719,7.5471,7.1438,0.0,0.0,0.0,6.1803,0.0,0.0,0.0,5.5945,5.4982,5.4702,5.5041,5.477,5.4889,5.5412,5.741,5.9847,6.257,6.4776,6.6584,6.803,6.9011,7.1785,7.5202,0.0,0.0,7.3747,7.2732,7.209,0.0,7.1391,7.1289,7.1188,7.0737,7.0737,7.0838,7.0331,7.0534,0.0,0.0,0.0,7.1142,6.7354,0.0,0.0,0.0,0.0,0.0,0.0,0.0,0.0,0.0,0.0,0.0,0.0,0.0,0.0,0.0,5.5843,5.6372,5.9058,6.1679,6.3117,6.291,0.0,6.3324,6.3565,6.3358,0.0,6.7275,6.9828,7.2243,7.4499,7.5809,7.6718,7.7201,7.7201,7.7201,7.7201,7.7718,7.7994,7.8051,7.927,7.958,7.9155,7.9614,7.9856,7.989,8.0132,8.0545,8.1063,8.1603,8.2397,8.3225,8.2983,8.3535,8.457,5.3313,5.3784,5.4037,5.3784,5.5124,5.7538,6.1485,6.6446,7.1361,7.5701,7.8932,8.2477,8.6885,8.6575,8.6465,8.7503,8.5555,8.2504,7.8261,7.666,0.0,7.1301,6.8939,0.0,0.0,0.0,0.0,0.0,5.6661,5.6472,5.6576,5.5992,5.6105,5.6984,5.9757,6.1806,6.3463,6.7963,6.9485,6.8944,7.0669,7.2823,7.483,0.0,7.3849,7.3713,0.0,7.1718,7.1289,7.1289,7.1289,7.1222,7.0737,7.0939,7.1176,7.0398,7.0737,7.1222,7.0973,7.165,0.0,6.9011,6.7996,0.0,6.2956,0.0,0.0,0.0,0.0,0.0,0.0,0.0,0.0,0.0,0.0,0.0,0.0,5.4975,5.5383,5.6747,5.9474,6.0924,6.0167,6.1081,6.1151,5.9806,6.0185,6.1461,0.0,0.0,7.038,7.2899,7.5016,7.6442,7.7201,7.7201,7.7201,7.7201,7.8017,7.8396,7.8465,7.9925,8.0339,7.9925,8.0373,8.0476,8.0327,8.0511,8.0752,8.1063,8.1603,8.2397,8.32,8.3293,8.3949,8.4984,5.516,5.516,5.5498,5.6223,5.8818,6.1679,6.4192,6.9394,7.4242,7.7625,8.1727,8.5589,8.8873,8.9839,9.0239,9.0276,9.0146,8.6844,7.9233,8.0706,0.0,0.0,7.2969,7.1555,6.7294,0.0,0.0,0.0,5.9264,5.9392,5.9376,5.6972,5.6984,5.9115,6.2922,6.458,6.4952,7.0906,7.3071,7.2563,7.3172,7.3534,7.3534,7.2665,7.3274,7.4255,7.2067,7.1289,7.1289,7.1289,7.1289,7.1289,7.1289,7.1289,7.1176,7.0466,7.0737,7.1142,7.0432,7.1312,7.1954,6.9789,0.0,0.0,0.0,0.0,7.1819,0.0,0.0,0.0,0.0,0.0,0.0,0.0,0.0,0.0,0.0,0.0,5.5043,5.5876,5.88,6.0505,5.9853,6.1216,6.0634,5.7012,5.8012,5.915,6.0047,0.0,6.829,7.1291,7.443,7.6408,7.7201,7.7201,7.7235,7.727,7.8028,7.843,7.8568,7.9959,8.0614,8.0649,8.0649,8.1097,8.1741,8.0959,8.1121,8.181,8.181,8.1845,8.2086,8.3476,8.4984,8.6294,5.6794,5.8682,6.057,6.1369,6.1094,6.2264,6.6562,7.056,7.5127,8.0832,8.5275,8.9404,9.3379,9.2648,9.213,9.2709,9.0924,0.0,0.0,0.0,0.0,8.0123,7.8362,7.6401,7.4087,7.0484,0.0,6.5725,0.0,6.0823,6.0887,5.9038,5.8168,5.8355,6.2685,6.4309,6.4153,7.0161,7.3206,7.3984,7.3037,7.368,7.4864,0.0,7.2496,7.3544,7.1921,7.1289,7.1289,7.1289,7.1289,7.1289,7.1289,7.1289,7.1255,7.1052,7.1154,7.1255,7.1075,7.209,7.2935,7.1819,7.1853,7.1447,0.0,0.0,0.0,0.0,0.0,0.0,0.0,0.0,0.0,0.0,0.0,0.0,0.0,0.0,0.0,5.5617,5.5792,5.649,5.8119,5.762,5.6863,5.5961,5.5754,5.6495,5.8392,0.0,0.0,6.9794,7.336,7.5856,7.7201,7.7201,7.7511,7.8063,7.8292,7.8982,8.0028,8.0442,8.0925,8.15,8.15,8.1603,8.1776,8.1569,8.1603,8.181,8.181,8.2466,8.3476,8.3855,8.4984,8.6294,5.932,6.2327,6.4975,6.5554,6.5985,6.7302,7.0356,7.3406,7.734,8.2845,8.6848,9.0238,9.2959,9.3148,9.3107,9.3236,9.2171,0.0,8.731,0.0,0.0,8.3635,8.2063,8.0046,7.7481,7.3943,0.0,6.836,0.0,6.291,6.2789,5.9881,5.8457,5.8558,6.2753,6.4208,6.3849,6.9519,7.2969,7.4434,7.2665,7.2868,0.0,7.2033,7.1819,7.2428,7.1616,7.1289,7.1289,7.1289,7.1289,7.1289,7.1289,7.1289,7.1289,7.1289,7.1289,7.1289,7.1289,7.2394,7.3398,7.2969,7.3612,7.3849,7.1954,7.3037,7.3883,0.0,0.0,0.0,0.0,0.0,0.0,0.0,0.0,0.0,0.0,0.0,0.0,5.5074,5.523,5.569,5.6833,5.5168,5.4007,5.4005,5.4849,5.5503,0.0,0.0,0.0,6.7793,7.2689,7.5906,7.7201,7.7856,7.827,7.8396,7.8741,7.9477,8.0614,8.0959,8.1397,8.181,8.181,8.181,8.181,8.181,8.181,8.181,8.181,8.25,8.3545,8.3855,8.4984,8.6294,6.2336,6.5836,6.8721,6.8807,7.1771,7.4478,7.5523,7.7899,8.0967,8.4828,8.8137,9.0393,9.11,9.2631,9.3313,9.2613,9.3083,9.1602,8.7282,8.9705,8.9364,8.4968,8.4642,8.2983,7.9562,7.7113,7.3697,0.0,0.0,6.4632,6.3937,5.981,5.8254,5.9013,6.2685,6.4275,6.4525,6.9057,7.2236,7.4018,7.2067,7.1751,7.2326,7.1582,7.1289,7.1289,7.1289,7.1289,7.1289,7.1289,7.1289,7.1289,7.1289,7.1289,7.1289,7.1289,7.1289,7.1323,7.1447,7.2462,7.3534,7.3612,7.527,7.6521,7.5043,7.5337,7.5608,7.4772,7.4086,7.358,0.0,0.0,0.0,0.0,0.0,0.0,0.0,0.0,0.0,0.0,0.0,0.0,5.63,5.4094,5.2566,5.2267,5.4689,0.0,0.0,0.0,0.0,6.5872,7.2033,7.5966,7.7294,0.0,7.9063,7.8799,7.927,7.9925,8.0787,8.15,8.181,8.181,8.181,8.181,8.181,8.181,8.181,8.181,8.1914,8.2397,8.3156,8.3855,8.5087,8.6294,6.4999,6.8575,7.1185,7.0727,7.494,7.9584,8.3078,8.5159,8.7281,8.999,9.3121,9.5181,9.5326,9.3679,9.2524,9.2359,9.1186,0.0,0.0,0.0,0.0,8.7848,8.6637,8.5536,8.4624,7.9405,7.5469,0.0,0.0,6.3546,6.0858,5.8829,5.7967,5.822,6.1366,6.4783,6.8199,6.9113,7.0432,7.183,7.1458,7.1751,7.2326,7.1582,7.1289,7.1289,7.1289,7.1289,7.1289,7.1289,7.1289,7.1289,7.1289,7.1289,7.1289,7.1289,7.1289,7.1424,7.2056,7.2834,7.3669,7.4255,7.5676,7.6657,7.5709,7.6115,7.6284,7.4897,7.4492,7.368,7.1277,0.0,0.0,0.0,0.0,0.0,0.0,0.0,0.0,0.0,0.0,5.6519,5.7693,5.6251,5.482,5.3723,5.415,0.0,0.0,0.0,0.0,0.0,7.0436,0.0,0.0,0.0,7.8672,8.0789,7.9901,8.0224,8.1603,8.1741,8.181,8.181,8.181,8.181,8.181,8.181,8.181,8.1845,8.2466,8.3156,8.389,8.4708,8.5535,8.6294,6.8772,7.1383,7.3855,7.5211,7.9185,8.3495,8.743,9.0921,9.2753,9.1691,9.328,9.4128,9.3022,9.3248,9.313,9.2224,9.1815,9.1263,9.0321,9.0076,8.9735,8.9183,8.7708,8.6375,8.5366,8.0678,7.6874,7.4082,0.0,0.0,6.1384,5.8613,5.7137,5.6867,5.9066,6.3429,6.9045,6.8267,0.0,7.1853,7.1424,7.1751,7.2326,7.1582,7.1289,7.1289,7.1289,7.1289,7.1289,7.1289,7.1289,7.1289,7.1289,7.1289,7.1289,7.1289,7.1289,7.1458,7.2191,7.2935,7.3703,7.4424,7.5439,7.6183,7.5777,7.598,7.6082,7.5337,7.4864,7.3713,7.0737,6.6867,0.0,0.0,0.0,0.0,0.0,0.0,0.0,0.0,0.0,0.0,0.0,0.0,5.5536,5.354,5.4377,0.0,0.0,0.0,0.0,0.0,0.0,0.0,0.0,0.0,0.0,8.0717,8.0149,8.0531,8.181,8.181,8.181,8.181,8.181,8.181,8.181,8.181,8.2017,8.2431,8.2776,8.3338,8.4097,8.4915,8.5432,8.5777,7.3177,7.4926,7.7181,8.0304,8.3791,8.7281,9.064,9.4946,9.6607,9.3173,9.3305,9.3004,9.0943,9.2705,9.3406,9.1892,9.2416,9.2265,9.0899,9.1015,9.0767,8.9976,8.8467,8.6995,8.5538,8.1702,7.7835,0.0,0.0,0.0,0.0,5.8616,5.6867,5.624,5.8389,0.0,0.0,0.0,6.9316,7.2157,7.1887,7.2022,7.2326,7.1751,7.1526,7.1526,7.1526,7.1526,7.1526,7.1526,7.1424,7.1289,7.1289,7.1289,7.1289,7.1289,7.1289,7.1492,7.2394,7.3037,7.3713,7.4627,7.527,7.5709,7.5709,7.5709,7.5676,7.5506,7.4762,7.3375,7.0872,6.8233,0.0,0.0,0.0,0.0,0.0,0.0,0.0,0.0,0.0,0.0,5.5902,0.0,0.0,0.0,0.0,0.0,5.1584,0.0,0.0,0.0,0.0,7.289,7.6368,0.0,7.9655,0.0,8.0316,8.0757,8.181,8.181,8.181,8.181,8.181,8.1879,8.2052,8.2052,8.2466,8.3156,8.3156,8.3604,8.4304,8.4984,8.5294,8.5535,7.8163,8.0076,8.2062,8.4742,8.85,9.1748,9.3655,9.6028,9.7405,9.6739,9.6812,9.6162,9.4358,9.299,9.1876,9.0985,9.0995,9.0987,9.0812,9.0822,9.0814,9.0709,8.9295,8.8304,8.7899,8.301,7.8099,0.0,0.0,0.0,0.0,0.0,0.0,0.0,0.0,0.0,0.0,6.8504,7.0466,7.1492,7.2766,7.2935,7.2394,7.2326,7.2293,7.2293,7.2293,7.2293,7.2293,7.2293,7.1853,7.1289,7.1289,7.1289,7.1289,7.1289,7.1289,7.1616,7.3003,7.3466,7.3838,7.5236,7.5642,7.5709,7.5709,7.5709,7.5506,7.4864,7.3578,7.2326,7.1379,6.9891,6.8064,0.0,0.0,0.0,0.0,0.0,6.3091,6.0148,0.0,0.0,5.6172,5.6968,0.0,0.0,5.2941,0.0,0.0,0.0,0.0,6.1647,0.0,7.169,7.6111,7.6584,0.0,8.1908,8.0758,8.0757,8.181,8.181,8.181,8.181,8.181,8.219,8.2811,8.2811,8.3225,8.389,8.389,8.4397,8.5087,8.5156,8.5639,8.6225,8.2727,8.3341,8.4781,8.8757,9.0372,9.2037,0.0,9.6603,9.7232,9.6253,9.7215,9.7104,9.4687,9.4339,9.3547,9.1659,9.1502,9.133,9.0847,9.0812,9.0812,9.0812,8.9812,8.8811,8.792,8.4451,8.0068,0.0,0.0,0.0,0.0,0.0,0.0,0.0,0.0,6.3226,6.6677,6.8166,6.9789,7.1424,7.2902,7.3331,7.3037,7.3037,7.3037,7.3037,7.3037,7.3037,7.3105,7.3578,7.2642,7.1289,7.1289,7.1289,7.1391,7.1853,7.1954,7.2293,7.3747,7.4153,7.4424,7.5439,7.5709,7.5709,7.5709,7.5709,7.5608,7.5337,7.4458,7.351,7.2766,7.1041,6.9755,0.0,0.0,0.0,0.0,0.0,0.0,6.0452,0.0,5.6697,5.4583,5.4499,0.0,0.0,0.0,0.0,0.0,0.0,0.0,6.1961,0.0,6.9536,7.4486,7.6611,7.8675,8.079,8.0896,8.1239,8.181,8.181,8.2052,8.2466,8.2466,8.288,8.3545,8.3545,8.4018,8.4742,8.4742,8.519,8.5846,8.5846,8.6053,8.6294,8.6693,8.6835,8.8026,9.2148,9.2347,9.2791,9.5321,9.6102,9.615,9.5617,9.6543,9.6406,9.4176,9.439,9.3886,9.1823,9.164,9.1399,9.0847,9.0812,9.0812,9.0812,9.0088,0.0,8.7894,8.5451,8.1791,7.6781,7.3662,0.0,0.0,0.0,0.0,0.0,6.1704,6.4174,6.7963,6.9079,7.0601,7.2371,7.3646,7.4177,7.4119,7.3916,7.395,7.4119,7.3883,7.395,7.4221,7.4762,7.3883,7.2563,7.2338,7.2124,7.209,7.2834,7.2902,7.3105,7.483,7.51,7.51,7.5845,7.6048,7.598,7.5743,7.5709,7.5709,7.5709,7.51,7.4458,7.3916,7.236,7.1345,7.1988,0.0,0.0,0.0,0.0,0.0,0.0,5.7949,5.5378,5.4262,5.3687,0.0,0.0,0.0,0.0,0.0,0.0,0.0,0.0,0.0,0.0,0.0,7.6877,7.8987,8.0209,8.1033,8.1538,8.181,8.2017,8.2535,8.32,8.32,8.3673,8.4338,8.4338,8.4811,8.5535,8.5535,8.5846,8.6294,8.6294,8.6294,8.6294,8.9931,9.1179,9.2424,9.4747,9.5145,9.5101,9.5035,9.4134,9.4047,9.5602,9.4946,9.404,9.3192,9.2495,9.1736,9.0881,9.0812,9.0812,9.0812,9.0812,9.0812,0.0,0.0,8.9234,8.8217,8.595,8.2781,7.8692,0.0,0.0,6.7024,0.0,6.414,6.3612,6.7354,6.8571,6.8132,7.1875,7.3883,7.4627,7.5371,7.5676,7.5574,7.4864,7.5033,7.5574,7.4864,7.5067,7.5676,7.5676,7.5676,7.5506,7.4796,7.4052,7.3612,7.4356,7.4052,7.3974,7.6251,7.6284,7.5879,7.669,7.6893,7.669,7.5879,7.5709,7.5709,7.5709,7.51,7.4603,7.4593,7.395,7.2969,7.1548,0.0,0.0,0.0,0.0,0.0,6.3815,6.2144,5.9742,5.6037,5.5665,0.0,0.0,0.0,0.0,0.0,0.0,0.0,6.1231,6.7049,0.0,7.4559,7.7124,7.926,8.1005,8.1273,8.1538,8.181,8.2569,8.3293,8.3993,8.3993,8.4466,8.519,8.519,8.5639,8.6294,8.6294,8.6294,8.6294,8.6294,8.6294,8.6294,9.351,9.4134,9.4719,9.6006,9.5647,9.5152,9.4966,9.4051,9.3535,9.3902,9.3227,9.2606,9.2364,9.2571,9.2226,0.0,9.0812,9.0812,0.0,9.0812,9.0812,9.0812,9.0421,8.9461,8.7894,8.7149,8.472,8.046,0.0,0.0,0.0,6.7916,6.7557,6.7387,6.9079,7.0534,7.1819,7.3544,7.4695,7.5439,7.6217,7.6826,7.7232,7.6995,7.7063,7.7232,7.6995,7.7063,7.7333,7.7841,7.7671,7.7299,7.7604,7.6454,7.5033,7.527,7.5574,7.6082,7.7299,7.7435,7.7333,7.757,7.7638,7.7435,7.669,7.6082,7.5709,7.5709,7.5506,7.5337,7.5337,7.4762,7.3916,7.2969,7.2563,0.0,0.0,0.0,0.0,0.0,5.8118,5.5513,0.0,5.5564,0.0,0.0,0.0,0.0,0.0,0.0,0.0,0.0,6.7624,0.0,7.4593,7.7634,7.9532,8.0243,8.1033,8.1789,8.2569,8.3304,8.4087,8.4811,8.4811,8.5259,8.5949,8.5949,8.6087,8.6294,8.6294,8.6294,8.6294,8.6294,8.6294,8.6294,9.4685,9.4918,9.4939,9.503,9.4539,9.3946,9.3447,9.2805,9.2495,9.2678,9.2295,9.1985,9.1985,9.2399,0.0,9.0916,9.0812,9.0812,9.0812,9.0812,9.0812,9.0812,9.0627,8.978,8.8052,0.0,0.0,8.2471,8.0374,7.6825,7.2022,7.1718,7.1582,7.1616,7.236,7.3477,7.483,7.5574,7.6149,7.6589,7.7096,7.7739,7.8382,7.8111,7.8145,7.8416,7.8416,7.8416,7.8551,7.9566,7.96,7.9261,7.9464,7.8923,7.8044,7.7232,7.713,7.7536,7.8551,7.8619,7.8416,7.8416,7.8416,7.8213,7.7468,7.669,7.6149,7.6149,7.5912,7.5709,7.5709,7.5337,7.4695,7.3669,7.2868,7.1142,6.7557,0.0,0.0,0.0,0.0,0.0,0.0,5.7848,0.0,0.0,0.0,0.0,0.0,0.0,0.0,6.5087,6.9519,0.0,7.5845,7.8584,8.0077,8.0311,8.1438,8.2573,8.3776,8.4259,8.488,8.5604,8.5604,8.588,8.6294,8.6294,8.6294,8.6294,8.6294,8.6294,8.6294,8.6294,8.6294,8.6294,9.3958,9.4037,9.3661,0.0,9.24,0.0,9.104,9.0865,9.1088,9.1813,9.195,9.1985,9.1916,9.195,9.1675,9.0881,0.0,0.0,0.0,9.0812,9.0812,9.0812,9.076,9.007,8.8588,8.7938,8.6555,8.4327,8.0969,7.8619,7.7198,7.6386,7.598,7.598,7.6724,7.7029,7.7029,7.7705,7.8034,7.8102,7.8102,7.8517,7.9092,7.8416,7.8585,7.9169,7.9228,7.9261,7.9464,8.0885,8.1384,8.1283,8.0581,8.1291,8.2002,7.9811,7.872,7.8517,7.9972,7.9803,7.9295,7.9329,7.927,7.9058,7.8247,7.7536,7.7029,7.6927,7.6284,7.5777,7.5709,7.5709,7.5202,7.3669,7.2766,7.0669,6.619,0.0,0.0,0.0,0.0,0.0,0.0,6.1854,6.3294,0.0,0.0,0.0,0.0,0.0,6.5324,6.7963,7.2462,7.5912,7.8111,7.9815,8.0836,8.1175,8.2466,8.3811,8.519,8.5259,8.5639,8.6294,8.6294,8.6294,8.6294,8.6294,8.6294,8.6294,8.6294,8.6294,8.6294,8.6294,8.6294,8.6294,0.0,0.0,9.3993,9.4438,9.3284,9.2228,9.198,9.129,9.0881,9.1054,9.1606,9.1778,9.1157,9.164,9.1675,9.0881,9.0812,9.0812,9.0812,9.0812,9.0812,9.0812,9.0422,8.9461,8.7946,8.7361,8.6006,8.37,8.229,8.1156,8.0242,7.9498,7.8822,7.8314,7.8483,7.828,7.7764,7.7933,7.8314,7.8855,7.8855,7.9295,7.9938,7.9735,7.9803,8.0006,8.0581,8.0784,8.0919,8.1832,8.2137,8.2103,8.1934,8.2137,8.2103,8.0412,8.0209,8.0741,8.1629,8.1325,8.0919,8.1494,8.119,8.0445,7.916,7.872,7.828,7.713,7.6758,7.642,7.5811,7.5709,7.5033,7.2969,7.1548,6.9147,6.4647,6.2922,0.0,0.0,6.0994,6.1603,6.1603,6.326,6.4275,0.0,0.0,0.0,0.0,6.9147,7.0094,6.9654,7.4559,7.7976,7.9667,8.0657,8.1647,8.2704,8.4014,8.4846,8.5225,8.5777,8.6122,8.6294,8.6294,8.6294,8.6294,8.6294,8.6294,8.6294,8.6294,8.6294,8.6294,8.6294,8.6294,8.6294,9.4467,9.3569,9.2684,9.3132,9.2607,9.217,9.217,9.2001,9.1847,9.1847,9.2226,9.233,9.1916,9.2226,9.2192,9.1433,9.1019,9.0812,9.0812,9.0812,9.0812,9.0812,9.0079,8.9145,8.7946,8.7048,8.5722,8.3998,8.3253,8.2712,8.2272,8.1562,8.0987,8.0589,8.0589,8.0412,8.0006,8.0006,8.004,8.0141,8.0479,8.0445,8.0276,8.0953,8.0987,8.0818,8.19,8.2069,8.1968,8.305,8.3186,8.2915,8.2915,8.3152,8.3159,8.2035,8.1731,8.19,8.2306,8.2103,8.19,8.2306,8.2103,8.1596,8.0818,8.0107,7.9397,7.8585,7.7604,7.6758,7.6318,7.5676,7.4356,7.1819,7.0128,6.7455,6.2618,6.1907,0.0,6.0757,6.2584,6.4174,6.485,6.6576,6.7387,6.6711,0.0,0.0,6.9925,7.3138,7.4255,7.2766,7.6792,7.9701,8.119,8.1851,8.2709,8.3763,8.4736,8.5397,8.5708,8.6122,8.6294,8.6294,8.6294,8.6294,8.6294,8.6294,8.6294,8.6294,8.6294,8.6294,8.6294,8.6294,8.6294,8.6294,9.3569,9.2448,9.1221,9.1178,9.1712,9.2157,9.2157,9.2709,9.3054,9.2951,9.3123,9.3192,9.2951,9.3123,9.2916,9.2054,9.1311,9.0863,9.0812,9.076,9.0733,9.0733,8.9823,8.8977,8.8223,8.6867,8.5625,8.4614,8.3964,8.3659,8.3659,8.305,8.2652,8.2577,8.2577,8.2509,8.2408,8.2408,8.2035,8.1494,8.2171,8.1663,8.0682,8.1934,8.2002,8.1629,8.3016,8.3084,8.278,8.414,8.4174,8.3659,8.3659,8.4099,8.4478,8.3862,8.3219,8.272,8.272,8.272,8.2712,8.2611,8.2644,8.2644,8.2306,8.1426,8.0615,8.0276,7.872,7.7333,7.7096,7.5811,7.3849,7.0973,6.8842,6.5899,6.1129,0.0,6.167,6.1772,6.4613,6.7151,6.8774,7.0466,7.1142,7.0331,7.1684,7.2766,0.0,7.6352,7.7671,7.6589,7.9126,8.119,8.2543,8.3219,8.39,8.4549,8.5114,8.5708,8.6294,8.6294,8.6294,8.6294,8.6294,8.6294,8.6294,8.6294,8.6294,8.6294,8.6294,8.6294,8.6294,8.6294,8.6294,8.6294,9.3759,9.2848,9.2105,9.2849,9.2965,9.2916,9.2916,9.302,9.2882,9.2261,9.3296,9.3606,9.2295,9.333,9.3537,9.2123,9.1633,9.1235,9.082,9.0574,9.0441,9.0441,8.9826,8.9144,8.8395,8.6738,8.5438,8.4614,8.4478,8.4411,8.4411,8.4309,8.3903,8.3321,8.3321,8.2983,8.2408,8.2408,8.234,8.2238,8.2374,8.2272,8.2103,8.2306,8.234,8.234,8.3186,8.3422,8.3456,8.4309,8.4512,8.4411,8.4411,8.4512,8.458,8.4444,8.4343,8.4242,8.4242,8.4242,8.4106,8.349,8.3795,8.3768,8.19,8.2238,8.2441,8.0581,7.9938,7.9295,7.8044,7.6555,7.4762,7.2428,6.8673,6.5108,6.2415,0.0,6.3396,6.4005,6.7861,7.1278,7.3375,7.2766,7.3206,7.5506,7.4221,7.4447,7.6985,7.828,7.9397,8.0378,8.1494,8.2475,8.3321,8.4513,8.5207,8.5344,8.5871,8.6191,8.6294,8.6294,8.6294,8.6294,8.6294,8.6294,8.6294,8.6294,8.6294,8.6294,8.6294,8.6294,8.6294,8.6294,8.6294,8.6294,9.2293,9.221,9.2145,9.2565,9.3264,9.3744,9.3744,9.4089,9.4227,9.3882,9.4434,9.4468,9.333,9.4055,9.4007,9.2528,9.2084,9.1686,9.1201,9.0547,9.018,9.018,8.9362,8.8313,8.7023,8.621,8.5418,8.4614,8.4614,8.4614,8.4614,8.4614,8.4411,8.4072,8.4072,8.393,8.3565,8.3565,8.3355,8.305,8.343,8.3092,8.2509,8.3261,8.3355,8.3084,8.3828,8.4072,8.414,8.4478,8.4614,8.4614,8.4614,8.4614,8.4614,8.4614,8.4614,8.4614,8.4614,8.4614,8.4512,8.42,8.4343,8.4309,8.3321,8.3287,8.3219,8.2171,8.1359,8.0445,7.9363,7.7266,7.51,7.3274,6.8538,0.0,0.0,6.4377,6.5121,6.7895,7.1086,7.3984,7.6217,7.5473,7.5574,7.7367,7.6149,7.6454,7.9025,7.987,8.0953,8.2441,8.3219,8.3734,8.4072,8.5024,8.5514,8.5514,8.6043,8.6294,8.6294,8.6294,8.6294,8.6294,8.6294,8.6294,8.6294,8.6294,8.6294,8.6294,8.6294,8.6294,8.6294,8.6294,8.6294,8.6294,9.1363,9.1917,9.2261,9.2261,9.3503,9.4565,9.4565,9.5048,9.5331,9.5158,9.5262,9.5124,9.4392,9.4668,9.4301,9.2825,9.2322,9.1801,9.1097,9.0243,8.9854,8.999,8.8885,8.7695,8.6359,8.5987,8.5486,8.4884,8.4681,8.4614,8.4614,8.4614,8.4614,8.4614,8.4614,8.4614,8.4614,8.4614,8.4275,8.3795,8.4377,8.3903,8.3024,8.4174,8.4242,8.3828,8.4377,8.4614,8.4614,8.4614,8.4614,8.4614,8.4614,8.4614,8.4614,8.4614,8.4614,8.4614,8.4614,8.4614,8.4614,8.4614,8.4614,8.4546,8.4377,8.4065,8.3693,8.3524,8.2577,8.1562,8.0851,7.8416,7.5946,7.4255,0.0,0.0,0.0,6.6677,6.7523,7.1142,7.3849,7.6217,7.8314,7.8145,7.8213,7.8957,7.8483,7.8991,8.0851,8.1494,8.2408,8.3727,8.4275,8.4614,8.4614,8.5194,8.5514,8.5514,8.6043,8.6294,8.6294,8.6294,8.6294,8.6294,8.6294,8.6294,8.6294,8.6294,8.6294,8.6294,8.6294,8.6294,8.6294,8.6294,8.6294,8.6294,9.2325,9.278,9.302,9.302,9.4296,9.5296,9.5296,9.5365,9.5124,9.4496,9.4951,9.5124,9.4392,9.4668,9.4301,9.2825,9.2189,9.1205,8.9715,8.9329,8.944,8.9963,8.8727,8.7983,8.782,8.6501,8.5757,8.5689,8.4979,8.4614,8.4614,8.4614,8.4614,8.4614,8.4614,8.4614,8.4614,8.4614,8.458,8.4512,8.458,8.4512,8.4444,8.4546,8.458,8.4512,8.458,8.4614,8.4614,8.4614,8.4614,8.4614,8.4614,8.4614,8.4614,8.4614,8.4614,8.4614,8.4614,8.4614,8.4614,8.4614,8.4614,8.4411,8.3727,8.4065,8.4309,8.3625,8.3422,8.3118,8.2374,8.0378,7.8111,7.5912,0.0,0.0,6.9113,7.0026,7.1176,7.2191,7.5506,7.8348,7.9904,8.0606,8.1257,8.2035,8.2035,8.2374,8.3219,8.3321,8.3693,8.4478,8.458,8.4614,8.4614,8.5194,8.5514,8.5514,8.6043,8.6294,8.6294,8.6294,8.6294,8.6294,8.6294,8.6294,8.6294,8.6294,8.6294,8.6294,8.6294,8.6294,8.6294,8.6294,8.6294,8.6294,9.1033,9.2649,9.4016,9.4042,9.5332,9.6317,9.6317,9.6317,9.6008,9.5096,9.4813,9.4427,9.3641,9.3752,9.3336,9.183,9.1574,9.1121,9.0305,8.9511,8.9184,8.944,8.8534,8.7989,8.7989,8.6535,8.5817,8.5817,8.4986,8.4614,8.4614,8.4614,8.4614,8.4614,8.4614,8.4614,8.4614,8.4614,8.4614,8.4614,8.4614,8.4614,8.4614,8.4614,8.4614,8.4614,8.4614,8.4614,8.4614,8.4614,8.4614,8.4614,8.4614,8.4614,8.4614,8.4614,8.4614,8.4614,8.4614,8.4614,8.4614,8.4614,8.4614,8.4512,8.4268,8.4377,8.4512,8.4242,8.42,8.3964,8.3219,8.1629,8.0175,7.9295,0.0,7.3105,7.4424,7.3883,7.413,7.6318,7.8619,8.0445,8.146,8.1832,8.2306,8.3016,8.3084,8.3422,8.414,8.42,8.4309,8.458,8.4614,8.472,8.4906,8.5273,8.5558,8.5737,8.6118,8.6294,8.6294,8.6294,8.6294,8.6294,8.6294,8.6294,8.6294,8.6294,8.6294,8.6294,8.6294,8.6294,8.6294,8.6294,8.6294,8.6294,9.1012,9.2919,9.4704,9.4693,9.5699,9.6524,9.6524,9.6485,9.6193,9.5475,9.4772,9.4062,9.3394,9.3105,9.2428,9.1082,9.0946,9.0747,9.0227,8.9517,8.91,8.91,8.8395,8.8091,8.8328,8.667,8.5892,8.6129,8.5087,8.4614,8.4614,8.4614,8.4614,8.4614,8.4614,8.4614,8.4614,8.4614,8.4614,8.4614,8.4614,8.4614,8.4614,8.4614,8.4614,8.4614,8.4614,8.4614,8.4614,8.4614,8.4614,8.4647,8.4884,8.5121,8.5324,8.5324,8.5324,8.5324,8.5324,8.5324,8.5189,8.4715,8.4783,8.4884,8.4647,8.4614,8.4614,8.4614,8.4614,8.4444,8.3964,8.2813,8.1858,8.1384,7.8305,7.6512,7.8111,7.7401,7.7468,7.9532,8.1088,8.2171,8.2712,8.2949,8.3321,8.3828,8.3862,8.4065,8.458,8.4614,8.4614,8.4614,8.4614,8.48,8.5228,8.5411,8.5635,8.5916,8.6169,8.6294,8.6294,8.6294,8.6294,8.6294,8.6294,8.6294,8.6294,8.6294,8.6294,8.6294,8.6294,8.6294,8.6294,8.6294,8.6294,8.6294,9.2822,9.3955,9.4912,9.49,9.5383,9.5717,9.5717,9.5537,9.5393,9.5365,9.4744,9.4152,9.3842,9.285,9.1792,9.0769,9.0392,8.9884,8.9168,8.91,8.91,8.91,8.8395,8.8328,8.91,8.6934,8.6163,8.6907,8.5358,8.4614,8.4614,8.4614,8.4614,8.4614,8.4614,8.4614,8.4614,8.4614,8.4614,8.4614,8.4614,8.4614,8.4614,8.4614,8.4614,8.4614,8.4614,8.4614,8.4614,8.4614,8.4614,8.4749,8.5554,8.6298,8.6907,8.6907,8.6907,8.6907,8.6907,8.6907,8.6541,8.4986,8.5215,8.5587,8.4783,8.4614,8.4614,8.4614,8.4614,8.4614,8.4614,8.3998,8.3016,8.1554,8.1317,8.0784,7.9329,8.0378,8.1317,8.1317,8.2611,8.3524,8.3524,8.4174,8.4614,8.4614,8.4614,8.4614,8.4614,8.4614,8.4614,8.4614,8.4614,8.4906,8.5514,8.5514,8.5635,8.5916,8.6169,8.6294,8.6294,8.6294,8.6294,8.6294,8.6294,8.6294,8.6294,8.6294,8.6294,8.6294,8.6294,8.6294,8.6294,8.6294,8.6294,8.6294,9.3654,9.4891,9.596,9.5968,9.6531,9.6782,9.6079,9.593,9.5598,9.4721,9.3305,9.2728,9.3711,9.2655,9.1602,9.0769,9.0867,9.0425,8.9201,8.91,8.91,8.91,8.8395,8.8328,8.91,8.6934,8.6163,8.6907,8.5358,8.4614,8.4614,8.4614,8.4614,8.4614,8.4614,8.4614,8.4614,8.4614,8.4614,8.4614,8.4614,8.4614,8.4614,8.4614,8.4614,8.4614,8.4614,8.4614,8.4614,8.4614,8.4614,8.4749,8.5554,8.6298,8.6907,8.6907,8.6907,8.6907,8.6907,8.7279,8.7313,8.5824,8.5621,8.5587,8.4783,8.4614,8.4614,8.4614,8.4614,8.4614,8.4614,8.4411,8.3964,8.2983,8.2847,8.2509,8.1562,8.2238,8.2847,8.2847,8.3693,8.4275,8.4275,8.4478,8.4614,8.4614,8.4614,8.4614,8.4614,8.4614,8.4614,8.4614,8.4614,8.4906,8.5514,8.5514,8.5712,8.6169,8.6244,8.6294,8.6294,8.6294,8.6294,8.6294,8.6294,8.6294,8.6294,8.6294,8.6294,8.6294,8.6294,8.6294,8.6294,8.6294,8.6294,8.6294,9.5032,9.6352,9.7351,9.7064,9.7334,9.7173,9.5811,9.5569,9.506,9.3853,9.2385,9.1782,9.2521,9.1578,9.0651,9.0126,9.0302,9.0154,8.9579,8.9269,8.91,8.91,8.8666,8.8632,8.91,8.7482,8.6873,8.7347,8.5824,8.508,8.508,8.4749,8.4614,8.4614,8.4614,8.4614,8.4614,8.4614,8.4614,8.4614,8.4614,8.4614,8.4614,8.4952,8.508,8.5114,8.5391,8.5493,8.5493,8.5493,8.5696,8.6027,8.6501,8.7177,8.7753,8.7753,8.7753,8.7753,8.7753,8.8091,8.8125,8.6974,8.667,8.6366,8.5317,8.529,8.5324,8.4715,8.485,8.508,8.508,8.508,8.4945,8.4471,8.4403,8.4133,8.3362,8.3659,8.3964,8.3964,8.4309,8.4614,8.4614,8.4614,8.4614,8.4614,8.4614,8.4614,8.4614,8.4614,8.4614,8.4614,8.4614,8.4906,8.5514,8.5514,8.5797,8.6294,8.6294,8.6294,8.6294,8.6294,8.6294,8.6294,8.6294,8.6294,8.6294,8.6294,8.6294,8.6294,8.6294,8.6294,8.6294,8.6294,8.6294,8.6294,9.6722,9.8043,9.8721,9.7909,9.7611,9.6841,9.4946,9.4508,9.397,9.2741,9.1939,9.131,9.0831,9.0135,8.9521,8.9235,8.9201,8.9478,9.0154,8.9613,8.9235,8.9134,8.9168,8.9168,8.91,8.8361,8.7989,8.7989,8.6501,8.5851,8.5885,8.5012,8.4647,8.4681,8.4614,8.4614,8.4614,8.4614,8.4614,8.4614,8.4681,8.4715,8.4783,8.5587,8.5919,8.5993,8.667,8.6907,8.6907,8.6907,8.738,8.7989,8.7989,8.8497,8.91,8.91,8.91,8.91,8.91,8.91,8.8965,8.826,8.8091,8.7719,8.623,8.6433,8.6501,8.5087,8.5384,8.5919,8.5919,8.5919,8.5885,8.5817,8.5817,8.552,8.4715,8.4614,8.4614,8.4614,8.4614,8.4614,8.4614,8.4647,8.4715,8.4715,8.4715,8.4715,8.4715,8.4647,8.4614,8.4614,8.4614,8.4906,8.5514,8.5514,8.5797,8.6294,8.6294,8.6294,8.6294,8.6294,8.6294,8.6294,8.6294,8.6294,8.6294,8.6294,8.6294,8.6294,8.6294,8.6294,8.6294,8.6294,8.6294,8.6294,9.8043,9.8337,9.7847,9.6889,9.6706,9.58,9.3249,9.2835,9.2564,9.1847,9.1433,9.1267,9.1546,9.1189,9.0651,9.0019,8.9951,9.0019,9.0188,9.0594,9.029,8.9168,8.9647,8.9681,8.9134,8.8361,8.7989,8.7989,8.6501,8.6095,8.6636,8.5256,8.4945,8.552,8.4884,8.4614,8.4614,8.4614,8.4614,8.4647,8.5283,8.552,8.5621,8.6399,8.667,8.667,8.6839,8.6907,8.6907,8.6907,8.738,8.7989,8.7989,8.8497,8.91,8.91,8.91,8.91,8.91,8.91,8.9066,8.8897,8.8863,8.8463,8.7008,8.6805,8.6839,8.6474,8.6535,8.667,8.667,8.667,8.6467,8.5892,8.5817,8.552,8.4715,8.4614,8.4614,8.4614,8.4614,8.4614,8.4614,8.5182,8.552,8.552,8.552,8.552,8.552,8.4945,8.4614,8.4614,8.4614,8.4906,8.5514,8.5514,8.5797,8.6294,8.6294,8.6294,8.6294,8.6294,8.6294,8.6294,8.6294,8.6294,8.6294,8.6294,8.6294,8.6294,8.6294,8.6294,8.6294,8.6294,8.6294,8.6294,9.9255,9.9622,9.9179,9.7794,9.7535,9.6468,9.3323,9.2729,9.2186,9.0944,9.0543,9.0376,9.0505,9.0674,9.0763,9.0729,9.0087,8.9951,9.0696,9.0425,9.0053,8.9647,8.9647,8.9478,8.9134,8.8728,8.8497,8.8497,8.738,8.7042,8.738,8.5892,8.5384,8.5784,8.4979,8.4614,8.4614,8.4614,8.4817,8.5215,8.5621,8.5993,8.6399,8.7144,8.7414,8.7482,8.782,8.7955,8.7955,8.7955,8.8192,8.8497,8.8497,8.8795,8.91,8.91,8.91,8.91,8.91,8.91,8.91,8.91,8.91,8.8829,8.7685,8.7685,8.7753,8.7076,8.7177,8.7414,8.7414,8.7414,8.7313,8.6907,8.6839,8.6467,8.5317,8.5182,8.5046,8.4647,8.4614,8.4749,8.5148,8.5858,8.6332,8.6332,8.6332,8.6163,8.5817,8.5384,8.5012,8.4614,8.4614,8.4906,8.5514,8.5514,8.5797,8.6294,8.6294,8.6294,8.6294,8.6294,8.6294,8.6294,8.6294,8.6294,8.6294,8.6294,8.6294,8.6294,8.6294,8.6294,8.6294,8.6294,8.6294,8.6294,9.9862,10.0611,10.0522,9.8603,9.8186,9.6949,9.3586,9.2767,9.1897,9.014,8.9791,8.9549,8.9162,8.9748,9.0459,9.1068,9.0087,8.9918,9.1034,9.0087,8.9613,9.0019,8.9545,8.9235,8.91,8.91,8.91,8.91,8.8226,8.7888,8.7955,8.6332,8.5682,8.5784,8.4979,8.4614,8.4614,8.4614,8.5012,8.5621,8.5858,8.6332,8.7008,8.7854,8.8192,8.826,8.8897,8.91,8.91,8.91,8.91,8.91,8.91,8.91,8.91,8.91,8.91,8.91,8.91,8.91,8.91,8.91,8.91,8.8965,8.8328,8.8632,8.8734,8.7516,8.7753,8.8192,8.8192,8.8192,8.8158,8.8023,8.7989,8.7516,8.6163,8.5993,8.5723,8.5053,8.4884,8.5148,8.5892,8.6535,8.6974,8.7076,8.711,8.6771,8.6027,8.5885,8.5418,8.4614,8.4614,8.4879,8.5437,8.5489,8.5772,8.6219,8.6269,8.6294,8.6294,8.6294,8.6294,8.6294,8.6294,8.6294,8.6294,8.6294,8.6294,8.6294,8.6294,8.6294,8.6294,8.6294,8.6294,8.6294,9.8726,9.9085,9.8537,9.6554,9.5667,9.4453,9.2126,9.1178,9.0464,8.9689,9.0157,9.0154,8.9229,8.9748,9.0256,9.0357,9.0763,9.0831,9.0391,9.0763,9.0459,8.9303,8.9748,8.9748,8.9134,8.91,8.91,8.91,8.7719,8.738,8.7955,8.579,8.5148,8.5784,8.4979,8.4614,8.4614,8.4614,8.4647,8.4884,8.623,8.6805,8.7076,8.8429,8.8965,8.8937,8.9066,8.91,8.91,8.91,8.91,8.91,8.91,8.91,8.91,8.91,8.91,8.91,8.91,8.91,8.91,8.91,8.91,8.9066,8.8998,8.9032,8.9066,8.8835,8.8897,8.8965,8.8965,8.8965,8.8761,8.8091,8.7989,8.7719,8.6873,8.6771,8.6738,8.6602,8.6027,8.5926,8.667,8.6839,8.7177,8.7786,8.7854,8.7516,8.6805,8.6129,8.5418,8.4614,8.4614,8.4773,8.5142,8.5377,8.5635,8.5967,8.6194,8.6294,8.6294,8.6294,8.6294,8.6294,8.6294,8.6294,8.6294,8.6294,8.6294,8.6294,8.6294,8.6294,8.6294,8.6294,8.6294,8.6294,9.7952,9.8323,9.8026,9.6126,9.5395,9.4251,9.1847,9.0974,9.0304,8.9585,8.9684,8.9646,8.9134,8.9376,8.9748,9.0154,9.0121,9.0087,9.0188,9.0121,8.9951,8.9715,8.9613,8.941,8.9134,8.91,8.91,8.91,8.8429,8.8294,8.8564,8.6738,8.6298,8.6941,8.5324,8.485,8.5249,8.4783,8.485,8.5384,8.6467,8.7144,8.7617,8.87,8.91,8.9168,8.9579,8.9715,8.9715,8.9715,8.9715,8.9647,8.9235,8.91,8.91,8.91,8.91,8.91,8.91,8.91,8.91,8.91,8.91,8.9235,8.9613,8.9715,8.9579,8.9201,8.941,8.9579,8.9201,8.91,8.8998,8.8694,8.8598,8.8361,8.7617,8.7516,8.738,8.6974,8.6974,8.7144,8.7482,8.7888,8.826,8.8564,8.8226,8.7685,8.6941,8.6196,8.5418,8.4614,8.4614,8.4773,8.5124,8.5385,8.5635,8.5916,8.6169,8.6294,8.6294,8.6294,8.6294,8.6294,8.6294,8.6294,8.6294,8.6294,8.6294,8.6294,8.6294,8.6294,8.6294,8.6294,8.6294,8.6294]}]]